GFSCGP_prec_cloud_003.txt.gz
Cloud_Cover
100 100 85 0 94 3 95 10 5 5 4 0 0 0 3 86 97 74 100 100 90 16 5 3 0 0 0 0 0 0 0 0 0 5 30 92 100 89 46 69 5 0 0 0
89 93 2 14 5 98 100 5 5 5 4 0 0 1 5 100 100 97 75 44 14 9 5 5 0 0 1 7 10 65 34 3 4 5 5 5 15 5 26 12 5 0 1 1
75 57 100 9 66 56 37 16 5 5 0 0 0 0 0 89 95 19 28 14 96 100 76 24 23 71 93 100 83 66 89 67 29 11 5 5 10 5 4 5 3 0 4 5
100 64 52 100 88 99 96 55 95 6 0 0 0 0 5 65 100 6 70 98 87 100 100 100 100 100 100 31 5 9 5 6 32 74 6 5 5 5 4 0 0 0 1 5
100 97 31 100 88 12 61 95 87 33 3 3 1 2 0 99 57 5 42 100 80 15 91 44 66 67 76 6 5 6 5 48 56 5 5 1 0 0 0 2 4 5 7 7
47 5 7 8 84 54 96 92 87 5 4 3 2 4 0 88 48 5 5 100 100 93 4 5 4 8 28 6 0 0 9 34 4 0 0 0 5 5 27 91 100 100 100 74
95 98 100 79 100 94 79 90 74 4 2 0 3 5 0 99 5 5 1 2 5 20 4 0 0 0 0 0 0 0 0 0 0 0 5 5 11 48 77 75 98 100 100 100
82 100 41 100 93 19 5 5 5 0 0 0 0 4 2 97 5 5 5 5 0 0 0 0 0 0 0 0 0 0 0 0 2 5 5 5 46 86 100 100 89 59 49 46
100 9 26 5 5 5 5 5 0 0 5 8 0 0 0 100 14 5 5 5 2 1 0 0 0 0 0 0 0 0 5 5 5 5 30 27 6 28 76 83 66 69 41 26
48 47 33 5 5 16 5 4 0 4 5 5 0 0 0 99 38 5 2 5 7 0 0 1 0 0 0 0 2 5 5 5 5 5 17 75 94 62 25 7 24 22 5 5
6 4 12 34 5 5 5 0 0 0 1 1 0 0 0 50 54 32 5 5 5 10 5 5 5 3 1 5 24 27 6 55 34 79 96 100 80 29 29 11 5 28 54 62
41 78 4 6 5 5 0 0 0 0 0 0 0 0 0 18 100 22 99 97 7 87 68 5 5 5 5 5 11 60 68 95 96 98 43 40 7 10 19 37 43 93 57 84
57 61 94 89 33 2 0 0 0 0 0 0 11 11 0 7 100 100 100 100 100 100 100 100 100 100 100 100 76 93 98 34 6 5 5 5 14 39 81 73 100 100 92 62
88 98 34 28 44 2 0 5 14 2 0 71 12 4 0 5 100 100 100 100 100 100 100 100 100 100 100 100 100 100 69 17 5 5 7 31 96 96 93 69 26 6 2 0
70 88 97 64 5 0 0 5 9 0 50 23 17 0 0 78 100 100 100 100 100 100 100 100 100 100 100 100 40 5 5 5 5 17 16 6 2 4 1 0 0 0 0 0
99 77 47 65 100 2 0 0 3 53 16 5 6 85 100 100 100 100 100 100 100 100 100 100 100 62 10 25 5 5 5 5 5 23 49 1 5 5 5 5 0 0 0 0
100 64 57 48 5 5 0 4 5 5 40 100 100 100 100 100 96 97 100 100 99 88 17 46 43 16 5 5 5 4 5 14 97 98 12 5 5 5 5 5 5 5 5 5
100 100 100 98 46 30 100 83 46 87 100 100 100 100 88 24 54 48 6 6 5 5 5 5 4 3 1 5 5 9 97 91 23 5 5 5 5 5 5 5 5 5 2 0
100 100 100 95 99 100 100 100 100 100 100 100 100 100 100 100 60 9 5 5 4 5 5 5 5 5 5 31 74 100 93 13 6 7 5 5 5 5 5 5 3 0 0 0
100 100 100 100 100 100 100 100 100 100 100 100 100 100 100 100 95 9 5 3 5 5 14 20 7 60 100 100 87 6 7 72 83 10 5 5 5 4 0 0 0 0 0 0
100 100 100 100 100 100 100 100 99 97 100 100 100 100 88 41 12 5 11 47 78 71 52 5 14 27 66 98 91 78 69 99 29 26 5 3 0 0 0 0 0 0 0 0
100 100 100 100 100 100 100 100 100 100 100 100 100 7 5 5 5 6 50 68 69 49 8 5 5 5 80 94 83 82 50 5 5 1 2 0 0 0 0 0 0 0 0 0
100 100 100 100 100 100 100 100 100 100 36 21 14 6 39 29 18 40 13 19 71 30 5 5 24 25 13 99 100 11 5 5 5 1 0 0 0 0 0 0 0 0 0 0
100 100 100 100 100 100 100 100 100 96 100 99 83 8 5 5 15 78 54 6 5 5 5 5 13 85 100 84 6 1 5 5 5 0 0 0 0 0 0 0 0 0 0 0
100 100 100 100 100 49 93 73 86 94 66 16 17 11 5 23 42 25 24 6 5 27 100 100 100 90 45 5 5 4 5 5 0 0 0 0 0 0 0 0 0 0 0 17
26 55 98 98 34 7 23 69 58 5 7 5 5 20 63 17 6 5 3 20 83 100 100 100 48 5 5 5 5 4 3 0 0 0 0 0 0 0 0 0 0 1 5 23

GFSCGP_prec_cloud_006.txt.gz
Cloud_Cover
95 95 100 6 0 2 7 12 5 4 5 0 0 0 0 0 0 5 5 98 100 100 94 95 100 5 5 0 0 0 0 1 0 0 0 0 0 0 0 5 19 37 9 5
100 96 43 99 35 87 6 99 50 5 5 0 1 0 0 0 2 5 5 88 97 99 99 100 100 58 2 1 0 0 2 32 5 0 0 0 0 4 5 13 26 12 4 4
100 60 18 43 6 34 93 84 64 3 5 0 0 0 0 0 2 5 2 96 100 100 91 86 100 48 10 4 4 25 77 50 5 5 4 2 5 6 5 5 5 5 5 3
99 96 99 71 60 15 97 36 100 24 23 1 0 0 0 0 0 56 64 5 100 100 34 86 100 100 100 99 100 100 100 98 30 18 5 31 62 18 5 1 0 0 0 0
70 92 100 100 59 5 3 88 98 100 100 5 0 0 0 0 0 5 5 5 95 100 60 8 90 100 100 100 99 85 38 67 96 75 38 5 5 5 0 0 0 1 5 5
100 100 97 23 100 29 73 76 100 100 100 34 0 0 0 0 0 5 4 5 4 100 87 7 87 100 97 13 19 9 60 64 18 5 5 23 5 0 0 1 5 5 5 14
66 16 22 100 95 61 100 98 100 76 48 2 0 2 0 0 0 0 0 5 5 100 100 7 2 2 4 0 0 0 0 0 0 0 0 0 0 2 2 5 5 5 5 5
78 100 100 100 36 26 100 100 59 5 4 0 0 1 0 0 0 0 0 5 5 100 100 43 0 0 0 0 0 0 0 0 0 0 0 0 0 4 5 5 5 5 16 5
100 66 32 53 46 53 100 84 63 5 5 3 0 0 0 0 0 0 0 1 5 5 79 20 2 0 0 0 0 0 0 0 0 0 0 4 5 5 5 13 48 12 5 6
5 6 22 96 61 100 91 70 45 5 5 0 0 0 0 0 0 0 0 0 31 6 31 22 5 5 4 1 0 0 5 17 5 5 4 5 6 11 42 96 50 49 63 54
7 31 89 100 72 52 99 46 42 41 6 0 0 0 0 0 0 0 0 0 28 99 6 1 5 8 9 32 29 79 72 16 42 56 50 78 96 100 100 86 83 12 5 5
18 16 89 91 11 100 87 63 5 5 0 0 0 0 0 0 0 0 0 0 5 20 5 5 6 96 100 100 100 100 100 100 100 100 100 100 98 86 17 5 5 5 5 4
41 89 29 98 70 5 7 5 6 12 0 0 0 0 0 0 0 0 1 2 5 11 7 31 8 58 100 100 100 100 100 100 63 5 5 7 5 5 6 5 5 5 5 5
97 97 9 5 5 5 4 5 5 0 0 0 0 0 0 0 1 16 5 5 22 7 79 72 98 100 100 100 100 100 81 56 12 15 5 7 27 9 5 5 3 2 0 0
97 94 98 64 12 37 46 67 43 2 0 0 0 0 0 0 92 77 5 56 79 18 100 100 100 100 100 100 92 87 96 74 24 9 5 8 5 5 5 0 0 4 0 0
100 97 100 100 97 100 13 5 0 0 0 0 0 0 0 64 90 70 99 72 37 100 100 100 100 100 100 100 99 46 17 33 20 5 10 16 5 0 4 0 0 0 0 0
100 100 100 73 75 66 3 4 0 0 5 0 1 2 82 28 38 85 100 100 100 100 100 100 100 100 100 97 50 31 11 5 39 66 51 5 5 5 0 0 0 0 0 0
99 99 99 100 46 5 57 4 0 1 5 6 91 100 99 43 51 99 100 100 100 100 100 100 97 90 84 71 23 5 5 64 70 6 6 5 5 4 0 0 0 2 0 0
100 100 100 100 100 100 100 100 91 20 95 97 100 98 100 99 100 99 100 100 99 100 96 94 97 62 91 14 26 59 100 51 6 5 5 5 5 0 0 0 0 0 1 0
100 100 100 100 100 100 100 100 100 100 100 100 100 99 100 95 92 96 96 85 96 73 53 22 83 9 5 5 5 27 24 5 5 5 5 1 0 0 4 3 0 4 0 0
100 100 100 100 98 92 100 100 100 100 100 100 75 71 100 100 100 72 76 93 86 20 5 5 5 5 5 15 57 76 5 5 5 0 0 0 1 5 4 1 2 0 0 0
100 100 100 100 100 100 97 100 94 96 100 100 95 100 100 100 100 100 100 100 78 6 5 5 5 5 36 94 49 5 5 5 1 0 4 4 36 4 1 4 0 0 0 0
100 100 100 100 100 100 100 100 100 100 100 100 100 100 100 100 100 100 90 6 5 5 19 17 5 5 5 5 5 5 5 0 0 1 5 5 5 5 5 0 0 0 0 0
100 100 100 100 100 100 100 100 100 100 100 100 100 100 100 100 94 44 5 5 39 19 31 13 8 62 95 100 20 4 0 3 16 31 5 5 5 5 1 0 0 0 0 2
100 100 96 99 100 100 100 100 100 100 100 100 100 100 93 62 7 5 5 22 39 14 5 24 30 96 99 25 3 3 5 5 5 4 5 5 5 1 0 0 0 0 2 37
82 100 100 100 99 100 100 100 100 98 21 7 8 5 5 7 43 33 13 8 5 5 14 50 96 93 8 5 5 5 5 5 5 5 5 5 5 0 0 0 0 5 5 49

GFSCGP_prec_cloud_009.txt.gz
Cloud_Cover
76 100 100 86 5 37 100 16 5 0 5 5 0 0 0 0 0 0 0 0 0 5 82 96 100 88 100 59 5 5 0 0 0 0 0 0 0 0 0 0 0 0 5 10
100 100 89 100 77 100 8 100 5 4 8 10 0 0 0 0 0 0 0 0 4 5 23 94 100 99 21 36 65 60 1 0 1 1 5 0 0 0 0 0 1 4 5 10
10 100 100 100 93 26 5 5 3 5 54 20 0 0 0 0 0 0 0 1 5 20 5 93 88 100 39 12 96 98 89 79 93 5 2 0 0 0 3 5 5 5 5 2
76 100 100 100 90 12 5 32 5 6 39 5 5 4 0 0 0 0 0 5 5 5 5 8 81 10 50 6 51 100 100 93 88 5 4 5 5 3 4 5 4 5 5 0
99 100 100 98 68 25 20 54 23 73 80 32 1 5 0 3 0 2 0 3 5 5 5 6 99 64 5 5 5 6 49 100 100 100 100 94 60 5 5 2 4 5 0 0
100 90 100 99 100 99 8 100 59 37 88 45 0 2 0 3 0 4 0 4 19 100 56 55 76 100 5 36 19 5 5 4 53 98 100 99 39 4 2 0 0 0 0 0
100 100 100 100 100 100 100 70 92 93 99 8 0 0 0 0 0 0 0 0 8 63 5 5 5 3 5 75 100 100 22 0 0 0 0 0 0 0 0 0 0 1 4 5
100 100 86 96 100 100 100 55 53 100 5 5 0 0 0 0 0 0 0 0 0 0 2 5 5 0 5 77 100 100 76 5 2 5 1 5 1 0 0 4 5 17 11 7
95 61 100 58 100 64 100 95 55 46 5 2 0 0 0 0 0 0 0 0 0 0 3 5 0 0 0 5 13 100 90 43 49 20 5 5 39 71 62 31 33 30 70 82
47 98 93 28 100 99 25 26 100 92 6 5 0 0 0 0 0 0 0 0 0 0 0 1 0 0 0 0 7 9 18 98 53 43 74 74 84 60 37 6 29 80 99 79
5 5 46 98 98 88 41 84 69 98 6 5 0 0 0 0 0 0 0 0 0 0 0 0 0 0 0 4 5 28 68 8 8 22 91 93 56 12 77 68 56 18 5 5
31 3 5 34 58 15 5 8 52 10 5 4 3 0 0 0 0 0 0 0 0 0 0 0 0 0 4 5 74 10 5 5 8 91 89 100 99 88 41 56 5 5 5 3
25 5 15 90 20 6 5 78 83 12 5 5 5 1 0 0 0 0 0 0 0 0 0 0 0 2 63 92 18 48 83 92 100 100 100 78 12 5 5 5 5 5 5 5
96 67 6 17 53 86 44 8 18 21 27 5 2 0 0 0 0 0 0 0 0 0 0 5 5 5 60 96 62 79 97 100 96 89 49 9 5 9 15 5 5 5 5 5
94 99 62 31 100 13 6 1 39 15 19 44 4 0 0 0 0 0 0 0 0 3 5 5 5 84 90 96 98 100 84 77 94 100 92 32 50 32 27 20 5 16 5 5
82 83 85 100 31 8 5 5 5 46 60 5 0 0 0 0 0 0 0 0 4 5 18 31 5 55 99 99 82 70 100 100 100 99 100 84 72 12 5 5 5 5 4 0
94 24 63 98 58 89 10 5 9 59 6 4 1 0 0 0 0 0 0 2 48 99 100 100 100 100 99 77 82 100 100 100 100 98 86 42 5 5 5 4 5 0 0 0
90 99 100 93 80 42 14 78 34 7 5 5 5 5 0 0 0 0 4 99 99 100 100 100 100 100 96 80 100 100 100 100 77 33 7 5 5 4 0 0 0 0 0 0
100 100 100 75 61 36 61 96 83 36 33 5 5 25 5 5 5 5 60 87 100 100 100 99 99 100 40 82 88 99 95 9 5 5 2 5 0 0 0 0 0 0 0 0
100 100 100 100 68 57 100 100 49 45 71 100 92 78 32 50 84 77 100 100 100 100 100 94 92 36 47 78 100 41 47 94 7 5 0 0 0 0 0 0 0 0 0 0
100 100 100 100 100 100 100 99 76 94 100 100 65 94 96 100 100 100 100 100 100 98 98 58 8 31 100 91 70 100 94 8 5 0 0 0 1 2 0 0 2 0 0 0
100 100 98 100 100 100 100 84 54 99 100 100 100 100 100 100 100 100 97 88 69 75 39 57 87 100 17 60 100 52 5 5 1 0 1 4 2 2 1 0 0 4 1 0
100 100 100 100 100 100 100 100 100 100 100 100 100 100 100 90 92 99 100 100 55 85 98 100 55 7 42 42 77 5 5 2 0 4 5 5 5 0 0 1 5 4 1 0
100 100 100 100 100 100 100 100 100 100 100 100 83 99 92 80 82 85 99 96 59 100 84 51 6 6 41 59 45 63 2 5 5 5 5 5 0 2 5 0 0 4 0 4
95 88 89 100 100 100 79 42 76 81 88 98 87 91 95 100 100 92 84 95 87 94 50 5 5 5 22 95 59 5 8 6 5 5 0 0 4 3 0 4 5 1 5 18
96 90 88 100 74 40 8 12 5 68 100 100 100 76 33 70 98 100 65 62 67 44 24 84 33 59 94 18 5 5 5 5 5 5 0 2 0 3 1 5 0 5 5 30

GFSCGP_prec_cloud_012.txt.gz
Cloud_Cover
34 95 100 87 100 39 90 5 49 22 4 4 5 0 53 2 0 0 0 0 0 0 0 0 4 5 90 94 6 8 5 5 5 2 0 4 11 1 0 0 0 0 0 0
100 100 92 100 99 75 100 58 27 85 1 5 5 0 71 2 0 0 0 0 0 0 0 2 5 38 98 72 68 59 39 5 18 37 58 97 51 19 0 0 0 0 2 5
92 34 98 100 100 95 43 92 92 27 5 22 4 0 5 5 5 0 0 0 0 0 0 1 3 5 39 96 96 100 100 99 46 100 87 20 13 2 0 0 4 5 5 5
96 97 100 100 100 100 93 83 15 5 74 98 10 3 0 3 3 0 0 0 0 0 0 0 0 0 13 26 54 17 88 91 62 100 36 13 5 5 5 5 5 4 5 5
93 100 100 100 100 100 100 63 5 37 100 97 11 5 0 5 0 0 3 0 0 1 5 5 2 5 5 5 47 97 100 100 96 7 5 2 0 5 5 5 5 5 50 7
100 100 100 100 100 100 100 24 42 85 96 70 6 2 1 4 0 0 5 0 2 5 43 27 5 45 64 11 5 5 40 62 87 30 6 25 29 5 3 5 1 0 0 0
100 100 100 100 100 100 100 99 100 100 99 43 2 0 5 2 2 2 4 5 5 3 0 5 5 5 2 0 5 5 27 49 7 24 58 48 5 5 5 2 3 5 2 0
100 100 100 100 100 85 100 29 80 91 10 27 4 0 5 5 1 0 0 5 5 5 0 0 0 0 0 0 0 2 3 14 8 10 48 54 12 72 33 5 5 5 5 5
100 100 100 89 94 88 100 57 59 5 5 5 0 0 0 4 0 0 0 0 5 1 0 0 0 0 0 0 5 0 0 1 5 2 5 5 52 88 99 45 52 69 78 89
100 100 100 100 96 98 88 67 50 6 42 51 1 0 0 0 0 0 0 0 5 0 0 0 0 0 0 0 0 0 6 12 0 3 3 6 89 69 70 88 97 98 99 99
100 100 100 100 100 100 95 86 47 5 5 64 6 0 0 0 0 0 0 0 0 0 0 0 0 0 0 0 0 0 5 16 5 72 81 26 12 50 88 93 98 94 11 5
98 100 100 90 100 100 100 100 98 71 71 5 5 1 0 0 0 0 0 0 0 0 0 0 0 0 0 0 0 0 0 0 28 80 5 21 51 68 29 30 57 14 5 3
5 11 66 100 100 100 100 100 97 14 5 5 17 4 0 0 0 0 0 0 0 0 0 0 0 0 0 0 0 0 1 5 5 14 63 55 88 66 97 75 5 29 5 5
66 13 22 5 5 5 45 100 100 69 52 58 2 2 0 4 5 0 0 0 0 0 0 0 0 0 0 5 5 5 5 5 32 80 77 16 18 68 71 5 41 16 5 5
99 68 21 1 1 0 1 4 4 2 28 5 3 2 4 4 0 0 0 0 0 0 0 0 1 3 5 5 5 5 48 85 85 67 6 49 88 91 56 99 56 3 5 5
87 93 61 5 5 1 0 0 0 0 5 5 5 1 5 0 0 0 0 0 0 0 0 3 5 5 5 5 8 93 98 100 82 13 76 100 91 95 91 5 5 5 2 5
96 56 55 45 5 5 5 6 4 4 0 0 2 4 0 0 0 0 0 0 0 0 0 0 0 5 5 62 100 88 55 61 68 83 87 97 100 98 6 4 5 5 2 0
98 91 67 31 89 36 3 4 5 1 0 0 2 5 0 0 0 0 0 5 5 5 4 0 25 69 100 92 87 78 97 96 86 64 100 99 29 5 0 5 3 0 0 0
88 63 71 96 54 65 99 10 4 0 4 5 5 5 5 5 5 3 2 5 5 6 53 92 100 96 100 100 100 90 72 86 80 96 30 5 5 5 5 0 0 0 0 0
100 100 100 88 84 5 84 40 5 5 6 6 39 7 5 5 5 5 5 9 19 56 84 100 100 100 100 100 94 35 29 94 79 5 5 5 5 0 0 0 0 0 0 0
100 100 100 90 75 70 80 29 75 11 50 7 9 14 12 34 25 50 86 98 100 100 100 100 100 100 94 82 100 55 100 100 93 6 5 5 0 2 2 4 0 0 0 0
100 90 100 99 95 58 100 100 81 98 27 16 13 49 47 23 75 92 99 100 100 100 100 100 98 58 96 90 92 100 100 74 6 5 0 5 5 5 5 4 0 0 0 0
99 91 100 99 91 94 88 65 32 8 20 92 100 100 100 100 100 100 100 100 100 100 100 64 99 83 97 100 100 100 51 5 4 5 5 5 5 5 0 0 0 0 0 0
100 100 100 100 100 100 100 100 100 100 100 100 100 100 100 100 100 100 100 100 99 98 100 100 100 100 80 100 89 26 5 5 5 5 5 5 5 1 0 0 0 0 0 0
100 100 100 100 100 100 100 97 100 100 100 100 100 100 100 100 99 100 97 100 100 100 100 100 96 42 38 5 5 5 5 5 5 4 4 0 0 0 0 0 0 0 0 4
84 98 100 100 100 100 100 100 100 100 100 100 100 100 67 93 98 100 98 95 100 100 100 44 12 21 5 5 5 5 3 1 4 4 1 3 0 0 0 0 0 0 5 5

GFSCGP_prec_cloud_015.txt.gz
Cloud_Cover
24 86 100 10 27 56 86 100 100 51 82 67 38 5 0 78 67 100 5 5 0 0 0 0 0 0 0 5 28 100 81 40 97 81 11 5 0 0 18 5 3 0 0 0
100 90 5 9 12 100 39 100 74 98 99 9 3 5 0 22 5 26 5 2 0 0 0 0 0 0 0 8 16 100 81 92 100 88 74 58 17 25 46 40 5 0 0 0
92 35 37 81 62 100 100 22 96 100 95 0 7 5 0 16 0 5 5 5 0 0 0 0 0 0 0 19 12 11 96 100 87 95 100 100 100 100 88 27 8 0 0 0
100 90 100 100 89 94 99 64 100 100 89 38 71 3 3 43 2 5 5 4 0 5 1 0 0 1 0 1 5 10 72 66 66 35 51 14 7 5 5 1 1 3 2 5
74 100 100 100 100 96 98 100 97 96 90 35 92 56 0 33 2 5 5 5 5 5 0 0 3 1 2 5 8 98 100 100 93 33 32 12 7 6 5 5 5 11 21 6
100 100 100 97 100 100 100 100 100 100 100 18 5 36 2 8 5 5 5 5 5 0 0 0 5 5 5 59 96 95 70 2 1 4 5 5 3 2 3 5 5 17 11 31
100 100 100 100 100 100 100 100 100 100 67 28 41 54 4 5 5 5 5 5 2 0 4 5 5 5 11 89 92 5 5 0 0 0 0 0 0 0 0 0 2 5 5 10
100 100 100 100 100 100 100 99 100 80 47 17 5 1 2 5 5 5 5 5 5 5 5 5 5 3 3 5 5 1 0 0 0 0 0 0 0 0 2 2 5 5 8 5
100 100 100 100 100 100 100 99 100 35 5 92 3 1 0 3 4 5 5 5 5 5 5 5 2 5 4 0 0 0 0 0 0 0 0 5 4 5 2 5 5 5 28 70
100 95 100 100 100 100 99 57 58 20 28 87 44 28 6 0 5 5 5 5 5 5 5 1 0 2 0 1 0 0 0 0 0 0 0 0 0 0 4 5 10 85 96 68
100 100 100 100 100 100 100 100 64 43 7 100 81 39 2 0 5 5 5 5 5 5 0 0 0 0 5 1 0 0 0 0 0 0 0 0 2 5 5 58 100 92 99 100
100 100 100 100 100 100 100 98 91 8 32 1 8 23 0 0 4 5 5 5 5 0 0 0 0 0 0 0 0 0 0 0 0 0 0 4 5 6 99 100 97 100 100 76
100 100 100 100 77 100 100 100 100 56 79 5 5 44 0 0 0 4 5 5 5 0 0 0 0 0 0 0 0 0 0 0 0 0 4 5 12 84 32 50 70 55 36 56
100 100 100 100 95 62 58 96 100 95 31 5 43 92 5 5 5 4 2 1 0 0 0 0 0 0 0 0 0 0 0 2 1 4 5 53 5 16 15 36 56 42 61 57
100 98 100 100 99 100 100 100 100 6 100 21 39 5 17 35 0 0 0 0 0 0 0 0 0 0 0 0 0 0 5 5 5 22 82 70 5 11 56 45 5 42 68 100
72 72 96 100 62 100 94 94 5 2 3 5 5 5 22 4 4 1 1 0 0 0 0 0 0 0 0 0 0 4 0 5 80 100 83 22 97 100 42 9 5 33 41 5
100 61 78 99 8 5 5 5 5 4 0 2 2 51 8 1 4 0 0 0 0 0 0 0 0 0 0 0 0 1 13 78 100 90 78 100 100 57 5 6 9 9 5 0
100 100 58 94 6 54 3 0 0 0 0 0 0 7 1 0 0 0 0 0 0 0 0 5 5 5 5 2 4 49 98 99 76 94 100 100 92 5 5 5 8 2 0 4
83 100 96 91 18 35 1 2 0 0 2 4 18 8 5 1 1 0 0 0 0 0 3 5 5 3 5 28 89 100 100 100 100 100 96 24 5 5 5 5 0 4 5 3
100 100 99 76 82 99 90 8 4 2 5 5 5 1 4 5 4 0 0 0 0 2 4 12 48 84 100 100 100 100 100 100 99 100 89 11 5 5 0 0 3 5 1 0
100 100 99 84 99 91 68 55 19 5 38 6 5 5 5 5 5 31 4 5 5 6 37 81 99 100 100 100 100 100 88 47 5 7 50 20 5 2 0 4 3 0 0 0
100 100 98 100 70 100 68 26 56 84 42 23 5 9 5 5 5 22 91 90 93 98 100 100 100 100 100 100 79 81 88 12 22 48 31 5 5 5 4 0 0 0 0 0
100 43 55 30 84 100 94 100 69 96 99 92 75 72 46 79 28 46 94 100 100 100 100 100 100 100 98 90 73 97 98 61 98 40 5 5 5 5 5 0 0 0 0 0
99 92 98 67 100 100 99 99 58 86 60 14 18 19 68 100 100 100 100 100 100 100 100 100 100 94 84 100 100 100 97 99 9 5 5 5 5 5 0 0 0 0 0 0
100 100 100 100 100 100 100 100 100 100 100 100 100 100 100 100 100 100 100 100 100 100 90 62 76 99 100 86 100 100 100 32 5 5 5 5 5 0 0 0 0 0 0 1
100 100 100 100 86 100 100 100 100 100 100 100 100 100 100 100 100 100 100 98 55 69 93 99 100 100 100 100 100 100 48 5 5 5 5 1 0 0 0 0 0 0 0 2

GFSCGP_prec_cloud_018.txt.gz
Cloud_Cover
100 100 100 100 26 3 4 5 6 0 5 42 5 1 0 0 0 3 49 100 47 61 15 5 5 92 81 58 20 4 0 5 28 5 5 34 100 62 53 32 5 4 4 13
100 62 95 77 30 11 63 86 21 6 77 67 8 17 2 7 0 42 48 19 14 66 16 7 41 41 4 3 0 2 16 5 74 61 92 97 100 89 98 100 100 100 100 96
79 78 40 8 7 82 100 92 45 100 50 96 95 17 4 1 0 5 5 5 45 9 5 65 9 3 0 0 4 10 8 4 12 27 86 87 40 88 79 32 10 42 6 2
70 31 45 33 10 19 84 10 41 98 100 88 64 4 0 0 0 0 5 5 5 5 5 6 5 0 0 1 5 2 1 5 5 5 5 12 8 5 5 5 31 36 5 4
62 100 40 17 12 5 20 11 22 39 100 99 5 56 0 4 0 5 5 5 5 5 17 15 5 0 0 2 5 2 5 5 5 5 5 1 2 5 5 5 5 5 5 5
100 66 28 11 99 10 81 100 100 100 100 90 35 13 0 1 9 1 2 2 5 21 52 14 5 0 0 5 5 5 5 5 5 5 5 4 0 0 0 0 0 0 0 0
99 80 96 100 50 71 100 100 100 100 100 80 2 5 0 0 0 5 5 5 5 43 60 5 5 0 0 4 8 73 5 5 76 9 0 0 0 5 0 0 0 0 0 0
89 99 100 100 64 99 100 100 100 100 76 65 64 18 3 4 5 5 5 17 12 5 11 5 5 2 5 5 5 5 2 5 9 0 0 0 0 0 0 0 0 0 0 4
100 100 100 78 98 100 100 100 100 100 98 4 2 4 0 0 2 5 5 5 5 12 5 2 1 2 5 27 5 5 5 3 0 0 0 0 0 0 0 0 0 2 11 36
100 100 90 100 100 100 100 100 100 100 36 24 63 5 0 0 0 0 5 2 5 5 5 5 5 4 1 5 5 5 5 5 0 0 0 0 0 0 0 3 5 38 76 62
100 100 100 100 100 100 100 100 100 100 84 70 62 90 3 0 0 0 1 0 5 5 5 5 5 4 4 0 4 0 0 0 0 0 0 0 0 0 2 5 42 90 85 92
100 100 100 100 100 100 100 100 98 100 100 99 100 5 0 0 0 0 0 1 5 5 5 5 5 5 5 4 0 0 0 0 0 0 0 0 0 5 5 27 96 87 83 86
100 100 100 100 100 100 100 100 89 28 21 99 91 52 5 0 0 0 0 0 2 0 2 5 5 5 4 0 0 0 0 0 0 0 0 4 4 5 5 71 99 91 93 95
100 100 100 100 100 100 100 100 100 100 26 5 5 5 5 3 3 3 0 0 0 4 3 5 4 0 0 0 0 0 0 0 0 0 0 5 5 69 84 92 100 100 100 96
100 100 100 100 100 100 100 100 100 100 100 72 13 10 39 5 5 2 0 5 5 5 5 5 3 0 0 0 0 0 0 0 0 0 2 5 99 96 89 100 100 100 91 100
100 100 100 100 100 100 100 100 100 100 95 99 6 5 92 25 0 3 5 3 1 0 0 0 0 0 0 2 3 2 0 0 0 5 74 100 100 99 100 100 100 100 100 82
100 100 98 99 90 93 100 100 100 100 100 96 100 100 40 29 9 3 2 0 0 0 0 0 0 0 0 0 0 4 5 4 51 100 100 100 100 100 100 100 99 82 47 8
76 77 65 84 34 6 4 11 77 90 21 15 98 91 5 4 4 4 0 0 0 0 0 0 0 0 2 4 5 5 5 54 81 100 100 100 100 100 88 76 11 5 5 3
100 98 88 5 5 31 5 5 32 88 42 0 0 0 5 5 5 5 5 0 0 0 0 0 0 3 5 5 5 75 99 100 100 100 100 100 100 65 13 5 5 5 3 0
100 74 87 56 52 5 20 5 0 1 4 0 0 0 0 0 0 4 5 2 3 0 2 5 6 14 99 95 100 100 95 100 100 100 100 78 13 5 5 8 5 5 1 0
100 94 53 100 79 93 99 74 6 22 2 2 0 1 0 0 2 5 5 1 6 13 29 72 86 100 100 98 100 100 100 100 100 93 11 22 13 5 5 5 5 1 1 0
100 100 100 100 100 100 67 33 84 84 59 12 5 5 5 5 5 5 5 5 59 81 58 86 99 100 100 100 100 100 100 86 27 26 36 5 5 26 13 5 5 5 3 0
100 100 100 100 100 100 100 68 95 89 67 83 91 65 13 38 33 52 97 100 100 100 100 100 100 100 100 100 100 80 30 65 64 56 13 94 100 65 5 5 5 0 1 0
100 90 99 93 71 86 69 81 100 100 100 89 92 99 90 83 99 98 90 100 100 100 100 100 100 100 97 71 90 85 100 89 55 97 100 97 48 5 5 5 5 2 5 0
99 89 89 90 100 67 76 84 71 84 84 100 100 98 100 100 100 100 100 100 100 100 100 100 99 100 91 100 94 25 76 100 100 100 81 9 5 5 5 4 5 5 0 0
100 100 100 100 100 100 100 100 100 100 100 98 82 99 100 100 100 100 100 100 100 100 100 100 55 91 32 14 36 95 100 100 100 88 5 5 5 5 5 5 5 0 0 0

GFSCGP_prec_cloud_021.txt.gz
Cloud_Cover
9 9 95 5 5 5 5 5 13 5 4 0 0 1 0 0 0 0 0 0 0 0 0 0 5 88 100 100 100 100 24 73 7 35 14 8 42 44 39 70 95 79 69 94
45 82 7 5 5 26 16 28 18 36 5 28 3 2 0 0 0 0 0 0 0 0 0 9 55 39 34 66 25 6 24 3 5 5 5 6 56 20 5 75 83 85 82 64
9 33 100 89 93 83 54 37 86 86 7 23 57 4 0 0 0 0 0 0 0 0 0 86 6 5 5 5 5 4 18 5 5 4 2 5 5 1 26 9 8 5 21 18
54 100 100 100 59 93 52 96 94 86 69 98 36 80 0 0 0 0 0 0 0 0 5 75 6 13 45 6 26 9 1 2 5 0 4 0 0 0 5 0 0 0 0 1
15 17 100 44 40 100 8 60 5 39 36 100 100 100 25 0 0 0 0 0 1 5 10 47 5 40 51 5 5 0 0 0 0 0 0 5 3 60 63 5 0 0 2 0
61 98 100 100 100 100 40 5 5 12 89 100 67 100 10 0 0 0 0 0 1 5 6 31 11 70 18 5 4 0 0 3 0 0 5 53 48 5 2 0 0 0 0 0
100 100 100 100 87 47 5 34 77 37 100 39 48 94 94 0 0 0 0 0 5 5 5 8 41 68 5 5 2 0 3 4 1 5 2 0 1 0 0 0 0 0 0 0
100 100 99 100 55 32 28 6 38 30 6 9 100 100 58 1 0 0 0 0 4 5 5 5 49 9 5 5 0 4 5 4 5 3 0 0 0 0 0 0 0 0 0 0
71 96 10 12 98 76 97 100 10 93 69 100 100 98 100 2 0 0 0 0 4 5 5 15 9 5 5 5 1 0 4 3 0 0 0 0 0 0 0 0 0 0 0 5
100 97 92 100 100 100 100 37 63 100 100 100 100 100 100 0 0 0 0 0 0 5 5 5 5 5 5 3 5 0 0 0 4 2 4 0 0 0 0 0 0 2 5 51
100 100 100 100 100 100 100 100 100 100 100 100 100 66 5 2 5 0 0 0 0 5 5 5 3 0 2 0 5 5 4 1 1 5 5 0 0 0 0 0 11 61 74 93
100 100 100 100 100 100 100 100 100 100 100 100 100 100 0 5 5 5 0 0 1 5 5 5 0 0 1 5 5 5 5 5 5 5 0 0 0 0 0 5 22 90 99 100
100 100 100 100 100 100 100 100 100 100 100 100 100 44 8 5 0 0 0 0 2 0 0 0 0 0 5 5 5 5 5 4 0 0 0 0 0 5 5 5 60 59 100 55
100 100 100 100 100 100 100 100 100 100 100 99 100 100 94 4 0 0 0 0 0 0 0 0 0 3 5 5 5 5 2 1 0 0 0 2 5 5 5 62 23 99 97 92
100 100 100 100 100 100 100 100 100 100 100 100 100 100 100 96 4 0 0 0 0 0 0 0 0 0 5 5 5 5 5 5 5 0 5 3 4 35 50 82 85 93 99 100
100 100 100 100 100 100 100 100 100 100 92 100 100 100 84 5 5 2 0 0 0 0 0 0 0 0 5 5 3 0 5 5 5 4 5 4 50 83 97 60 100 100 100 86
100 100 100 100 100 100 100 100 100 95 100 100 80 64 8 5 5 2 2 2 0 0 0 0 0 5 5 5 3 4 5 5 5 5 7 37 80 97 93 100 100 100 97 100
100 96 100 100 100 100 100 98 99 98 68 100 90 18 5 4 5 5 5 0 1 0 0 4 5 4 1 0 5 5 5 5 10 71 95 90 100 100 100 100 92 98 74 5
100 100 94 100 100 100 100 69 81 100 41 30 7 1 5 0 3 5 5 2 3 5 1 0 0 0 2 5 5 5 62 85 99 73 98 100 100 100 100 100 92 6 5 5
100 100 68 95 70 97 7 32 30 5 5 5 5 5 5 5 5 0 0 0 4 5 5 4 5 5 5 6 51 72 93 100 100 100 100 100 100 100 100 89 48 5 5 5
100 100 84 78 86 5 5 5 5 5 1 5 4 3 0 0 0 1 3 5 5 2 4 5 5 5 5 8 15 76 89 100 100 93 98 100 100 100 90 15 8 10 5 5
86 100 100 80 84 69 8 95 5 16 5 16 5 5 5 4 4 3 5 5 5 5 5 5 5 5 28 52 96 88 74 61 97 100 100 100 96 33 8 35 77 41 5 4
54 92 100 99 91 90 100 98 95 45 5 5 5 5 5 5 5 5 5 5 5 74 65 59 57 48 58 15 10 57 99 100 92 100 100 79 13 82 92 73 5 5 5 5
100 50 100 100 99 98 50 97 100 88 14 5 5 5 5 5 5 5 5 5 11 48 66 71 53 78 100 100 100 100 100 100 95 83 17 82 99 99 66 5 5 5 5 5
100 100 100 98 86 100 80 99 100 95 36 42 74 39 8 63 76 94 90 98 100 100 100 100 100 100 100 100 80 38 85 68 12 32 95 96 95 20 5 6 16 5 4 0
100 100 100 99 100 100 100 100 100 100 100 97 94 100 100 100 100 100 100 100 100 100 100 100 100 100 86 55 22 20 5 17 84 93 98 50 5 6 37 9 5 1 0 0

GFSCGP_prec_cloud_024.txt.gz
Cloud_Cover
5 11 38 5 0 4 5 12 5 5 5 4 4 0 2 0 0 0 0 0 0 0 0 0 0 95 100 100 100 100 100 100 100 100 100 100 100 100 100 100 92 14 5 5
52 68 5 2 5 5 6 7 9 5 5 52 52 11 0 0 0 0 0 0 0 0 0 0 0 16 100 100 99 99 100 100 100 100 100 79 32 81 100 62 1 1 1 2
26 8 5 5 5 8 9 65 76 85 5 4 10 3 0 0 0 0 0 0 0 0 0 0 0 0 4 5 15 31 5 9 73 97 75 48 93 95 5 0 0 5 3 0
100 61 24 6 12 55 20 7 6 23 56 43 32 28 0 0 0 0 0 0 0 0 0 0 0 0 0 5 6 7 5 5 5 3 5 5 5 0 0 2 5 5 4 0
76 60 100 38 90 100 17 96 76 6 8 81 6 44 6 5 0 0 0 0 0 0 0 0 0 0 5 11 73 9 5 5 5 5 5 5 0 0 1 5 5 5 0 0
86 99 81 34 100 67 39 68 100 62 80 72 2 13 1 4 0 0 0 0 0 0 0 0 0 0 5 5 17 5 5 5 5 5 5 4 0 2 4 0 0 0 0 0
100 96 79 100 100 100 100 100 100 100 99 28 3 4 0 4 0 0 0 0 0 0 0 0 0 5 5 6 59 9 5 16 5 61 5 5 2 5 0 0 0 0 0 0
100 100 100 100 100 100 100 100 100 98 63 1 78 16 0 5 0 0 0 0 0 0 0 0 1 5 33 16 5 5 14 13 5 5 5 5 5 0 0 0 0 0 0 0
97 78 100 100 100 100 100 100 99 100 74 92 81 0 64 25 1 0 0 0 0 0 0 0 5 6 5 5 5 5 5 5 0 4 5 4 0 0 0 0 0 0 0 0
66 94 66 69 55 93 98 81 100 100 76 5 20 34 1 1 53 29 0 0 0 0 0 0 5 7 5 10 5 5 5 5 5 0 0 0 5 5 5 0 0 0 0 0
100 89 91 88 100 100 100 100 99 40 6 54 4 6 13 96 100 100 51 0 0 0 0 0 0 5 5 30 5 5 5 5 5 0 0 5 5 5 0 0 0 0 0 1
100 100 97 100 100 100 100 100 100 100 68 66 100 100 100 100 100 100 100 57 4 0 0 2 4 5 5 5 5 5 5 5 3 0 5 5 5 0 0 0 5 5 3 3
100 100 100 100 100 100 100 100 100 100 100 100 100 100 100 100 100 98 100 30 4 0 0 3 4 5 5 5 5 5 5 4 2 5 5 5 0 3 3 5 4 0 5 5
100 100 100 100 100 100 100 100 100 100 100 100 100 100 100 100 100 100 100 64 0 0 2 0 5 5 7 62 6 5 5 5 5 5 5 4 4 5 5 5 0 5 18 77
100 100 100 100 100 100 100 100 100 100 100 100 100 100 100 100 100 100 100 7 0 0 1 0 0 5 8 9 5 5 5 5 5 5 5 5 5 5 5 4 5 69 70 8
100 100 100 100 100 100 100 100 100 100 100 100 100 100 100 100 100 100 85 6 5 0 0 0 0 5 5 5 4 5 5 5 5 5 5 5 5 5 5 65 100 68 44 86
100 100 100 100 100 100 100 100 100 100 100 100 100 100 100 100 100 100 52 5 5 5 0 0 3 5 5 4 0 5 2 4 5 5 5 5 11 63 78 68 67 100 100 98
100 100 100 100 100 100 100 100 100 100 100 100 100 100 100 100 100 99 22 5 5 5 4 3 5 5 5 0 0 0 5 5 5 8 57 69 88 66 66 92 97 97 91 74
100 100 100 100 100 100 100 100 100 87 83 100 81 100 57 22 58 6 70 5 5 5 5 5 5 5 5 0 0 0 5 5 40 99 97 22 56 73 67 70 94 59 95 98
100 100 99 100 100 100 100 28 78 5 29 3 5 58 9 72 100 99 58 43 5 5 5 5 5 5 5 2 2 5 5 49 62 94 91 76 11 77 95 92 100 100 52 8
100 96 100 100 96 84 60 21 8 5 1 5 17 93 8 64 100 100 100 99 56 4 5 5 5 5 5 5 5 5 28 92 100 93 4 14 98 75 37 99 96 22 8 68
90 94 40 55 38 61 50 5 5 12 11 5 3 2 98 88 88 59 9 5 3 2 0 4 4 4 5 5 14 88 100 78 18 5 29 85 38 93 100 61 6 34 19 5
90 94 28 55 52 5 5 31 5 5 18 50 5 5 89 100 76 5 5 5 4 4 5 5 5 5 58 67 33 14 9 5 5 5 5 68 100 57 6 5 38 6 5 5
71 35 64 53 10 26 89 78 97 88 100 84 84 100 100 100 100 90 56 16 51 40 5 5 5 6 6 22 5 5 5 7 5 30 95 76 5 5 5 5 5 5 5 5
97 61 52 51 56 44 25 65 98 100 100 100 100 100 100 82 10 5 26 23 32 36 21 5 5 5 5 5 5 5 5 5 43 71 41 5 5 5 5 5 7 19 5 5
100 100 100 100 100 100 100 100 100 100 100 100 100 96 98 91 78 58 72 80 57 27 13 5 5 5 5 5 5 5 8 59 60 56 11 5 5 5 5 67 98 23 5 5

GFSCGP_prec_cloud_027.txt.gz
Cloud_Cover
13 54 38 9 72 48 9 29 32 24 9 1 0 0 0 0 0 0 0 0 0 0 0 0 0 0 0 0 0 81 100 100 100 100 100 100 100 100 100 100 100 100 82 100
19 60 43 4 1 3 5 60 38 23 5 5 2 0 0 0 0 0 0 0 0 0 0 0 0 0 0 0 0 4 100 100 100 100 100 100 100 100 100 100 100 100 6 4
98 96 100 5 5 5 5 53 97 48 14 3 2 0 0 0 0 0 0 0 0 0 0 0 0 0 0 0 0 0 24 100 100 100 100 100 100 100 100 100 100 66 4 0
93 98 32 5 6 10 96 5 5 5 23 54 5 16 0 0 0 0 0 0 0 0 0 0 0 0 0 0 0 0 0 30 100 100 97 77 41 75 100 100 6 0 0 1
58 8 5 5 39 99 64 89 21 32 10 16 5 79 5 0 0 0 0 0 0 0 0 0 0 0 0 0 0 0 0 2 62 46 16 33 86 98 54 5 5 5 2 0
73 46 18 5 78 72 97 100 100 100 72 95 5 10 4 5 4 2 0 0 0 0 0 0 0 0 0 0 0 0 0 5 32 59 44 10 5 29 18 5 5 5 1 0
100 100 88 28 100 100 100 100 100 100 100 73 5 3 4 100 64 34 2 0 0 0 0 0 0 0 0 0 0 0 0 5 5 6 5 5 30 73 72 75 5 5 0 0
94 98 100 41 60 100 100 100 100 100 49 5 50 6 17 95 100 100 5 0 0 0 0 0 0 0 0 0 0 0 3 5 5 5 5 5 5 69 9 5 5 0 0 0
98 52 5 6 99 54 100 100 100 100 100 100 42 1 0 1 98 100 4 0 0 0 0 0 0 0 0 0 3 5 0 5 5 5 9 8 6 5 5 1 4 5 5 0
85 95 5 18 72 100 100 100 100 100 100 98 1 1 2 12 53 37 3 0 0 0 0 0 0 0 0 2 5 0 0 3 5 5 5 5 5 5 2 5 5 5 1 0
100 98 56 80 98 97 100 100 91 92 86 99 17 0 36 63 100 9 3 67 2 0 0 0 0 0 0 2 0 5 0 5 4 5 5 46 27 5 5 5 5 0 0 0
100 100 100 100 100 100 100 100 100 100 100 29 1 18 53 81 100 100 81 100 20 8 1 0 0 0 0 0 1 0 3 5 5 5 42 66 62 5 5 5 0 0 0 5
100 100 100 100 100 100 100 100 100 100 100 65 44 16 16 100 91 81 5 100 100 62 12 0 2 5 0 0 4 0 0 5 5 22 94 71 8 5 5 4 4 5 5 5
100 100 100 100 100 100 100 100 100 100 100 84 78 97 100 34 57 38 55 100 100 100 35 52 5 2 0 0 1 0 5 5 6 30 62 62 5 5 5 5 5 5 5 5
100 100 100 100 100 100 100 100 100 100 100 100 100 100 100 100 100 100 100 100 100 99 92 5 4 0 0 0 2 4 5 5 5 53 69 29 5 5 5 5 72 5 10 5
100 100 100 100 100 100 100 100 100 100 100 100 100 100 100 100 100 100 100 100 100 100 60 5 0 0 0 4 4 5 5 5 8 65 57 5 5 5 46 97 64 93 81 89
100 100 100 100 100 100 100 100 100 100 100 100 100 100 100 100 100 99 100 100 100 100 96 5 0 1 0 1 5 5 5 5 22 11 5 5 12 92 100 100 97 86 71 5
100 100 100 100 100 100 100 100 100 100 100 100 100 100 100 100 100 100 100 100 100 100 14 3 5 5 5 1 5 5 5 5 5 5 5 12 97 98 100 91 90 46 12 60
100 100 100 100 100 100 100 100 100 100 100 100 100 100 100 100 100 100 100 100 100 96 57 5 5 5 5 5 5 5 5 5 5 5 11 92 100 98 99 85 2 53 95 65
100 100 100 100 100 100 100 100 100 100 100 100 100 100 100 100 100 100 100 83 14 8 26 18 5 5 4 0 2 5 5 5 5 100 96 99 100 99 5 5 81 94 82 90
79 100 100 100 100 100 100 100 100 100 79 60 72 94 100 100 100 100 94 100 82 82 69 60 5 5 5 5 5 5 9 66 70 84 100 100 26 5 9 64 100 98 37 5
86 95 100 86 35 7 13 6 40 24 5 98 95 100 100 100 98 100 100 100 100 100 100 73 5 5 4 5 5 5 6 31 78 99 54 5 5 8 98 100 54 5 5 8
92 88 94 85 80 95 93 96 86 94 44 5 5 10 52 100 99 100 100 100 100 63 8 5 5 5 43 23 29 68 67 84 8 5 55 38 19 77 64 8 5 5 8 5
100 100 100 100 100 100 100 100 36 5 5 74 67 5 5 10 17 99 98 64 5 5 28 64 66 56 66 69 31 57 61 56 26 5 5 5 5 5 5 5 18 30 5 27
100 75 90 91 99 71 43 68 73 27 57 79 69 74 76 66 25 27 56 54 25 62 91 93 83 89 100 85 51 16 5 5 5 5 40 16 5 5 5 5 5 29 88 94
100 95 73 100 50 83 100 100 100 100 100 100 100 100 99 91 100 100 100 100 100 100 100 98 51 6 5 5 5 4 5 5 12 9 5 5 5 5 23 57 89 94 77 82

GFSCGP_prec_cloud_030.txt.gz
Cloud_Cover
100 100 100 100 100 89 49 80 100 100 24 23 3 0 0 0 0 0 0 0 0 0 0 0 0 0 0 0 0 0 0 0 0 0 4 5 96 100 100 100 100 100 100 100
100 100 100 100 72 31 98 100 100 75 4 1 0 0 0 0 0 0 0 0 0 0 0 0 0 0 0 0 0 0 0 0 0 0 14 75 100 100 100 100 100 100 100 100
100 100 77 5 5 5 5 5 5 6 4 2 5 0 0 0 0 0 0 0 0 0 0 0 0 0 0 0 0 0 0 0 0 0 2 99 100 100 100 100 100 100 100 100
21 27 5 5 5 12 79 5 5 5 42 83 4 17 0 0 0 0 0 0 0 0 0 0 0 0 0 0 0 0 0 0 0 0 0 98 100 100 100 100 100 100 100 59
9 5 10 78 9 58 48 36 47 7 56 84 46 71 0 0 0 0 0 0 0 1 0 0 0 0 0 1 2 0 0 0 0 0 0 10 36 85 100 100 100 95 36 5
64 49 89 20 19 92 81 99 100 100 97 95 29 35 0 5 4 27 5 0 0 0 0 0 0 0 0 0 0 0 0 0 0 0 0 48 94 100 100 100 99 5 17 5
100 94 100 100 73 98 100 100 100 100 100 50 31 20 4 1 94 11 5 5 5 0 0 0 0 0 0 0 0 0 0 0 0 5 97 100 100 100 100 44 3 5 5 5
99 69 93 97 39 10 66 100 100 100 32 8 6 2 0 31 14 30 3 5 5 5 0 0 0 0 0 0 0 0 0 0 55 100 100 100 66 30 7 3 5 5 5 5
90 66 5 25 9 34 97 100 50 100 100 100 7 0 0 0 4 5 5 5 13 5 0 0 0 0 0 0 0 0 0 8 67 98 92 9 25 5 5 3 5 5 19 8
100 91 5 11 62 94 94 50 93 100 100 98 5 0 0 0 4 80 34 30 5 5 5 0 0 0 0 0 0 0 1 3 22 39 0 5 5 2 5 5 42 40 48 28
100 98 99 100 89 88 100 100 100 96 98 88 8 3 1 0 9 7 89 5 5 5 5 2 0 0 3 0 0 1 47 57 56 7 1 5 5 1 5 5 42 18 36 6
91 100 100 100 100 100 100 100 100 100 100 100 100 2 5 86 99 100 100 40 5 5 14 6 0 0 0 0 0 11 88 86 65 5 1 5 5 3 5 5 5 5 5 5
100 100 97 58 100 100 100 100 100 100 100 100 100 98 74 100 100 100 100 91 6 5 20 5 0 0 4 0 1 48 98 64 5 5 0 5 5 5 14 11 5 5 5 5
100 100 98 92 100 100 100 100 100 100 100 100 100 100 91 100 100 100 100 47 94 5 2 3 3 0 0 2 4 16 38 6 0 0 0 5 5 5 22 9 5 7 8 5
100 100 100 100 100 100 100 100 100 100 100 100 100 55 49 100 100 86 15 21 51 11 87 92 24 0 0 2 4 5 5 5 4 4 5 5 5 11 48 12 14 19 5 65
100 100 100 100 100 100 100 100 100 100 100 100 100 90 98 100 87 100 86 7 86 100 100 94 48 94 74 79 5 5 5 5 5 9 5 5 5 6 20 20 39 32 65 87
100 100 100 100 100 100 100 100 100 100 100 100 100 97 100 100 100 100 100 100 100 100 100 99 100 100 100 90 5 5 5 14 52 28 52 23 5 60 62 47 62 88 98 67
100 100 100 100 100 100 100 100 100 100 100 100 100 100 100 100 100 97 100 100 100 100 99 93 100 100 99 8 4 5 39 47 15 41 20 62 78 39 6 82 87 99 64 7
100 100 100 100 100 100 100 100 100 100 96 100 99 99 100 100 100 100 100 92 93 100 100 100 100 100 99 11 5 5 35 64 34 5 5 5 5 34 85 99 100 95 7 5
100 100 100 100 100 100 100 100 100 100 92 100 100 100 100 100 92 100 100 98 100 100 100 100 100 99 41 5 6 5 5 10 5 5 6 28 75 92 100 100 68 5 5 5
100 100 100 100 100 100 100 100 100 100 75 94 100 100 100 100 100 100 100 100 100 100 100 100 100 96 100 95 8 29 63 52 6 31 83 95 86 94 39 5 5 5 14 43
100 93 100 100 100 100 100 100 97 96 100 100 100 100 100 100 100 100 100 100 100 100 100 100 100 100 100 99 83 78 58 17 69 90 95 79 40 5 5 3 5 42 9 5
90 74 86 84 96 98 100 100 100 100 100 100 85 100 100 100 100 100 100 100 100 100 100 100 100 98 62 33 35 88 93 82 93 35 34 6 5 1 5 44 14 5 5 5
99 97 100 100 99 100 100 100 100 90 100 99 99 98 89 98 99 100 100 100 100 100 100 100 45 34 75 91 95 94 98 100 92 37 5 5 5 21 42 5 5 5 5 5
94 100 100 100 90 100 100 100 82 100 98 100 100 86 87 100 100 99 99 100 100 100 97 88 96 100 100 100 100 100 100 92 13 5 5 5 12 5 5 5 5 5 5 5
100 100 100 100 100 100 100 100 96 100 100 100 100 100 100 100 100 100 100 100 99 99 100 100 100 100 100 100 100 96 22 5 5 5 5 5 5 5 5 5 5 5 4 4

GFSCGP_prec_cloud_033.txt.gz
Cloud_Cover
13 99 100 100 100 100 76 5 30 62 100 100 5 0 0 0 0 0 0 0 0 0 0 0 0 0 0 0 0 0 0 2 0 0 1 3 5 58 52 99 100 100 100 100
96 100 100 100 100 100 84 84 85 85 100 59 28 0 0 0 0 0 0 0 0 0 0 0 0 0 0 0 0 0 0 0 0 0 0 0 25 79 23 84 100 100 100 100
100 100 100 100 86 58 94 64 21 16 5 0 2 0 0 0 0 0 0 0 0 0 0 0 0 0 0 0 0 0 0 0 0 0 0 0 60 72 64 99 100 100 100 100
70 67 21 21 77 100 100 100 22 5 47 89 3 3 0 0 0 0 0 0 0 0 0 0 0 0 0 0 0 0 0 0 0 0 0 0 1 1 25 97 100 100 100 100
100 100 98 100 99 34 44 13 20 5 33 100 98 94 0 1 9 5 5 0 0 0 0 0 0 0 0 0 0 0 0 0 0 0 0 0 15 0 52 100 100 100 100 100
46 66 54 5 5 13 58 46 61 45 86 95 5 90 0 8 100 51 3 0 0 0 0 0 0 0 0 0 0 0 0 0 0 0 0 13 4 44 100 100 100 100 70 79
92 49 44 63 67 43 94 100 83 99 100 42 5 53 0 2 72 100 4 0 0 0 0 0 0 0 0 0 0 0 0 0 0 1 3 70 95 100 100 100 100 97 92 5
81 97 43 92 96 59 52 85 51 42 23 7 5 12 0 0 1 98 93 5 0 0 0 0 0 0 0 0 0 0 0 0 2 0 6 70 95 100 100 100 100 100 8 5
99 99 63 7 5 84 99 99 38 100 17 100 42 1 0 0 0 32 54 69 26 0 0 0 0 0 0 1 0 0 0 0 2 1 2 56 100 100 100 99 92 5 51 8
97 57 5 5 38 30 94 78 90 100 93 100 10 4 0 0 0 12 8 99 97 4 5 5 4 0 0 0 0 0 0 0 2 16 94 100 100 100 97 16 5 34 49 5
100 79 23 72 97 94 100 100 100 99 93 98 67 2 5 0 22 0 1 5 73 12 1 5 5 5 1 0 0 0 1 4 88 99 100 100 100 34 0 0 5 64 38 5
34 97 73 100 91 93 8 77 100 100 100 100 100 28 98 65 80 89 0 0 5 74 0 5 5 5 5 6 17 0 26 82 100 100 100 91 12 5 2 2 5 51 14 5
66 99 100 100 98 93 82 100 100 100 100 100 100 100 100 94 7 1 0 1 5 6 0 2 5 5 5 13 40 63 81 100 100 100 99 96 5 9 5 5 5 5 5 5
100 100 79 31 82 100 100 100 100 100 100 100 90 100 100 98 11 4 10 52 17 5 1 0 4 5 20 36 74 100 100 100 100 100 100 95 77 5 5 5 5 5 8 94
99 100 75 96 98 100 100 100 100 100 100 100 89 98 100 66 86 100 100 100 63 35 1 0 3 12 71 91 100 100 100 100 100 100 100 84 10 5 5 5 5 10 98 100
100 100 100 100 100 100 100 100 100 100 100 100 94 62 100 100 100 100 100 100 94 86 43 20 5 80 100 78 100 100 100 100 100 90 100 56 18 22 5 5 29 100 100 85
100 100 100 100 100 100 100 100 100 100 100 34 100 98 100 98 100 100 100 100 78 97 41 11 7 100 100 73 86 81 57 34 26 100 100 98 22 5 15 95 100 100 91 82
100 100 100 100 100 100 100 100 100 100 100 100 100 78 100 100 100 100 100 100 100 100 100 97 82 82 89 90 52 83 99 77 100 100 76 6 19 96 100 100 93 81 67 88
100 100 100 100 100 100 100 100 100 100 100 100 100 100 100 100 97 100 100 100 100 100 100 100 100 100 100 100 98 100 100 100 100 88 37 96 99 73 58 63 72 82 92 18
100 100 100 100 100 100 100 100 100 100 100 100 100 100 100 100 100 99 100 94 100 100 100 100 100 100 100 100 100 100 100 100 100 48 12 84 75 50 56 92 94 60 5 5
100 100 100 100 100 100 100 100 100 100 100 100 100 100 100 92 100 100 100 100 100 100 100 100 100 100 100 100 100 100 100 67 8 23 61 49 42 94 88 91 12 5 5 5
100 100 100 100 100 97 100 100 100 93 100 100 100 100 100 100 100 100 100 100 100 100 100 100 100 100 100 100 100 100 100 80 89 94 78 69 72 77 18 5 5 5 5 5
96 91 99 94 78 100 100 98 83 100 100 100 100 100 100 100 100 100 100 100 100 100 100 100 100 100 100 100 100 100 100 100 91 87 91 77 61 70 6 5 5 5 5 5
53 98 62 62 90 100 100 84 46 10 34 97 100 100 100 100 100 100 100 100 100 100 100 100 100 100 100 100 100 100 100 100 100 89 96 98 62 5 5 5 5 5 5 3
100 100 100 100 98 100 100 99 96 100 100 97 98 100 100 100 100 100 100 100 100 100 100 100 100 100 100 100 100 100 100 100 100 100 99 33 5 5 5 5 5 3 3 0
100 100 100 84 55 93 69 98 100 96 100 93 100 100 91 100 100 100 100 100 100 100 100 100 100 100 100 100 100 100 100 100 100 33 5 5 5 5 4 4 5 4 3 4

GFSCGP_prec_cloud_036.txt.gz
Cloud_Cover
100 100 100 100 100 100 100 100 45 62 31 8 5 5 100 100 100 100 34 0 0 0 0 0 0 0 0 0 0 0 0 0 0 0 0 26 88 77 24 7 40 100 99 19
100 100 100 100 100 100 100 100 64 80 73 5 7 15 49 100 100 100 90 9 1 0 0 0 0 0 0 0 0 0 0 0 0 0 0 6 72 91 86 86 98 64 78 25
100 100 100 100 100 100 100 78 97 99 70 11 5 8 8 10 83 100 100 98 54 4 0 0 0 0 0 0 0 0 0 0 0 0 1 20 18 84 100 100 90 87 87 92
100 99 100 100 100 100 46 35 5 24 59 34 46 12 5 11 98 92 95 74 40 5 1 0 0 0 0 0 0 0 0 0 0 0 0 2 5 44 100 100 98 72 100 100
100 100 100 100 67 29 50 59 50 70 76 86 38 100 0 5 5 36 5 5 0 4 1 0 0 0 0 0 0 0 0 0 0 0 0 0 4 97 100 94 100 100 100 64
100 100 94 74 14 6 29 71 100 100 99 88 4 59 0 2 11 5 4 0 0 0 0 0 0 0 0 0 0 0 0 0 0 0 0 0 2 18 36 50 96 100 100 98
83 73 40 36 86 47 95 99 91 89 100 17 0 15 0 4 0 0 0 0 0 0 0 0 0 0 0 0 0 0 0 0 0 0 0 5 2 46 25 72 86 100 25 100
94 74 55 94 76 90 100 94 43 5 7 4 28 14 0 0 0 0 0 0 0 0 0 0 2 0 0 0 0 0 0 0 0 0 0 4 43 100 86 76 58 100 88 87
100 98 56 41 24 59 83 94 14 95 84 93 8 0 0 0 0 0 0 0 0 0 0 0 5 1 0 0 0 0 0 0 0 0 0 3 75 79 100 72 100 100 100 27
92 64 28 32 20 29 50 54 90 100 90 59 6 4 41 97 5 0 0 2 0 0 5 0 5 15 0 0 0 0 0 0 2 3 2 14 100 100 98 100 100 100 100 80
100 92 100 36 78 20 100 100 78 88 97 98 52 30 100 94 1 0 0 0 0 0 71 5 28 97 3 0 0 0 0 0 5 5 5 17 100 100 100 100 100 100 41 5
98 99 79 9 5 4 7 34 100 100 88 100 100 39 100 100 49 5 0 0 0 1 74 10 68 65 4 1 2 0 0 5 5 5 5 72 100 100 100 100 100 100 86 6
79 92 54 6 14 57 89 86 100 100 100 100 100 73 100 100 100 96 17 0 0 0 56 63 19 16 0 4 5 0 0 5 5 5 5 30 100 100 100 100 99 100 75 12
89 90 25 5 58 100 99 100 100 100 100 100 100 79 100 100 100 99 74 3 0 0 55 74 27 35 9 8 65 32 5 54 99 14 85 100 100 84 100 100 100 100 72 69
85 100 22 96 79 98 99 100 99 100 98 100 40 100 92 100 100 96 26 3 2 2 50 42 51 48 67 100 100 72 91 100 100 100 100 100 99 100 100 100 100 100 75 98
99 100 99 100 92 100 100 100 100 100 100 100 100 84 100 98 94 75 6 15 89 70 76 43 82 71 100 100 100 100 100 100 100 100 100 100 100 100 100 100 100 95 82 94
100 100 100 100 99 94 100 100 100 100 100 100 100 32 18 100 100 100 100 100 100 100 100 72 77 100 100 100 100 100 100 100 100 100 100 100 100 100 100 99 90 90 99 100
97 100 100 100 100 100 100 100 100 100 100 100 100 100 100 100 100 100 100 100 100 100 100 62 100 100 100 100 100 100 100 100 100 100 100 100 100 100 96 100 100 100 100 91
95 100 100 100 100 100 100 100 100 100 100 100 100 100 100 100 100 100 100 100 100 100 93 100 100 100 100 100 100 100 100 100 95 91 100 100 100 100 100 100 100 100 81 99
100 100 100 100 100 100 95 100 100 100 100 100 100 100 100 100 100 100 100 100 100 100 100 100 100 100 100 85 57 21 8 44 90 100 100 100 100 100 100 100 95 94 100 79
100 100 100 100 100 100 100 100 100 100 100 100 100 100 100 100 100 98 100 100 100 100 100 100 100 100 100 98 100 100 100 100 100 100 100 100 100 100 100 100 100 100 96 100
98 100 100 100 100 92 96 90 92 88 100 100 100 100 100 100 100 100 100 99 100 99 92 100 100 100 100 100 100 100 100 100 100 100 100 100 100 100 100 100 100 100 100 86
94 100 100 100 81 83 64 88 100 100 100 100 100 100 100 100 100 100 100 100 100 100 100 100 100 100 100 100 100 100 100 100 100 100 100 100 100 100 100 100 100 98 12 5
63 93 100 26 56 53 50 95 76 86 94 100 100 100 100 100 100 100 100 100 100 100 100 100 100 100 100 100 100 100 100 100 100 100 100 100 100 87 72 66 14 5 5 4
29 75 90 51 71 64 46 98 100 86 96 82 88 100 100 100 100 100 100 100 100 100 100 100 100 100 100 100 100 100 100 100 100 100 97 70 54 10 5 5 5 5 4 3
39 17 96 100 100 100 70 100 98 100 100 98 89 93 95 100 100 100 100 100 100 100 100 100 100 100 100 100 100 100 100 100 100 54 11 5 5 5 5 5 5 5 5 5

GFSCGP_prec_cloud_039.txt.gz
Cloud_Cover
100 100 100 100 76 42 96 32 5 6 5 4 4 5 68 31 9 5 5 5 5 30 5 5 5 4 0 0 0 0 0 0 0 0 0 0 0 92 100 100 100 22 0 82
100 100 100 100 100 100 100 77 5 5 5 4 5 5 5 14 5 5 5 5 26 100 100 96 81 66 5 0 0 0 0 0 0 0 0 0 77 95 100 100 62 8 33 89
100 100 100 100 100 100 100 100 85 26 5 5 5 5 5 5 44 34 21 39 38 99 100 100 27 5 5 3 0 0 0 0 0 0 0 9 3 25 100 100 96 100 52 100
100 100 100 100 100 100 100 100 100 100 97 80 88 7 36 99 100 98 100 49 16 26 92 100 78 5 2 4 5 0 0 0 0 0 0 0 0 4 74 100 100 100 91 86
33 5 26 65 7 85 100 100 100 100 100 97 100 74 18 100 98 100 61 45 39 5 0 4 5 5 4 1 5 1 0 0 0 0 0 0 0 0 23 100 100 100 98 100
72 82 83 100 97 100 100 100 100 100 98 88 93 88 21 72 46 35 12 4 0 0 0 0 0 0 0 0 3 5 0 0 0 0 0 0 0 0 35 100 100 100 100 94
79 100 79 63 41 71 96 90 68 74 100 5 4 0 0 99 15 0 0 0 0 0 0 0 0 0 0 0 0 4 2 0 0 0 0 0 16 0 8 60 100 100 100 100
95 100 100 100 74 57 100 98 9 5 5 4 4 2 3 3 6 0 0 0 0 0 0 0 0 0 0 0 0 0 0 0 0 0 0 29 14 0 17 73 100 100 100 100
96 73 31 98 66 67 80 98 15 97 30 37 2 5 0 1 4 0 0 0 0 0 0 0 0 0 0 0 0 0 0 0 3 0 2 28 0 2 82 100 93 88 100 100
98 61 49 98 96 69 66 58 82 98 86 5 0 0 5 61 71 80 100 59 1 0 0 0 0 0 0 0 0 0 0 5 7 4 26 1 5 54 100 90 100 74 95 94
76 63 100 63 63 52 76 98 55 89 100 86 65 26 100 100 100 93 82 100 25 5 0 0 0 0 0 0 0 3 6 30 96 5 1 5 13 59 94 85 99 100 100 100
99 99 49 36 96 70 70 77 98 100 47 100 100 39 96 100 87 51 100 100 41 2 0 0 0 0 0 1 49 50 69 51 81 5 5 5 5 52 100 100 100 100 65 100
100 100 100 100 94 86 67 36 96 100 100 100 100 90 100 100 92 69 96 100 100 45 5 0 1 7 13 93 100 100 32 34 89 5 5 50 100 100 98 100 100 100 100 100
100 100 100 100 66 68 73 99 100 100 100 95 93 57 100 100 100 100 100 100 100 70 5 0 83 98 31 100 100 79 96 100 49 5 11 92 100 100 100 100 90 98 90 85
100 100 88 71 24 40 97 99 100 100 100 100 100 100 100 100 100 100 69 100 92 37 5 12 100 100 92 100 100 100 100 84 29 54 86 100 100 100 100 100 69 70 66 96
82 96 100 98 40 94 99 100 100 100 100 100 100 100 100 100 100 100 100 100 100 65 16 72 100 100 100 100 100 100 96 38 78 100 96 90 100 100 100 84 99 100 89 100
100 100 100 96 99 80 89 100 100 100 100 100 100 91 100 100 100 100 100 100 100 55 45 100 100 100 100 100 100 100 98 91 100 100 100 100 100 100 88 81 100 100 100 100
100 100 100 100 94 95 100 100 100 100 100 100 100 100 100 100 100 100 100 100 95 99 100 100 100 100 100 100 100 100 100 100 100 100 100 100 100 100 100 100 100 100 100 100
94 100 100 100 100 44 93 99 55 66 100 100 100 100 100 100 100 100 100 100 100 100 100 100 100 100 100 100 100 100 100 100 100 100 100 100 100 100 100 100 100 100 100 100
100 100 100 99 100 78 67 48 36 46 100 100 100 100 100 100 100 100 100 100 100 100 100 100 100 100 100 100 100 100 100 100 100 100 100 95 88 100 94 88 100 100 100 100
100 100 100 100 98 100 100 100 98 100 100 100 100 100 100 98 100 100 100 100 100 100 100 100 100 100 100 100 100 100 100 100 98 93 76 66 83 98 100 100 100 100 100 100
99 100 100 100 100 87 90 99 49 77 99 100 100 100 100 100 100 100 98 100 100 100 100 100 100 100 100 97 99 88 75 64 70 88 100 100 100 100 100 100 100 100 100 100
100 99 100 100 100 93 98 97 97 59 41 100 100 100 100 100 100 100 100 100 100 100 100 100 100 100 100 100 100 100 100 100 100 100 100 100 100 100 100 100 100 100 100 100
100 95 66 64 98 81 52 91 93 95 66 69 26 100 100 100 100 100 100 100 100 100 100 100 100 100 100 100 100 100 100 100 100 100 100 100 100 100 100 100 100 100 95 51
100 100 80 26 100 62 26 63 73 72 100 82 88 74 100 100 100 100 100 100 100 100 100 100 100 100 100 100 100 100 100 100 100 100 100 100 100 100 100 100 91 67 52 34
100 100 49 33 96 89 100 96 91 88 100 100 89 98 100 100 100 100 100 100 100 100 100 100 100 100 100 100 100 100 100 100 100 100 100 100 100 92 87 80 49 45 42 95

GFSCGP_prec_cloud_042.txt.gz
Cloud_Cover
100 100 100 48 29 79 100 100 100 100 100 95 6 5 5 5 5 6 5 5 27 7 5 5 5 5 9 70 24 5 0 0 0 0 0 0 0 4 100 100 100 93 3 5
100 100 100 100 100 88 38 30 16 5 7 4 5 5 5 5 2 5 25 8 5 5 5 5 5 5 5 5 83 100 92 5 2 0 0 0 12 34 90 100 92 98 43 5
96 100 100 100 100 61 27 6 6 8 5 5 5 4 5 5 5 5 5 5 5 5 5 5 5 4 5 5 60 100 100 94 5 2 0 0 0 0 21 39 96 44 48 4
67 100 100 100 100 100 100 97 99 26 5 33 5 5 5 5 15 44 7 5 5 5 5 5 2 0 0 4 33 78 100 100 38 5 1 0 0 0 0 1 3 45 100 86
100 44 98 100 100 100 89 100 100 100 100 100 100 52 56 98 89 14 52 5 32 9 7 4 5 5 5 5 4 55 96 100 98 5 5 0 0 0 4 10 0 100 100 100
98 100 100 100 100 100 100 100 100 98 99 90 100 100 75 100 100 100 99 81 40 5 18 33 97 73 3 0 4 3 34 67 56 5 4 0 5 0 0 15 44 100 100 100
100 100 95 100 100 100 100 100 100 96 91 42 5 5 72 100 100 100 29 5 5 5 41 89 98 93 5 0 0 3 5 5 10 8 5 1 0 0 0 0 30 56 100 100
100 100 100 100 96 85 100 98 5 5 5 9 14 14 16 100 100 99 3 0 0 5 0 0 0 0 0 0 0 0 0 0 0 0 0 0 4 4 0 0 0 14 100 100
99 98 40 98 54 90 84 63 23 84 35 9 75 77 5 3 5 5 5 0 0 1 1 0 0 0 0 0 0 0 0 0 0 0 0 1 0 5 3 0 42 94 100 100
100 91 41 100 100 84 80 50 71 51 60 10 3 2 5 5 5 6 5 5 39 34 50 75 28 26 0 2 0 0 0 0 0 0 3 65 5 1 5 22 86 100 100 100
99 81 67 91 42 14 40 94 92 77 50 5 5 6 4 10 80 92 100 100 98 100 57 29 86 100 100 100 30 0 0 0 31 50 98 47 6 14 71 100 100 100 100 100
100 99 100 7 5 5 91 41 18 87 5 40 32 43 5 30 40 24 6 7 23 58 46 84 0 9 89 46 4 0 0 96 100 100 97 35 15 8 76 100 97 100 100 100
98 92 23 91 82 98 21 5 5 37 93 94 84 33 100 18 100 100 96 100 66 100 42 64 5 5 12 5 38 91 76 100 100 98 38 12 17 100 100 100 100 99 96 100
56 99 44 44 20 25 7 8 84 100 100 52 48 31 99 100 100 100 99 100 100 95 100 92 100 91 5 4 100 100 98 100 95 5 4 55 100 100 100 100 100 100 100 100
6 58 40 8 5 5 5 41 98 100 97 100 77 100 100 100 100 100 100 100 71 5 63 100 100 100 72 87 100 100 100 100 99 5 86 100 100 100 100 100 100 100 100 100
88 94 94 5 16 8 9 55 88 100 100 100 100 100 100 100 100 100 100 100 92 8 100 100 8 4 100 100 100 100 100 100 99 21 100 100 100 100 96 100 100 100 100 100
96 59 14 58 73 8 23 77 78 92 86 100 100 100 100 100 100 100 100 100 100 63 53 15 31 100 100 100 100 100 100 100 100 100 100 100 100 100 100 100 100 100 100 84
60 94 100 100 72 73 98 87 51 83 91 100 100 100 100 100 100 100 100 100 100 100 100 100 80 97 100 100 100 100 100 100 100 100 100 100 100 100 100 100 100 100 98 93
95 97 100 91 81 68 80 78 59 100 100 100 100 100 100 100 100 100 100 100 100 100 100 100 100 100 100 100 100 100 100 100 100 100 100 100 100 100 100 100 100 100 100 100
100 100 100 100 96 100 100 88 94 100 100 96 99 100 100 86 100 100 100 100 100 100 100 100 100 100 100 100 100 100 100 100 100 100 100 100 100 100 100 100 100 100 100 100
100 100 100 100 97 28 100 100 100 90 41 65 100 96 100 100 100 100 100 100 100 100 100 100 100 100 100 100 100 100 100 100 100 100 100 100 100 100 100 100 100 100 100 97
93 99 100 100 100 69 54 89 70 63 5 99 94 100 100 100 100 100 100 100 100 100 100 100 100 100 100 100 100 100 100 100 100 100 100 100 100 100 100 100 83 92 100 100
69 100 100 100 100 71 80 66 51 97 48 5 6 99 100 100 98 100 100 100 100 100 100 100 100 100 100 100 100 100 99 100 100 100 100 100 100 85 95 100 100 100 100 100
90 100 100 100 100 92 98 79 54 85 93 8 5 22 100 100 100 98 100 100 100 100 100 100 100 100 100 100 100 100 100 100 100 100 100 100 100 100 100 100 100 100 100 100
100 100 100 100 34 76 66 84 97 95 100 88 36 26 86 100 100 95 100 100 100 100 100 100 100 100 100 100 100 100 100 100 100 100 100 100 100 100 94 84 79 57 33 39
100 100 100 100 47 15 60 64 96 82 89 100 100 78 86 100 100 100 100 100 100 100 100 100 100 100 100 100 100 100 100 100 100 100 100 100 100 97 77 64 48 20 98 100

GFSCGP_prec_cloud_045.txt.gz
Cloud_Cover
100 74 100 99 100 100 100 100 100 100 100 100 100 100 100 100 77 69 96 26 5 5 5 47 9 5 0 0 0 0 0 0 0 0 0 0 0 0 44 100 100 0 0 0
99 100 100 100 100 87 100 100 100 100 100 100 100 100 100 100 100 100 100 100 93 5 5 5 5 5 5 5 2 0 1 0 3 0 4 2 5 7 90 70 100 92 0 0
100 100 100 74 85 100 79 94 100 100 100 100 100 100 100 100 100 100 100 71 25 22 19 5 5 5 5 5 5 5 5 5 3 10 0 0 2 20 98 100 99 94 17 0
100 100 100 100 100 99 49 78 95 87 100 100 100 100 100 100 100 100 85 89 26 6 5 2 3 4 5 5 5 5 26 5 5 6 37 0 1 6 5 69 19 11 5 5
100 100 100 100 98 31 24 44 86 25 12 5 5 5 100 84 96 95 30 18 12 5 1 0 0 2 4 3 5 5 1 5 5 5 1 0 5 7 5 21 15 98 92 57
100 100 100 81 56 29 100 100 23 13 7 44 52 3 5 97 100 100 99 64 70 87 76 73 40 17 21 38 22 5 19 21 5 5 2 5 5 12 5 5 4 20 27 68
100 97 100 62 12 9 77 100 94 54 93 69 54 9 10 92 100 100 100 99 79 88 93 98 100 90 96 88 27 5 5 4 5 0 0 0 4 5 5 5 5 5 43 68
100 75 95 100 100 99 60 38 93 81 92 100 94 99 100 100 99 89 78 100 83 95 20 10 10 20 11 18 15 5 5 5 5 5 3 5 0 5 5 5 6 23 38 48
100 100 100 14 78 6 11 99 100 100 100 99 100 100 100 100 98 47 15 0 1 1 5 0 4 5 0 0 0 5 0 0 0 0 0 0 0 4 70 66 12 54 100 95
100 100 100 100 100 100 55 86 100 100 87 42 66 97 75 3 1 2 5 5 5 6 25 5 3 2 0 0 0 0 0 0 0 0 0 0 0 2 5 5 5 14 98 100
100 100 100 95 84 100 97 90 58 17 6 34 42 36 12 5 5 5 5 28 31 97 100 49 3 4 0 0 0 0 0 0 0 0 0 0 0 4 0 1 1 2 98 98
99 100 96 6 13 71 91 44 41 47 56 46 14 20 39 0 5 8 50 5 5 5 86 53 21 5 4 0 0 4 0 3 2 0 0 3 0 0 0 0 6 91 100 100
99 93 44 93 94 90 83 5 5 62 67 17 92 13 0 10 89 71 30 5 6 97 100 87 35 5 61 5 2 1 0 0 16 1 0 82 97 61 75 89 82 100 100 100
77 89 45 12 31 41 40 30 13 85 96 18 23 11 83 62 96 52 34 96 100 100 100 100 100 84 94 5 5 100 4 100 100 4 43 100 100 100 100 100 100 100 100 100
86 5 5 13 70 81 5 5 52 69 73 100 91 94 100 86 100 100 81 100 100 95 38 6 12 65 6 98 100 100 94 100 100 100 100 100 100 100 100 100 100 100 100 100
59 36 97 99 25 5 5 18 100 100 65 84 100 100 100 100 100 100 100 100 100 58 60 32 35 56 99 100 100 100 100 100 100 100 100 100 100 100 100 100 100 100 100 100
100 88 40 5 5 8 57 100 97 100 53 71 70 89 96 100 100 100 100 100 100 100 100 100 69 67 87 98 100 100 100 100 100 100 100 100 100 100 100 100 100 100 100 100
100 100 33 53 14 100 100 89 16 84 100 67 100 100 100 100 100 100 100 100 100 100 100 100 100 100 98 100 100 100 100 100 100 100 100 100 100 100 100 100 100 100 100 100
89 40 88 78 93 100 91 95 97 69 100 63 47 64 100 100 100 100 100 100 100 100 100 100 100 100 100 100 100 100 100 100 100 100 100 100 100 100 100 100 100 100 100 100
100 86 66 99 93 100 65 100 57 100 100 7 11 100 100 100 100 100 100 100 100 100 100 100 100 100 100 100 100 100 100 100 100 100 100 100 100 100 100 100 100 100 100 100
100 100 100 100 100 86 5 74 100 95 76 54 34 100 100 100 100 100 100 100 100 100 100 100 100 100 100 100 100 100 100 100 100 100 100 100 100 100 100 100 100 100 100 100
100 98 100 100 100 100 29 71 75 10 15 43 35 88 100 79 100 100 100 100 100 100 100 100 100 100 100 100 100 100 100 100 100 100 100 100 100 100 100 100 100 100 100 100
89 87 100 100 91 100 5 5 5 7 7 31 5 86 100 100 73 100 100 100 100 100 100 100 100 100 100 100 100 100 100 100 100 100 100 100 100 100 100 100 100 100 100 100
99 96 97 100 100 100 98 33 31 44 27 5 14 65 85 96 99 98 100 100 100 100 100 100 100 100 100 100 100 100 100 100 100 100 100 100 100 100 100 100 100 88 76 43
93 98 100 100 100 100 100 84 63 84 64 49 51 72 84 99 100 86 90 100 100 100 100 100 100 100 100 100 100 100 100 100 100 100 100 100 100 97 90 91 66 16 7 12
77 62 100 100 100 100 87 11 32 84 100 60 90 96 88 77 87 100 97 98 100 100 100 100 100 100 100 100 100 100 100 100 100 100 100 100 100 100 72 25 6 6 5 5

GFSCGP_prec_cloud_048.txt.gz
Cloud_Cover
100 100 100 100 100 100 100 100 100 100 100 99 94 88 100 100 100 100 99 94 99 100 100 92 52 90 28 21 5 5 5 5 0 0 1 5 0 5 30 44 63 100 99 24
100 100 100 100 100 100 100 100 100 100 100 99 100 100 100 100 100 100 100 100 100 100 100 100 67 8 23 17 5 4 5 5 3 0 0 0 0 2 5 45 100 100 100 96
100 100 100 100 100 99 98 100 100 100 100 100 100 100 100 100 100 100 100 100 100 100 100 100 100 100 100 57 15 5 2 5 0 5 4 28 52 89 79 64 86 100 100 100
100 100 100 36 94 100 100 100 100 100 100 100 100 100 100 100 100 100 100 100 100 100 100 100 100 100 100 83 21 5 5 0 0 1 5 5 8 12 4 0 12 69 32 22
100 100 100 100 100 100 100 100 100 97 95 100 100 100 100 100 100 100 100 100 100 100 100 100 100 100 86 66 5 5 5 5 0 5 5 11 33 57 74 37 39 5 25 53
100 100 100 100 79 98 100 100 100 100 78 97 100 95 100 100 100 100 100 100 96 85 98 87 91 54 21 3 4 4 2 2 2 1 2 3 5 19 80 100 18 4 0 4
100 100 100 100 100 100 100 75 84 100 99 97 10 5 80 100 100 100 96 49 59 15 20 13 16 5 5 5 44 67 34 5 5 5 5 0 4 5 10 81 85 2 4 5
100 99 100 100 100 100 100 44 39 79 49 5 5 5 66 5 57 100 100 93 5 5 5 5 15 40 88 86 65 75 87 93 84 29 5 5 5 1 2 18 15 7 4 9
100 100 100 100 100 92 58 38 90 96 21 47 5 28 77 91 34 5 5 7 5 5 53 90 41 5 5 5 5 12 5 5 5 1 4 5 5 4 1 3 5 5 7 26
79 99 100 99 100 100 100 100 56 28 17 5 8 89 100 100 68 5 5 3 9 28 80 87 11 5 3 3 3 1 0 0 0 0 4 5 3 0 1 1 1 4 15 53
100 100 100 100 100 95 96 94 100 18 5 58 87 100 100 100 92 93 68 21 6 5 1 2 3 5 3 1 0 2 0 0 7 0 0 0 3 0 0 2 0 1 12 88
100 100 62 79 91 60 90 46 11 39 84 66 42 93 5 8 61 89 98 11 5 4 3 3 5 5 34 5 5 4 0 0 0 0 0 0 0 1 25 41 41 42 70 100
100 76 92 100 100 100 100 100 99 91 69 60 61 23 33 64 98 54 93 100 41 5 17 15 5 36 70 99 77 90 58 17 1 5 28 0 0 19 28 32 5 8 22 69
100 100 100 100 95 40 17 8 25 14 74 46 48 3 5 65 85 100 100 100 86 97 100 35 5 14 100 100 100 100 90 58 51 100 55 5 7 29 32 99 100 100 100 100
100 100 100 100 53 6 14 17 6 17 30 74 5 96 88 89 100 100 100 100 100 100 100 11 5 5 55 84 75 31 17 5 73 75 90 34 84 64 94 100 100 100 100 100
100 99 100 46 42 7 5 34 14 5 63 79 92 37 100 100 100 100 100 100 100 100 100 30 6 5 19 77 86 100 58 73 95 100 100 100 100 100 100 100 100 100 100 100
100 96 64 18 46 75 65 24 29 73 83 100 81 92 90 89 100 100 100 100 100 100 100 99 100 60 43 65 19 40 100 100 100 100 100 100 100 100 100 100 100 100 100 100
100 100 96 99 84 59 23 66 31 65 98 20 83 99 100 100 100 100 100 100 100 100 100 67 49 32 29 81 98 100 100 100 100 100 100 100 100 100 100 100 100 100 100 100
100 94 86 66 89 11 87 94 78 8 45 34 24 86 100 100 100 100 100 100 100 100 100 100 100 100 100 100 100 100 100 100 100 100 100 100 100 100 100 100 100 100 100 100
100 100 97 100 93 99 100 91 5 5 56 23 8 73 100 100 100 100 100 100 100 100 100 100 100 100 100 100 100 100 100 100 100 100 100 100 100 100 100 100 100 100 100 100
100 100 91 99 78 85 78 58 7 90 94 9 5 28 100 100 100 100 100 100 100 98 100 100 100 100 100 100 100 100 100 100 100 100 100 100 100 100 100 100 100 100 100 100
99 100 98 100 100 100 72 40 65 100 48 38 25 7 100 71 97 100 100 100 99 98 100 100 100 100 100 100 100 100 100 100 100 100 100 100 100 100 100 100 100 100 100 100
100 62 71 98 100 56 62 90 33 13 5 54 82 19 83 94 100 100 100 100 100 100 100 100 100 100 100 100 100 100 100 100 100 100 100 100 97 95 66 90 99 99 71 100
100 94 100 100 94 97 99 100 77 81 61 44 99 70 36 43 100 100 100 100 100 100 100 100 95 97 100 100 100 100 100 100 100 100 100 100 100 100 100 100 100 100 100 98
100 97 100 100 98 100 70 49 62 36 74 74 100 97 80 99 93 100 100 100 100 91 100 100 89 100 100 100 96 81 100 100 98 100 100 100 100 100 100 100 100 88 99 50
52 26 98 65 100 97 46 63 36 73 9 6 68 64 95 92 94 99 100 100 100 100 100 100 100 100 100 100 98 88 97 100 100 100 100 100 100 100 97 58 34 52 62 66

GFSCGP_prec_cloud_051.txt.gz
Cloud_Cover
100 100 100 100 100 100 100 100 100 100 100 100 100 100 100 100 100 100 100 34 83 100 100 65 96 41 63 39 5 5 1 5 6 5 96 100 99 44 6 11 5 31 93 5
100 100 100 100 100 100 100 100 100 100 100 100 100 100 100 100 100 100 100 100 100 100 100 100 84 85 100 98 13 37 56 5 5 17 6 6 5 24 5 5 5 13 10 23
100 100 100 100 100 100 100 100 100 100 100 100 100 100 100 100 100 100 100 100 100 100 100 100 92 56 82 88 100 100 12 5 3 8 19 22 19 46 50 34 5 37 100 97
100 100 100 100 100 99 100 100 100 100 100 100 100 100 100 100 100 100 100 100 100 100 100 100 100 100 100 100 100 100 100 92 87 100 88 64 66 29 16 5 5 5 5 20
100 100 100 100 100 100 100 100 100 100 99 100 100 100 100 100 100 100 100 100 100 100 100 100 100 100 53 22 82 94 100 100 99 96 28 57 31 90 30 6 2 15 20 7
100 100 100 95 82 80 100 100 100 64 89 100 100 100 100 100 98 100 100 85 98 100 99 100 100 100 99 82 47 37 70 72 62 78 61 60 5 6 44 69 64 58 50 32
100 100 100 100 100 100 50 50 100 100 99 100 100 100 100 100 100 100 96 100 90 82 92 97 99 94 56 37 22 13 7 5 5 5 5 5 21 58 35 35 42 80 56 89
100 100 100 100 100 100 8 52 69 44 68 68 100 100 100 100 100 100 100 60 5 5 5 5 5 5 5 5 5 22 72 72 26 5 15 13 5 5 6 5 8 70 10 41
100 100 100 100 100 100 58 87 100 96 99 100 100 100 100 96 5 5 5 5 5 5 5 5 5 1 1 5 5 6 27 24 16 54 14 47 60 52 62 54 58 12 80 74
100 100 100 100 100 100 99 99 100 95 67 100 100 100 97 39 5 5 0 0 0 0 0 0 4 5 14 61 70 68 87 97 100 80 18 14 7 8 8 19 47 62 80 100
100 100 100 100 100 100 100 100 100 100 100 100 100 94 49 24 5 5 5 5 2 5 23 91 100 100 92 35 9 5 15 5 8 6 5 20 42 26 20 20 15 10 9 43
100 100 100 100 100 100 100 100 100 94 60 43 42 69 2 5 5 37 5 5 49 80 9 7 8 5 5 4 4 5 7 37 78 5 11 39 49 37 38 47 48 72 76 91
100 100 100 100 100 100 100 96 98 94 93 88 82 42 5 18 7 6 36 34 77 80 53 100 100 72 4 4 5 5 23 94 100 100 85 40 57 66 96 100 100 100 100 100
100 100 100 100 99 82 92 58 37 54 80 13 23 74 97 97 94 88 83 100 98 100 100 82 81 5 2 1 5 43 82 37 100 100 100 100 100 100 100 100 100 100 100 100
100 100 100 100 100 100 100 88 100 100 100 22 94 83 60 82 63 75 100 100 100 77 89 47 97 5 5 5 5 5 6 5 100 100 100 100 100 100 100 100 93 100 100 100
100 100 100 100 100 100 100 100 87 24 99 32 91 67 92 95 99 100 100 100 73 100 100 55 74 24 7 6 48 54 99 13 68 100 100 100 100 100 100 100 100 100 100 100
100 100 100 100 80 90 100 97 75 21 14 92 75 60 99 88 100 94 100 100 100 100 99 100 100 82 97 95 100 100 98 98 90 100 100 100 100 100 100 100 100 100 100 100
100 100 100 99 86 71 14 5 15 53 19 37 57 89 100 100 100 96 100 100 100 100 100 100 89 100 100 100 100 100 100 100 100 100 100 100 100 100 100 100 100 100 100 100
99 100 99 91 100 54 53 78 80 83 72 89 68 48 99 100 100 100 100 100 100 100 100 100 100 100 100 100 100 100 100 100 100 100 100 100 100 100 100 100 100 100 100 100
100 100 73 100 98 59 71 78 84 59 80 97 34 30 100 100 79 100 100 99 98 100 100 100 100 100 100 100 100 100 100 100 100 100 100 100 100 100 100 100 100 100 100 100
100 100 100 100 89 33 89 95 36 93 53 59 11 68 100 91 79 100 97 100 97 100 100 100 100 100 100 100 100 100 100 100 100 100 100 100 100 100 100 100 100 100 100 100
100 100 100 87 100 95 95 91 92 90 96 90 64 50 83 98 100 100 91 100 90 94 64 92 100 100 100 100 100 100 100 100 100 100 100 100 100 100 100 100 100 100 100 100
92 95 79 67 65 91 97 83 100 84 90 99 78 74 79 99 82 97 86 90 100 100 100 100 100 100 100 94 100 100 100 100 100 100 100 100 99 100 100 100 98 53 54 9
96 73 78 55 99 100 100 91 99 99 96 79 87 58 60 100 100 99 99 100 84 100 99 99 100 100 100 100 100 100 100 100 100 100 100 100 100 100 100 100 100 100 98 96
87 91 60 87 94 79 89 66 89 100 65 79 96 92 98 76 98 100 100 91 90 83 77 74 100 100 100 100 100 100 70 100 99 90 94 100 100 100 98 73 31 11 6 30
54 83 99 100 82 98 52 43 86 56 53 78 70 43 48 100 100 90 100 92 100 93 83 79 100 100 100 80 34 48 96 67 100 100 100 87 35 9 9 5 32 91 97 71

GFSCGP_prec_cloud_054.txt.gz
Cloud_Cover
100 100 100 100 100 100 100 100 100 100 100 100 100 100 100 100 100 100 83 57 45 100 100 100 100 49 70 70 6 5 5 48 13 90 100 100 100 100 100 43 71 31 42 5
100 100 100 100 100 100 100 100 100 100 100 100 100 100 100 100 100 97 100 76 6 26 100 100 96 100 100 100 100 100 88 5 5 6 51 51 82 100 100 100 78 67 17 8
100 100 100 100 100 100 100 100 100 100 100 100 100 100 100 100 100 90 11 7 46 82 80 97 100 88 100 100 100 99 94 97 94 68 100 100 100 100 100 100 54 93 8 19
100 100 100 100 100 100 100 100 100 100 100 100 100 100 100 100 100 100 100 98 69 80 86 15 54 73 100 88 92 100 100 100 97 100 100 100 100 100 100 100 95 56 24 9
100 100 100 100 100 100 100 100 100 100 100 100 100 100 100 100 100 100 100 100 100 100 100 51 9 20 99 100 100 100 100 100 100 100 100 84 98 100 100 100 100 100 100 48
100 100 100 100 100 100 100 100 100 100 100 100 100 100 100 100 100 100 100 100 100 100 67 10 18 37 15 16 73 100 100 100 100 100 96 32 58 91 100 100 100 99 52 58
100 100 100 100 100 100 100 89 96 100 100 100 100 100 100 100 100 100 100 100 100 97 100 98 90 100 100 100 100 99 93 100 100 100 100 100 100 100 93 94 100 100 100 98
100 100 100 100 100 100 54 43 87 81 100 100 100 100 100 100 100 99 50 8 16 20 99 100 100 98 79 73 65 53 80 92 94 90 39 14 31 46 48 32 26 39 62 98
100 100 100 100 100 100 100 100 96 71 100 100 100 100 100 100 100 88 62 32 28 26 5 5 5 48 60 56 18 5 5 5 5 5 5 6 7 5 5 7 5 89 96 100
100 100 100 100 100 100 46 55 100 90 23 68 79 50 87 72 27 53 97 78 52 7 5 5 1 1 1 3 5 5 2 5 5 5 5 2 0 2 4 16 41 33 28 32
100 100 100 100 100 100 100 100 100 100 100 92 100 100 97 76 56 42 16 12 12 34 5 5 5 5 2 1 0 0 1 5 5 5 5 5 27 35 40 42 53 55 70 100
100 100 100 100 100 100 100 100 100 100 100 100 100 71 10 5 5 18 100 99 98 32 5 5 5 5 0 0 0 0 0 0 1 5 23 59 100 100 100 99 74 78 100 100
100 100 100 100 100 100 100 100 100 100 100 97 98 44 97 100 88 5 5 5 31 100 87 5 5 4 0 0 0 0 2 5 5 5 51 92 100 100 100 100 100 100 100 100
100 100 100 100 80 94 100 100 100 100 100 100 100 100 100 100 66 41 60 100 100 79 24 18 5 64 4 0 0 2 4 4 5 5 65 100 100 100 100 100 100 100 100 100
100 100 100 100 100 100 100 100 100 100 100 100 100 100 100 91 53 9 68 78 58 5 6 43 58 19 5 5 5 5 5 5 5 16 84 100 100 100 100 100 100 100 100 100
100 100 100 100 100 100 100 100 64 39 59 5 20 14 98 84 98 100 75 24 31 19 100 50 97 39 78 5 29 92 100 91 85 100 100 100 100 100 100 100 100 100 100 100
100 100 100 100 100 100 99 100 76 7 21 60 99 100 100 100 100 100 100 100 73 99 100 50 5 7 43 100 100 100 100 100 100 100 100 100 100 100 100 100 100 100 100 100
100 100 100 100 100 100 100 100 88 82 92 100 100 100 100 48 100 94 100 100 100 100 98 64 52 74 100 100 100 100 100 100 100 100 100 100 100 100 100 100 100 100 100 100
100 100 100 100 88 90 100 75 69 92 94 84 98 76 89 100 82 98 100 100 100 98 33 100 100 100 100 100 100 100 100 100 100 100 100 100 100 100 100 100 100 100 100 100
100 93 85 99 90 80 24 26 92 82 84 71 50 84 100 93 8 50 99 94 79 99 100 100 100 100 100 100 100 100 100 100 100 100 100 100 100 100 100 100 100 100 100 100
98 98 99 91 98 7 26 90 78 77 28 67 100 73 100 100 88 93 18 73 48 70 32 98 100 100 94 100 100 100 100 100 100 100 100 100 100 100 100 100 100 100 100 100
86 92 92 94 94 54 44 79 97 76 78 95 77 54 100 89 95 100 30 5 17 70 56 96 99 100 100 100 100 100 100 100 100 100 100 100 100 100 100 100 100 100 100 100
78 49 99 25 37 83 94 98 99 88 100 42 51 63 90 100 100 100 95 9 98 100 100 100 100 100 100 100 100 100 100 100 100 100 100 97 72 61 97 98 100 99 100 100
99 91 46 75 98 83 100 96 94 97 88 85 70 36 72 91 100 100 100 85 92 100 100 97 100 100 100 100 100 100 100 100 97 84 36 26 81 100 77 39 67 76 98 98
66 80 90 100 100 92 100 98 98 100 100 76 77 47 69 80 98 100 100 61 48 39 55 100 100 100 100 100 100 100 100 27 63 71 12 8 5 5 30 93 93 98 100 100
92 92 100 100 60 96 98 81 88 60 82 88 68 22 65 69 80 93 100 100 32 25 52 99 100 100 100 100 59 24 40 58 44 59 79 17 5 22 7 13 21 23 60 50

GFSCGP_prec_cloud_057.txt.gz
Cloud_Cover
100 100 83 100 100 100 100 100 100 100 100 100 100 100 100 100 100 100 100 100 98 79 100 100 100 100 100 87 60 78 83 100 98 100 100 100 100 100 100 100 68 37 63 66
100 100 100 100 100 100 100 100 100 100 100 100 100 100 100 100 100 100 100 100 43 58 100 100 100 100 100 100 100 100 100 77 88 68 97 100 95 100 80 100 100 89 95 80
100 100 100 100 100 100 100 100 100 100 100 100 100 99 100 100 100 100 100 100 89 66 65 70 93 100 100 95 100 100 100 100 100 100 100 100 100 100 100 100 100 100 90 95
100 100 100 100 100 100 100 100 100 100 100 100 100 100 100 100 99 93 100 100 100 100 34 6 9 58 86 83 100 100 100 100 100 100 100 97 100 100 100 100 100 100 100 100
100 100 100 100 100 100 100 100 100 100 100 100 100 100 100 100 100 100 100 40 39 20 11 5 5 24 87 89 91 80 74 82 96 99 100 100 100 100 100 100 100 100 100 100
100 100 100 100 100 100 100 100 100 100 100 100 100 100 100 100 100 100 100 97 66 91 76 75 70 35 36 47 46 20 58 92 100 100 92 92 97 98 100 100 100 100 100 100
100 100 100 100 99 100 100 100 100 100 100 100 100 100 100 100 100 100 100 89 63 38 46 75 100 100 96 75 68 28 22 34 56 100 100 100 100 100 100 100 100 100 100 100
100 100 100 100 100 98 100 100 100 100 98 100 100 100 100 100 100 100 100 100 100 100 100 100 100 73 80 97 96 96 99 84 24 35 71 97 100 98 100 100 100 100 100 100
100 98 90 100 98 100 100 98 100 100 100 100 100 100 100 100 100 100 100 100 98 99 100 100 98 94 68 29 5 5 5 6 6 47 46 29 5 5 5 5 5 60 62 48
100 100 99 100 100 100 100 96 61 87 100 98 59 70 100 99 64 87 100 94 65 69 68 75 67 36 16 5 6 17 57 30 22 4 2 2 5 4 2 3 4 27 54 81
100 100 100 87 78 100 100 100 86 86 72 53 52 77 63 59 100 100 78 87 59 19 12 6 5 5 5 5 5 5 5 0 0 0 0 31 97 96 87 81 77 96 100 100
100 100 100 82 100 100 100 100 100 100 100 100 100 92 6 5 6 8 7 36 75 74 31 20 30 9 5 12 5 5 0 0 0 0 1 83 100 100 100 100 100 100 100 100
100 100 100 100 100 100 100 100 100 100 99 87 15 48 100 34 30 16 12 41 64 76 52 5 5 5 5 1 0 0 0 0 0 0 0 39 18 92 97 99 99 100 100 100
100 100 100 100 100 100 100 100 100 100 100 100 100 100 5 95 88 14 34 48 99 74 62 5 5 5 5 1 0 0 0 0 0 0 6 81 89 99 100 100 100 100 100 100
100 100 100 100 100 100 100 100 100 100 97 100 100 94 100 7 19 72 94 100 99 19 14 11 5 5 5 5 5 3 3 0 2 0 14 35 100 100 100 100 100 100 100 100
100 100 100 100 100 100 100 100 80 100 100 95 18 16 97 100 100 100 100 100 98 79 35 70 5 5 5 5 5 5 5 42 95 100 100 100 100 100 100 100 100 100 100 100
100 100 100 100 100 100 100 97 71 100 100 100 100 100 100 100 86 100 100 100 100 100 85 8 5 5 6 54 100 100 76 100 100 100 100 92 100 100 100 100 100 100 100 100
100 100 100 100 100 100 100 100 100 100 100 63 77 43 52 94 100 100 100 100 75 100 98 10 35 100 99 99 100 100 94 100 100 100 100 100 100 100 100 100 100 100 100 100
100 100 100 98 81 32 15 14 44 47 57 67 94 99 100 100 67 28 31 48 21 7 91 81 99 100 66 97 94 100 100 100 100 100 100 100 100 100 100 100 100 100 100 100
100 100 70 72 56 31 59 76 86 90 100 100 100 100 100 64 62 51 5 5 48 42 37 98 100 100 100 100 100 97 100 100 100 100 100 100 100 100 100 100 100 100 100 100
100 100 100 100 81 54 94 100 100 100 100 100 100 100 100 92 80 21 28 5 5 5 7 85 100 100 100 100 100 100 100 100 100 100 100 100 100 100 100 100 100 100 100 98
81 100 100 95 81 99 85 78 96 100 100 100 100 100 100 100 100 92 100 7 5 5 90 82 98 100 100 100 100 100 100 100 100 100 100 100 100 100 100 100 100 100 100 100
80 45 69 15 16 61 65 94 100 96 95 100 100 98 50 100 100 89 100 99 100 100 100 100 100 100 100 100 100 100 100 100 100 96 54 22 77 100 100 100 92 65 47 41
57 94 67 37 67 76 96 100 100 95 71 87 100 62 68 92 100 82 100 100 100 100 100 100 100 100 100 100 100 100 100 100 99 23 27 96 55 98 99 78 13 6 5 5
41 49 58 45 53 90 94 100 100 86 68 68 100 99 83 63 45 77 100 100 100 100 94 96 100 92 100 100 100 100 76 33 8 32 63 29 48 20 5 5 5 6 33 13
100 100 100 40 85 7 100 100 100 79 78 63 96 80 78 77 72 32 90 100 100 100 87 100 100 100 100 100 100 75 94 100 97 50 84 46 5 5 5 5 10 24 7 29

GFSCGP_prec_cloud_060.txt.gz
Cloud_Cover
100 100 100 100 100 100 100 100 100 100 100 100 100 100 100 100 100 100 100 100 100 100 100 100 100 100 100 78 37 5 5 5 5 5 100 100 100 100 100 100 49 33 66 17
100 100 100 100 100 100 100 100 100 100 100 67 100 100 100 100 100 100 100 100 100 100 100 100 100 100 100 100 98 65 39 49 9 5 5 5 42 100 100 100 100 100 99 47
100 100 100 94 100 100 100 100 100 100 100 100 100 100 100 100 100 100 100 100 100 100 100 100 97 100 100 100 100 100 99 97 100 100 53 23 15 83 100 100 100 100 92 93
100 100 100 100 100 99 100 100 100 100 100 100 100 36 100 100 100 100 100 100 100 100 100 100 100 100 98 95 79 100 100 100 100 100 100 100 95 36 93 100 86 61 96 100
100 100 100 99 98 100 100 100 100 100 100 100 100 100 100 100 100 100 100 100 100 100 17 5 5 69 100 100 100 100 74 78 86 100 100 100 100 100 100 85 100 100 100 100
100 100 100 100 100 98 100 100 100 100 100 100 100 100 100 100 100 100 100 100 100 94 43 45 51 86 100 100 91 95 78 64 92 85 89 62 66 97 100 100 100 100 100 100
100 100 100 100 100 100 100 100 100 100 100 100 100 100 100 100 100 72 56 58 49 41 55 78 50 23 5 5 5 5 5 31 85 92 99 98 100 100 100 100 100 100 100 100
100 100 100 100 100 100 100 94 95 100 100 100 100 100 100 100 100 100 81 54 82 99 100 88 64 14 5 5 5 5 9 5 28 98 100 100 100 100 100 100 100 100 100 100
100 100 100 100 100 92 100 100 84 79 100 100 100 100 100 100 100 100 100 100 100 100 60 63 58 27 8 26 14 51 86 85 67 62 49 46 64 54 44 17 58 67 68 100
100 100 100 100 98 71 100 100 98 100 100 99 96 100 100 100 100 100 100 100 100 100 93 66 84 58 62 68 87 87 43 13 33 19 5 10 6 5 5 5 5 5 5 4
100 91 100 100 100 74 53 16 11 56 72 22 9 100 100 100 60 44 68 89 100 100 100 93 95 86 87 96 96 89 84 32 4 5 25 19 9 46 86 93 81 72 72 86
5 10 99 95 96 100 100 99 99 99 100 100 100 100 100 99 60 100 100 80 79 85 52 64 58 21 13 12 16 10 5 5 5 5 5 2 21 32 47 98 93 100 100 52
100 100 86 95 53 10 69 100 72 100 100 100 100 100 95 96 70 5 5 7 47 90 99 60 63 30 10 5 5 7 5 6 2 0 0 0 21 49 68 94 100 100 100 100
96 100 100 100 32 55 75 79 100 100 100 90 100 59 88 84 20 42 89 45 26 39 52 47 36 5 5 5 5 2 0 0 0 0 0 0 4 77 97 99 100 100 100 100
77 86 97 100 100 78 100 100 100 100 100 100 100 68 92 96 96 100 98 90 100 99 49 49 38 29 5 5 4 1 2 2 5 4 0 2 29 85 100 100 100 100 100 100
96 99 100 100 100 100 100 100 100 100 100 100 97 79 100 100 100 100 99 100 100 100 100 100 92 5 5 8 12 5 27 8 5 5 65 74 58 98 94 100 100 97 89 100
100 100 100 100 100 100 100 100 100 100 100 100 71 88 93 69 8 79 97 79 100 100 100 10 5 5 5 8 31 57 60 58 57 97 74 19 82 100 100 100 100 100 100 100
96 100 100 100 100 100 100 100 100 100 100 80 37 77 53 74 100 100 100 94 46 5 33 100 25 7 5 5 5 28 61 76 100 100 100 100 100 100 100 98 100 100 100 100
100 100 100 100 65 100 100 100 100 100 100 88 94 100 100 100 92 71 18 64 41 5 5 7 73 88 78 5 14 20 72 77 100 100 100 100 100 100 100 100 100 100 100 100
100 100 89 99 100 100 97 100 100 99 99 100 100 91 5 77 96 100 100 69 5 5 5 5 26 99 69 100 67 22 81 100 100 100 100 100 100 100 100 100 100 100 100 100
90 100 100 100 80 59 46 69 88 99 79 59 62 71 100 100 100 94 44 7 5 5 5 69 30 98 76 96 91 100 100 100 100 100 100 100 100 100 100 99 91 67 100 100
100 100 98 100 98 79 85 85 76 86 73 100 100 100 100 100 100 100 100 46 5 5 6 6 19 100 100 99 100 100 100 100 100 100 100 100 88 51 32 5 5 5 5 8
51 48 95 94 99 100 100 100 100 100 100 100 100 100 100 100 100 93 97 100 88 54 90 96 87 100 100 100 100 100 100 100 100 56 26 8 5 6 5 5 5 5 5 5
80 54 26 91 96 57 88 100 86 99 100 100 99 100 100 100 100 100 100 100 100 68 71 22 85 100 100 100 100 100 97 100 94 6 5 5 5 5 5 5 5 5 5 5
98 100 51 52 28 57 71 56 97 100 97 100 100 100 100 99 76 87 99 99 96 100 66 62 100 100 100 100 100 88 85 20 5 7 55 29 5 5 5 5 5 5 5 5
100 100 97 5 5 5 22 73 100 100 98 99 100 100 94 64 84 62 28 85 94 100 100 99 100 100 100 100 100 100 96 43 68 95 44 75 92 20 5 5 5 5 5 5

GFSCGP_prec_cloud_063.txt.gz
Cloud_Cover
48 88 100 100 100 100 100 100 100 100 100 100 100 100 100 100 100 100 52 99 100 100 100 100 100 100 100 100 97 73 42 100 100 100 63 89 82 100 100 67 5 17 14 30
65 100 100 100 100 100 95 100 100 100 100 100 100 100 100 100 100 100 100 100 100 100 100 100 100 100 100 100 100 100 100 100 100 100 99 99 100 84 100 100 100 78 84 5
91 100 100 100 100 100 84 100 100 100 100 100 100 100 100 100 100 100 100 81 97 100 100 100 100 100 100 100 100 100 100 100 99 100 96 52 43 6 8 14 82 100 100 28
100 100 100 100 100 100 93 100 100 100 100 100 100 100 100 100 100 100 100 100 100 100 100 100 100 100 100 100 100 100 100 100 94 58 5 5 5 6 5 5 2 5 12 55
100 100 100 100 99 100 100 100 100 100 100 100 100 100 99 100 100 100 100 100 100 100 100 100 100 100 100 100 100 100 100 100 83 99 40 5 5 5 6 28 78 100 54 48
100 100 100 100 100 100 97 100 98 100 100 100 100 100 78 100 100 100 100 100 100 100 77 84 94 100 100 100 100 100 99 98 74 29 33 58 73 97 98 100 100 100 100 100
100 100 100 100 100 100 100 100 100 100 100 100 100 100 93 100 100 96 88 93 100 73 44 39 40 64 89 98 98 100 90 15 27 6 5 5 5 11 63 95 100 100 100 100
100 100 100 100 100 100 100 99 99 90 35 100 100 100 100 100 100 100 81 58 40 64 95 71 37 51 25 13 21 36 25 29 59 26 5 5 17 38 100 98 94 100 100 99
100 100 100 100 100 100 100 100 61 100 100 100 100 100 100 100 100 100 100 100 100 100 100 83 51 19 8 7 13 28 10 5 6 11 10 23 61 81 82 38 45 85 88 99
100 100 100 99 99 100 100 100 98 61 97 87 23 100 100 100 100 100 100 100 100 100 100 68 51 34 40 34 43 55 19 8 10 18 48 56 16 17 29 52 81 100 62 24
100 100 100 70 98 93 100 100 100 100 49 100 99 38 100 100 100 100 100 100 100 100 100 100 100 100 74 90 75 74 27 8 26 23 7 94 27 33 76 64 5 22 44 75
13 78 100 100 72 90 94 75 56 100 100 91 100 100 100 100 100 100 100 100 100 100 100 100 98 67 84 99 71 43 23 14 78 73 35 7 4 5 5 0 0 10 79 99
40 24 100 100 100 100 100 100 100 100 99 100 97 80 100 100 100 100 100 90 77 94 100 100 100 100 100 100 100 94 21 5 7 16 5 4 2 0 0 44 16 14 21 50
55 35 7 100 100 100 100 100 100 94 86 100 94 69 31 51 94 82 56 60 100 100 52 11 42 66 97 100 62 51 5 5 3 5 3 0 0 6 3 94 100 100 93 65
100 100 100 80 6 24 60 45 24 46 67 23 91 100 93 98 100 99 100 100 100 100 78 99 19 5 4 9 9 4 4 1 5 0 4 21 49 90 96 87 100 97 42 44
22 64 46 55 97 100 83 14 5 99 100 100 90 100 100 100 100 100 100 100 86 44 18 100 82 38 5 5 6 17 40 22 5 5 16 18 50 64 82 100 100 100 100 99
51 30 32 40 26 100 100 100 52 78 26 93 100 100 100 100 100 100 70 32 13 27 64 99 60 13 5 5 13 27 51 81 61 73 50 30 54 67 87 100 100 100 100 100
78 77 100 100 100 94 100 93 84 100 100 100 100 100 100 100 99 100 100 100 100 100 100 22 5 13 5 5 5 24 95 100 100 100 100 99 94 94 100 100 100 100 100 100
96 92 97 99 100 100 100 100 100 100 100 99 92 100 72 76 100 100 85 44 52 16 67 90 27 13 89 63 5 21 87 100 100 100 100 100 100 100 100 100 100 100 100 100
100 100 100 100 100 100 100 100 100 100 100 100 100 92 54 14 65 78 100 100 85 19 10 31 5 30 100 78 42 70 99 100 100 100 100 100 100 100 100 100 100 100 100 91
100 100 100 100 100 100 100 100 100 100 100 100 91 83 100 100 100 100 75 12 10 29 18 54 66 12 58 16 89 100 100 100 100 100 100 100 100 100 100 95 94 22 2 3
66 83 100 100 100 100 100 100 100 100 100 100 100 73 95 100 98 100 100 100 95 61 48 62 21 12 64 100 100 100 100 100 100 100 100 99 93 48 4 1 0 0 0 0
99 70 99 32 64 74 91 94 100 82 98 58 46 60 74 76 100 100 100 100 100 75 35 24 47 100 100 100 100 100 100 100 84 61 29 16 5 5 5 1 0 0 0 0
64 57 100 92 100 100 100 76 33 84 82 52 62 87 100 100 100 100 100 100 100 100 34 19 39 100 100 100 100 100 100 71 33 5 36 32 5 5 8 6 5 5 0 5
100 97 51 45 40 71 50 100 100 100 84 76 84 97 100 100 100 97 90 100 100 100 89 6 43 100 100 100 100 77 36 49 57 22 5 5 5 7 32 37 5 5 5 5
38 8 41 62 65 17 64 15 35 68 88 85 72 93 100 100 100 100 100 80 74 96 81 22 100 100 100 100 99 37 88 94 87 60 5 5 5 42 59 52 5 5 5 10

GFSCGP_prec_cloud_066.txt.gz
Cloud_Cover
100 95 31 5 2 5 62 100 77 100 100 100 100 100 100 100 100 100 98 83 100 100 100 100 100 100 100 20 5 5 5 5 22 87 100 100 94 31 100 100 100 100 19 8
98 100 75 17 6 69 99 100 99 95 100 100 100 100 100 100 100 100 87 100 100 100 100 100 100 100 100 100 100 100 97 89 96 100 55 87 100 100 79 46 26 34 78 88
99 100 15 5 5 7 100 96 100 66 100 100 100 100 100 86 100 100 100 100 100 100 100 100 100 100 100 100 100 96 93 99 100 98 58 76 98 100 100 58 62 11 12 5
68 100 100 52 25 18 75 99 100 100 100 100 100 100 100 92 100 100 100 100 100 100 100 100 100 100 100 100 100 100 100 100 100 100 100 100 38 22 100 100 54 15 5 4
100 100 100 88 81 100 100 100 95 83 100 100 100 100 100 79 100 100 100 100 100 100 100 100 100 100 100 100 100 100 100 100 100 64 62 41 65 5 5 82 52 18 5 5
99 100 100 100 100 91 91 100 90 100 97 100 100 100 100 100 100 100 100 100 100 100 100 100 100 100 100 100 100 100 100 100 100 99 72 37 72 55 74 6 5 5 5 24
100 100 100 100 100 100 100 99 97 95 88 100 100 100 100 100 100 98 100 100 100 100 100 100 100 100 100 100 100 100 100 100 100 100 90 95 98 31 32 5 5 5 5 5
100 100 100 100 100 99 98 100 99 33 5 23 100 100 100 100 100 100 100 100 100 100 100 100 100 100 100 100 100 72 34 5 36 28 57 72 92 25 53 32 15 6 6 39
100 100 100 100 100 100 100 84 99 100 70 57 100 100 100 100 100 100 100 99 100 100 100 99 98 94 90 81 38 6 20 41 31 60 98 89 97 54 46 13 8 44 25 63
100 100 100 100 100 100 100 100 100 98 90 94 100 100 100 100 100 100 100 99 99 89 72 53 14 5 5 5 5 23 33 62 54 46 77 48 98 60 62 73 57 37 26 24
100 100 100 100 100 100 100 100 53 100 100 95 83 51 99 100 100 100 100 100 100 100 100 89 72 60 61 85 71 37 66 63 37 84 96 73 56 48 55 33 63 75 21 67
100 100 100 100 97 100 100 100 100 100 98 7 30 100 56 98 100 100 100 100 100 100 100 100 100 100 100 100 100 100 100 100 97 80 98 53 75 8 36 21 7 33 5 0
37 100 100 100 98 100 100 100 100 100 100 100 93 16 100 100 58 100 100 100 100 100 100 100 100 100 100 100 100 100 100 100 91 35 99 66 38 22 25 5 5 8 2 0
76 83 100 100 100 99 100 70 43 59 100 100 100 95 100 100 100 87 100 100 100 100 100 100 100 100 100 100 100 100 100 84 87 75 80 70 58 28 23 18 63 100 69 0
27 5 7 77 100 100 90 100 100 100 100 99 96 100 100 100 100 100 100 86 100 100 100 100 88 100 100 56 11 7 9 12 24 5 4 4 2 100 100 100 92 100 100 94
100 96 68 5 17 100 100 100 100 100 100 100 99 42 100 100 100 100 100 100 100 100 100 100 100 98 89 78 99 100 15 6 7 17 3 2 71 100 100 100 100 100 100 100
26 86 38 18 5 5 76 99 100 100 97 82 16 35 100 98 98 100 97 73 96 100 100 100 98 77 95 100 99 30 5 6 44 52 28 59 100 100 100 100 100 100 100 100
35 76 24 7 11 82 92 46 62 12 5 49 21 100 100 95 100 100 100 100 100 100 100 100 100 100 100 63 17 8 7 100 100 100 100 100 100 100 100 100 100 100 100 100
63 95 54 30 44 92 46 97 89 75 42 65 73 100 100 100 100 100 100 100 100 100 87 99 100 80 5 62 73 5 86 100 100 100 100 100 100 100 100 100 100 100 100 100
20 72 64 100 95 46 100 100 100 99 99 100 100 100 100 100 100 100 100 100 100 100 100 100 93 69 20 95 5 26 100 100 100 100 100 100 96 100 100 100 100 100 91 55
69 86 88 99 100 100 99 100 90 99 100 100 100 100 100 100 100 100 100 70 88 100 69 6 9 5 12 15 54 97 100 100 100 100 100 100 98 100 94 75 26 4 0 0
73 83 67 68 100 99 100 100 100 100 100 100 100 100 100 100 100 100 100 100 100 34 65 29 5 46 95 100 100 100 100 100 100 100 93 59 20 6 4 5 3 0 0 0
72 84 93 8 34 97 99 100 100 100 100 100 100 100 100 100 99 100 100 100 100 97 52 54 78 84 100 100 100 100 100 100 100 100 100 10 5 5 5 5 5 5 14 5
96 32 100 55 68 20 65 78 90 95 100 99 89 80 100 100 100 99 100 98 100 98 100 96 75 100 100 100 100 100 100 56 52 100 100 98 37 20 5 26 9 14 60 10
56 24 6 19 100 54 11 10 13 10 17 15 79 92 95 94 90 100 100 100 100 100 100 82 59 99 100 100 100 100 74 5 55 100 100 100 98 67 20 26 43 76 100 62
7 6 5 5 97 93 100 87 27 23 34 58 34 62 92 100 87 100 100 100 100 98 95 65 13 96 100 100 100 81 9 5 5 91 100 100 94 85 87 75 97 100 100 98

GFSCGP_prec_cloud_069.txt.gz
Cloud_Cover
100 100 100 96 28 41 100 100 100 100 100 100 100 100 100 100 100 100 100 100 100 100 75 5 48 100 100 96 19 5 54 100 18 0 5 21 5 15 8 61 100 89 81 100
100 100 100 100 100 80 63 100 100 98 96 88 100 100 100 100 98 70 100 100 100 100 100 44 97 100 100 100 100 39 5 10 54 98 53 10 13 9 5 5 51 96 100 100
100 100 100 99 49 9 64 36 100 57 45 100 100 100 100 93 100 88 90 100 100 100 100 100 100 100 100 74 88 41 5 5 5 24 42 61 99 100 100 94 100 40 6 75
100 100 100 100 96 95 65 8 100 100 87 97 100 100 100 100 85 100 97 76 88 100 100 100 100 100 100 100 100 100 100 89 91 96 100 100 100 100 100 100 100 98 31 5
100 100 100 100 100 100 64 84 88 18 90 73 100 100 100 100 96 100 100 99 76 100 100 100 100 100 100 100 100 100 100 89 100 99 65 32 94 97 23 59 95 32 7 8
100 100 100 100 87 16 78 46 82 94 100 100 100 85 100 100 100 100 100 48 100 100 100 100 100 100 100 100 100 100 100 100 76 60 59 79 68 34 24 5 10 90 22 5
100 100 90 98 39 50 83 100 94 100 97 25 100 84 100 100 100 100 100 99 94 100 100 99 98 100 100 100 100 100 100 100 100 97 32 34 43 38 75 75 11 5 5 4
100 100 100 93 46 95 100 96 32 14 46 17 10 100 100 100 100 100 100 100 100 100 100 100 100 100 100 100 100 100 100 100 100 99 99 100 100 26 58 86 48 5 5 5
91 96 100 100 95 100 100 98 70 89 12 99 10 0 97 100 100 100 100 100 100 100 100 100 100 100 100 100 100 100 100 100 100 86 100 100 100 100 95 22 5 11 34 50
89 94 100 100 100 100 100 98 100 100 96 98 11 2 0 100 100 100 100 100 100 100 100 100 100 100 100 100 100 100 100 100 100 93 96 100 88 82 56 75 83 39 57 29
98 73 100 100 100 100 100 100 100 100 98 92 88 5 5 92 100 100 100 100 100 100 100 75 97 100 100 100 100 100 100 100 100 100 100 100 61 58 82 59 64 88 93 90
78 11 100 85 100 76 99 92 86 97 100 100 94 99 83 100 100 100 100 100 100 100 100 100 90 67 92 100 100 100 100 100 100 100 94 100 94 81 100 100 88 100 100 100
100 100 100 100 100 100 99 78 100 100 100 100 100 95 100 100 100 100 100 100 100 100 100 100 100 98 64 90 100 48 36 74 99 99 89 97 100 100 100 100 100 95 22 5
94 100 100 94 55 100 52 96 99 100 100 86 92 100 100 100 100 100 100 100 100 100 100 100 100 100 100 100 100 95 98 100 100 82 58 100 100 95 100 84 72 45 6 0
97 38 100 99 48 98 50 76 82 100 100 100 100 100 100 99 99 100 100 100 100 100 100 100 100 100 100 100 100 100 100 100 78 100 97 72 76 100 100 100 100 100 90 100
6 25 100 71 100 100 100 43 100 100 88 100 100 100 100 100 100 100 100 28 66 100 100 100 100 100 100 100 100 100 100 100 99 76 5 4 100 100 100 100 100 100 100 100
79 90 52 32 28 34 46 73 97 10 29 87 71 100 100 100 100 100 100 100 100 100 99 100 100 100 100 100 100 100 100 100 79 38 17 100 100 100 100 100 100 100 100 100
8 7 26 38 46 44 16 5 70 100 52 5 86 100 100 100 100 100 100 89 94 100 100 100 100 98 100 100 58 63 72 100 100 100 100 100 100 100 100 100 100 100 100 100
6 92 12 5 9 13 44 47 64 55 79 93 6 87 100 90 97 85 18 52 100 100 100 100 100 100 97 100 100 100 95 100 100 100 100 100 100 100 100 100 100 100 100 100
82 100 62 79 5 7 100 36 97 70 85 86 100 100 100 66 100 100 100 100 100 100 100 100 100 100 100 100 100 100 87 100 100 100 100 100 100 100 100 100 100 84 58 98
95 100 94 82 88 72 70 15 33 100 100 100 100 100 100 100 100 100 100 100 100 100 100 100 100 92 98 68 51 23 51 100 100 100 100 95 100 100 100 98 25 44 4 5
15 98 100 99 100 96 66 41 100 98 77 59 100 100 100 100 100 100 100 100 100 99 75 31 84 26 78 57 20 78 100 100 100 100 100 99 83 54 64 87 66 11 8 42
46 69 100 87 77 89 100 81 99 100 94 100 100 100 100 100 100 100 100 100 100 100 95 70 14 10 34 28 92 100 100 100 100 100 57 95 100 100 100 100 55 35 5 16
92 44 67 51 100 10 55 100 90 100 100 100 100 100 100 100 100 100 100 100 100 100 100 100 100 100 78 100 100 100 100 100 94 75 10 91 100 100 100 100 100 10 5 5
52 100 60 94 100 100 100 100 52 35 91 98 100 100 100 100 98 100 100 100 100 100 100 81 44 61 99 100 100 100 99 92 14 5 4 5 84 100 100 100 54 11 65 62
100 98 100 100 79 98 100 95 37 11 6 70 62 75 94 76 80 78 99 99 86 88 60 70 94 100 100 100 100 100 97 13 5 0 5 15 83 98 54 62 37 61 65 85

GFSCGP_prec_cloud_072.txt.gz
Cloud_Cover
100 100 100 42 21 6 5 40 100 100 100 100 100 100 100 99 100 100 93 64 100 100 100 100 100 21 5 55 100 100 75 5 66 100 99 97 88 59 56 14 6 5 17 5
100 100 100 88 72 50 5 100 100 100 100 100 100 100 100 90 59 100 100 98 100 100 100 100 100 93 29 18 55 18 62 44 5 5 41 94 100 88 45 56 23 16 20 5
100 100 100 98 13 64 8 84 100 100 100 100 100 100 64 76 100 98 78 100 100 100 100 100 100 100 100 73 35 77 100 100 99 26 5 36 68 96 65 69 100 92 83 98
100 100 100 100 17 83 66 5 100 100 100 100 100 100 8 40 93 100 100 100 100 99 81 100 100 100 100 100 100 100 98 31 51 100 100 98 99 60 78 62 39 56 19 39
100 100 100 100 100 98 66 71 45 100 100 100 100 76 100 5 19 67 100 100 99 100 99 100 100 100 100 100 100 100 100 100 100 94 83 87 100 100 100 100 100 100 52 77
100 100 100 85 100 100 72 100 100 73 100 100 100 79 98 47 8 98 91 95 98 98 100 100 100 100 100 100 100 100 100 100 100 100 96 45 67 86 85 100 99 91 53 23
100 100 100 100 86 100 100 33 94 99 100 75 100 99 98 99 88 76 75 58 46 55 57 94 100 100 100 100 100 100 100 100 100 100 81 34 26 13 67 83 17 5 50 100
100 100 100 100 91 100 96 49 15 98 59 5 16 63 100 100 100 100 100 99 98 100 99 99 99 100 100 100 99 100 100 100 100 96 80 67 18 14 25 43 70 79 71 61
100 100 100 100 51 20 97 100 80 87 5 5 0 52 100 100 100 100 100 100 100 100 100 100 100 100 100 100 100 93 100 100 100 100 100 99 59 18 51 23 32 44 84 20
99 97 85 100 54 35 96 80 100 90 31 5 0 0 0 82 100 100 100 100 100 100 100 100 100 99 100 100 98 100 99 100 100 100 99 100 100 90 93 81 96 51 79 88
26 29 100 100 100 100 100 100 98 51 6 5 4 0 0 2 6 100 100 100 100 100 100 100 100 100 100 100 100 100 100 100 100 100 100 100 100 100 100 100 100 100 100 78
91 66 100 100 92 99 100 100 100 55 35 5 10 1 5 43 89 100 100 100 100 100 100 100 100 100 100 100 100 100 100 100 100 100 100 100 100 100 98 100 100 100 100 100
100 100 81 100 100 100 100 100 77 14 46 7 10 89 100 100 100 100 100 100 100 100 100 100 100 100 100 100 100 100 100 100 100 100 100 100 100 100 100 100 100 100 100 100
26 54 71 100 99 85 32 69 85 100 100 100 69 100 100 100 100 100 100 100 100 100 100 100 100 100 95 100 100 100 100 86 70 76 99 75 72 93 96 99 100 100 100 100
100 90 100 71 53 100 60 75 100 100 100 94 100 100 100 100 100 100 100 100 100 100 100 100 100 100 100 100 100 98 99 98 85 70 74 92 100 100 100 100 100 100 100 100
15 97 99 100 54 49 94 70 100 64 99 100 100 100 100 100 100 100 100 100 100 100 100 100 100 100 100 100 100 100 100 100 100 100 100 100 100 100 100 100 100 100 100 100
5 14 6 73 14 12 25 8 51 71 27 100 75 100 100 100 95 100 100 100 100 100 100 100 100 100 100 100 100 100 100 100 100 100 100 100 100 100 100 100 100 100 100 100
5 29 52 62 8 56 87 100 100 100 100 69 100 100 100 100 100 100 100 97 98 100 100 100 100 100 100 100 100 100 100 100 100 100 100 100 100 100 100 100 100 100 100 100
5 5 9 5 23 31 6 5 6 61 16 11 92 100 100 100 100 100 100 100 100 100 100 100 100 100 95 100 100 100 100 100 100 100 100 100 100 100 100 100 100 100 62 5
21 99 66 92 27 14 6 34 6 5 7 5 5 5 80 86 100 100 100 100 100 86 83 90 87 92 74 49 78 100 97 100 100 100 100 100 100 100 100 100 100 100 100 14
100 100 92 96 98 11 6 10 6 38 86 5 5 33 47 32 85 100 100 87 100 97 95 100 77 75 100 100 100 100 100 100 100 100 100 100 100 100 100 100 60 39 24 43
45 100 100 100 100 89 95 100 99 44 23 31 46 6 5 5 74 100 100 100 99 98 100 100 100 100 100 100 100 100 100 100 100 100 100 92 96 100 100 27 5 5 5 46
71 24 75 100 100 100 100 100 100 100 100 100 100 100 100 100 100 100 100 100 100 100 100 100 100 100 100 100 100 87 96 95 100 100 100 100 100 27 16 56 81 100 100 100
5 34 91 59 100 100 84 100 100 100 100 100 100 100 100 100 100 100 100 100 100 100 100 100 100 100 100 84 54 47 100 100 100 100 94 38 16 5 11 82 100 100 100 100
45 38 5 14 99 100 100 33 44 100 100 100 100 100 100 100 100 100 100 100 100 100 100 98 99 98 86 84 72 100 100 100 100 100 44 7 4 5 62 100 97 100 100 94
100 100 64 34 91 99 100 87 66 70 100 96 100 100 100 100 100 100 100 100 100 95 99 82 85 86 95 99 92 100 100 100 94 49 50 5 0 4 5 8 47 65 61 54

GFSCGP_prec_cloud_075.txt.gz
Cloud_Cover
100 89 100 100 100 6 4 2 5 100 100 100 100 100 100 100 100 86 94 100 100 100 100 100 100 100 100 100 100 100 86 71 24 5 5 69 100 100 100 99 39 20 5 5
100 100 100 100 100 58 5 0 5 99 100 100 100 100 100 100 100 100 75 37 84 95 88 100 100 100 100 100 80 58 57 15 52 99 100 100 100 100 100 100 100 100 100 89
100 95 87 100 98 98 5 4 5 100 100 100 100 100 100 100 100 100 13 5 79 100 100 100 100 100 100 100 100 100 99 84 76 93 100 100 100 100 100 100 100 100 100 95
100 100 61 100 100 95 10 3 5 16 100 100 100 100 100 100 100 94 99 59 46 90 100 100 100 100 100 100 100 100 100 100 96 56 36 80 100 100 100 100 100 100 100 100
100 83 100 100 100 98 57 12 5 7 100 100 100 100 100 100 82 100 99 100 95 55 100 100 90 93 100 100 100 100 100 100 100 100 100 93 75 61 95 76 63 97 83 98
100 96 73 28 100 100 100 32 71 87 98 100 100 100 100 100 100 100 100 100 100 56 80 100 100 91 100 100 100 100 100 100 100 100 100 100 100 100 100 100 100 100 92 10
100 100 99 100 97 100 100 93 100 100 99 100 100 100 100 100 100 100 83 100 47 44 16 23 98 100 100 99 99 100 100 100 100 100 100 100 100 100 100 100 100 100 100 89
100 100 100 96 91 100 67 95 73 33 55 85 100 100 100 100 100 75 40 58 54 0 20 89 54 77 76 41 33 100 100 100 100 100 100 100 100 100 100 94 80 100 100 100
100 100 100 100 100 37 55 95 69 88 16 12 2 3 86 100 100 100 81 42 6 5 7 40 100 100 98 100 100 65 59 83 95 100 99 99 100 100 100 91 95 94 95 97
100 100 100 100 92 77 77 64 94 84 75 84 2 0 28 100 100 100 100 100 92 36 89 100 99 46 29 43 60 97 70 56 29 46 83 99 100 100 100 100 100 100 100 100
100 16 96 87 100 100 100 100 86 68 5 20 5 0 0 100 100 100 100 100 100 100 86 18 44 97 69 79 78 85 100 93 71 85 95 100 100 100 100 100 100 100 100 100
100 100 100 100 99 85 98 82 100 85 64 61 9 1 5 1 1 4 97 100 100 99 84 94 70 100 100 100 100 80 85 100 97 100 100 100 100 100 100 99 81 44 78 96
43 87 99 100 100 100 100 100 99 99 90 62 83 7 100 28 5 5 5 99 97 100 100 100 100 100 100 100 100 100 100 99 100 89 69 63 81 74 28 35 30 84 66 50
100 100 100 100 97 88 100 100 93 100 100 33 12 58 96 100 96 72 97 75 33 100 100 100 100 100 100 100 99 100 100 100 74 77 98 79 90 81 95 100 100 100 93 79
99 100 100 81 89 60 100 100 82 100 100 90 100 85 100 100 100 100 100 100 94 100 100 100 100 100 100 100 100 100 100 100 100 100 100 100 100 100 100 100 100 100 100 100
70 99 5 100 57 5 13 72 68 100 100 100 100 100 100 100 100 100 100 100 100 100 100 100 100 100 100 100 100 100 100 100 100 100 100 100 100 100 100 100 100 100 100 100
18 52 13 24 68 100 62 58 69 100 86 100 100 100 100 100 100 100 99 100 100 100 100 100 100 100 100 100 100 100 100 100 100 100 100 100 100 100 100 100 100 100 100 100
16 7 8 81 6 76 100 99 28 87 46 71 100 100 100 100 100 100 98 100 100 100 100 100 100 100 100 100 100 100 100 100 100 100 100 100 100 100 100 100 100 100 100 100
19 78 90 79 74 3 10 46 5 27 99 18 52 100 76 100 100 74 100 98 77 98 100 100 100 100 100 100 100 100 100 100 100 100 100 100 100 100 100 100 100 100 100 100
58 96 89 60 74 14 5 5 1 5 6 69 50 17 79 98 100 100 49 100 100 100 90 82 99 100 100 100 100 100 100 100 100 100 100 100 100 100 100 100 100 100 100 79
100 100 88 99 100 25 5 4 5 5 5 5 5 5 21 24 100 100 100 77 100 100 100 100 100 100 100 100 99 100 100 100 100 100 100 100 100 100 100 100 100 100 72 78
19 97 100 97 100 54 3 5 5 5 5 5 5 5 87 35 77 92 94 100 100 100 100 100 96 78 81 96 91 81 79 60 85 100 100 100 100 100 100 98 24 8 23 12
5 20 9 11 41 39 5 5 5 10 8 72 98 99 100 95 83 87 100 98 100 92 100 100 100 98 93 80 100 100 100 96 98 100 100 100 100 100 100 13 42 39 5 5
5 3 8 7 79 7 6 5 5 5 8 47 100 100 100 100 100 85 100 100 100 100 100 100 100 100 100 100 100 100 100 100 100 100 100 100 100 81 83 82 35 5 65 62
4 5 5 18 29 23 54 7 9 5 23 96 100 100 100 99 99 100 100 100 100 100 100 100 100 100 100 100 100 100 100 100 100 100 100 100 72 99 84 45 5 5 5 5
100 81 5 5 5 66 74 98 100 72 35 100 100 99 100 100 100 97 100 100 100 100 100 100 100 100 100 100 100 75 100 100 100 100 100 92 83 100 80 53 5 1 5 5

GFSCGP_prec_cloud_078.txt.gz
Cloud_Cover
100 99 95 89 100 100 100 94 6 5 81 81 100 100 100 100 100 100 93 100 100 100 100 100 100 100 83 23 5 53 70 89 100 100 100 100 100 81 100 100 100 100 100 100
100 100 98 100 100 100 100 100 2 5 38 96 100 100 100 100 100 100 100 99 100 100 100 92 100 100 100 100 100 100 100 100 100 100 100 100 91 92 100 86 37 44 60 73
100 99 100 90 100 100 100 99 6 25 94 100 96 55 100 100 100 100 100 96 59 100 100 99 98 100 100 100 100 100 100 100 100 91 81 97 100 100 100 56 33 19 39 66
100 100 100 81 100 100 100 100 4 56 100 99 100 82 100 100 100 100 100 55 99 100 100 100 100 100 100 100 100 100 100 100 100 100 100 100 100 100 100 98 78 63 72 84
100 100 100 100 100 100 100 99 9 5 83 42 100 100 100 100 100 100 100 100 100 100 100 100 100 100 100 100 100 100 100 100 100 100 100 100 100 100 100 100 100 100 100 100
100 100 82 100 97 99 100 99 11 5 5 73 5 100 100 100 100 100 100 100 100 100 100 93 81 36 100 100 100 100 100 100 100 100 100 100 100 100 100 100 100 100 100 100
100 95 95 80 99 62 99 100 76 60 99 79 5 76 100 100 100 100 100 100 100 100 93 97 27 88 6 76 100 100 100 100 100 100 100 100 100 100 93 100 100 100 94 93
98 100 100 100 100 100 100 100 70 13 44 5 2 22 100 100 100 100 100 100 100 100 90 76 100 98 55 6 32 98 100 100 100 100 100 100 100 100 100 100 100 100 100 100
100 81 100 100 100 72 68 82 100 100 99 72 3 1 100 100 100 100 100 100 100 100 76 24 5 53 90 63 5 56 96 57 39 64 84 98 100 100 100 100 100 100 100 100
100 93 100 92 100 47 59 31 42 76 92 55 6 85 99 100 100 100 100 100 100 100 100 100 99 5 5 5 10 5 5 6 10 28 43 69 92 100 100 100 100 100 100 100
100 100 100 100 99 100 100 100 73 58 90 38 7 9 80 42 100 100 100 100 100 100 100 100 100 26 11 5 5 5 4 5 18 86 100 100 100 100 100 100 100 100 100 100
100 100 100 100 100 95 100 95 65 92 82 72 36 5 4 2 0 58 100 100 100 100 100 100 100 99 20 42 41 5 5 3 5 15 74 100 100 100 100 100 100 100 100 100
100 100 100 88 59 96 100 100 100 100 100 100 100 50 59 100 40 5 87 100 100 100 100 100 84 36 80 50 100 93 46 11 5 8 5 64 44 26 63 81 86 100 99 100
100 77 96 100 100 90 75 47 36 98 100 64 12 5 47 61 10 34 5 16 23 100 100 100 100 98 100 100 100 100 96 98 96 100 100 90 53 79 94 100 78 97 100 100
96 100 100 100 100 96 62 96 99 98 86 99 82 54 100 100 100 18 67 98 87 5 5 5 5 92 100 100 100 100 100 100 100 99 95 94 92 100 100 100 100 100 100 100
100 100 96 100 100 100 100 100 54 100 100 83 100 100 100 100 80 6 68 98 95 97 19 5 5 98 100 100 100 100 100 100 100 100 100 100 100 100 100 100 100 100 100 100
90 99 100 100 100 100 90 100 100 100 100 82 100 100 100 100 81 38 77 74 100 90 72 100 93 100 100 100 100 57 88 100 100 100 100 100 100 100 100 100 100 100 100 100
81 83 100 95 86 60 100 100 48 80 90 100 100 100 100 35 38 67 100 100 100 100 100 100 100 100 100 100 100 100 99 96 88 99 100 100 100 100 100 100 100 100 100 100
100 89 100 97 82 4 72 100 95 59 98 9 82 100 100 100 100 100 100 95 48 73 93 100 100 100 100 99 100 100 100 100 100 100 100 100 100 100 100 100 100 100 100 100
100 99 99 96 100 50 5 3 0 5 4 5 37 33 48 100 100 100 94 100 100 100 100 100 100 100 100 100 100 98 100 100 100 100 100 100 100 100 100 100 100 100 100 100
100 100 97 100 100 34 14 4 5 5 5 5 5 5 13 28 8 5 80 100 100 100 100 100 100 100 100 100 100 100 100 100 100 100 100 100 100 100 100 100 100 100 100 96
100 60 90 100 100 89 21 5 4 2 5 5 5 5 5 5 5 5 12 7 14 100 100 100 100 100 100 100 100 100 100 100 100 100 100 100 100 100 100 100 100 100 100 99
100 100 98 31 18 75 48 80 28 5 5 5 5 51 45 5 5 24 86 6 5 5 81 100 100 100 100 78 19 100 100 100 100 100 100 100 100 100 100 100 100 100 100 97
58 96 94 68 66 12 88 73 17 5 5 20 97 88 96 68 61 71 99 56 18 65 86 100 100 76 100 90 100 100 100 100 88 74 100 100 100 100 100 100 100 100 78 20
66 84 84 29 98 25 7 7 62 71 15 29 35 99 100 100 100 100 100 100 99 96 93 95 88 90 100 94 100 100 100 100 100 100 100 100 100 100 100 100 100 81 91 55
100 100 44 6 18 5 5 62 100 99 65 53 42 78 99 100 100 100 100 100 100 100 100 100 100 100 100 100 99 100 100 100 100 100 100 100 100 100 100 100 100 100 69 40

GFSCGP_prec_cloud_081.txt.gz
Cloud_Cover
100 78 93 100 71 94 39 100 55 100 100 8 1 5 12 23 63 100 100 100 100 100 100 100 100 100 98 100 100 100 97 100 100 100 100 100 100 100 100 100 97 82 100 100
100 100 74 100 100 77 100 100 100 100 78 52 5 5 98 88 98 100 100 100 100 100 100 100 100 100 100 98 100 100 91 80 100 100 100 100 100 100 100 100 100 100 100 100
100 100 80 99 100 95 88 100 100 100 98 100 87 19 95 100 95 100 100 100 100 100 100 100 100 100 100 100 100 100 97 54 69 91 100 100 100 100 100 100 100 100 100 100
99 100 30 23 100 100 100 100 99 88 43 62 72 51 95 100 100 51 100 100 100 100 100 100 100 100 100 100 100 100 100 73 96 79 89 100 100 100 100 100 100 100 100 100
100 100 50 100 100 84 97 100 92 51 5 5 34 84 95 99 88 87 100 100 100 100 100 100 100 100 100 100 100 100 100 100 100 100 100 100 100 100 100 100 100 100 100 100
100 100 100 100 87 100 96 82 46 18 5 22 4 18 2 95 100 100 100 100 100 100 100 100 100 100 100 100 100 100 100 100 100 100 99 100 100 100 100 100 100 100 100 100
100 100 100 100 98 100 86 100 74 66 79 40 3 4 0 34 75 100 100 100 100 100 100 87 94 100 100 100 100 100 100 79 57 87 83 100 100 100 100 100 100 100 100 100
100 100 100 100 57 100 100 100 100 49 49 11 5 5 0 59 99 100 100 100 100 100 100 100 100 100 100 100 100 100 100 100 100 100 71 90 98 100 100 100 100 100 100 81
72 83 100 94 100 100 100 100 60 100 100 100 17 2 1 36 100 100 100 100 100 100 100 100 100 100 97 97 77 79 96 100 100 100 100 100 100 100 100 100 100 100 100 100
26 67 100 100 100 100 80 99 69 86 92 99 78 43 31 4 100 100 100 100 100 100 100 100 100 100 99 41 6 5 5 53 98 100 100 100 100 100 100 100 100 100 100 100
100 55 98 100 99 100 100 100 100 100 96 6 20 75 100 98 75 100 100 100 100 100 100 100 100 100 100 100 85 75 26 9 95 100 64 76 100 100 100 100 100 100 100 100
100 96 100 94 87 100 100 89 98 100 59 25 5 64 100 21 15 13 67 100 100 100 100 100 100 100 100 100 92 24 14 3 5 17 93 83 72 92 100 100 100 100 100 100
100 100 100 100 69 93 87 69 99 92 96 58 88 87 100 100 100 99 3 10 100 100 100 100 100 100 100 100 100 63 17 11 5 5 5 5 5 5 10 51 99 96 100 97
86 85 100 100 100 99 94 56 60 100 93 79 9 97 100 100 100 82 5 5 57 100 100 100 100 64 20 97 42 54 6 5 77 90 9 5 77 31 15 61 71 80 22 11
100 100 99 100 100 100 86 36 15 78 89 78 93 44 100 100 100 11 5 4 1 15 100 100 100 85 27 53 58 10 37 35 24 100 95 23 90 100 99 100 100 100 100 100
100 100 100 100 99 92 98 72 92 65 17 7 27 91 100 100 88 20 4 5 5 1 0 3 5 18 68 57 7 37 56 5 23 68 53 57 93 100 100 100 100 100 100 100
99 100 100 100 100 98 96 100 99 12 98 68 85 100 100 100 100 100 97 5 0 0 5 6 5 5 5 29 100 98 99 92 77 41 37 51 81 99 100 100 100 100 100 100
100 100 100 99 99 94 99 100 81 85 100 8 82 100 100 100 100 99 92 98 4 15 5 5 5 12 64 75 100 100 92 99 97 59 71 31 74 97 100 100 100 100 100 100
100 100 100 98 100 84 100 100 100 97 100 96 98 100 100 88 53 96 99 20 5 100 32 86 98 55 93 98 99 100 100 100 100 98 98 98 100 100 100 100 100 100 100 100
100 100 100 100 71 62 100 100 82 5 32 98 100 93 83 100 100 100 100 41 45 90 55 100 100 100 100 72 88 100 100 100 100 100 100 100 100 100 100 100 100 100 100 100
100 100 89 98 100 22 98 96 5 4 2 5 5 41 5 71 100 79 53 92 99 100 73 100 56 100 100 100 100 100 100 100 100 100 100 100 100 100 100 100 100 100 100 100
100 100 83 95 100 95 100 11 5 2 5 5 5 5 5 5 30 13 20 20 85 18 100 22 37 100 100 100 100 100 100 100 100 100 100 100 100 100 100 100 100 100 100 100
100 100 82 6 84 100 97 49 5 5 5 5 5 22 5 10 5 5 5 5 5 10 7 6 8 68 100 100 100 100 100 100 100 100 100 100 100 100 100 100 100 100 100 100
100 100 88 24 28 25 64 24 14 5 5 5 71 99 100 81 72 100 100 77 24 29 54 95 96 100 100 100 100 93 93 99 98 83 99 100 100 100 100 100 100 100 100 100
100 92 89 100 100 35 42 32 99 99 78 86 10 39 58 95 94 82 100 94 95 100 100 100 100 82 100 88 100 100 95 93 78 99 95 100 100 100 100 100 100 100 100 100
5 38 57 100 92 96 7 89 100 70 24 81 82 71 38 79 100 100 100 100 100 100 100 100 100 100 94 100 100 100 100 100 100 100 100 100 100 100 100 100 100 100 100 100

GFSCGP_prec_cloud_084.txt.gz
Cloud_Cover
100 100 83 100 100 70 99 100 99 99 100 22 5 5 4 0 0 0 40 78 100 100 100 100 100 100 100 98 61 100 100 100 100 100 100 100 100 100 100 100 84 84 75 66
100 100 89 100 100 100 99 96 100 100 100 100 26 5 0 0 0 0 1 76 45 100 100 100 100 100 100 100 100 100 100 100 100 100 100 100 100 100 100 100 100 100 100 100
100 100 13 33 100 100 100 100 100 100 99 95 7 5 4 1 0 0 1 5 85 100 100 100 100 100 100 100 100 100 100 100 100 100 100 100 100 100 100 100 100 100 100 100
77 80 35 5 96 77 100 100 100 100 40 66 5 14 5 2 0 0 90 70 40 90 100 100 100 100 100 100 100 100 100 100 100 100 100 100 100 100 100 100 100 100 100 100
97 68 39 100 100 83 62 96 98 80 74 68 32 86 5 0 0 6 39 98 62 72 72 100 100 100 100 100 100 100 92 100 100 100 100 100 100 98 98 97 100 100 100 100
100 99 92 22 27 92 12 25 17 5 66 83 56 74 5 5 0 4 82 62 69 100 99 100 100 99 100 95 99 100 100 100 99 100 100 100 100 100 100 100 100 100 100 100
100 93 42 12 7 9 14 75 99 92 93 25 8 5 5 5 0 4 88 97 5 100 100 100 100 100 100 100 100 100 100 100 100 100 100 100 100 100 100 100 100 100 100 100
100 100 83 6 40 74 100 93 100 98 93 56 69 2 92 3 0 0 38 19 26 94 100 100 100 100 100 100 100 100 100 100 98 100 100 98 100 100 88 100 98 100 100 100
100 96 100 100 100 100 87 86 20 100 86 44 5 21 100 0 0 0 3 4 3 9 91 100 91 100 100 100 100 100 100 100 100 100 100 100 100 92 98 91 72 83 81 100
100 95 100 100 100 75 88 100 100 86 49 50 34 22 100 22 0 0 0 29 98 58 93 94 100 100 100 100 100 100 100 100 96 100 100 100 100 100 100 96 96 69 93 100
100 100 100 100 100 100 100 100 93 100 96 100 100 98 100 100 45 0 0 0 87 100 100 100 100 100 100 100 100 100 100 100 100 100 99 90 100 100 100 100 100 100 100 100
100 100 100 100 100 98 100 100 100 100 100 100 99 100 100 96 77 22 0 5 22 100 100 100 100 100 100 100 100 100 100 100 97 71 89 94 47 98 90 100 100 100 100 100
100 100 100 100 84 96 100 100 100 100 100 100 70 80 100 100 92 92 9 0 35 100 100 99 100 100 100 100 100 100 100 100 89 92 70 6 5 5 10 41 68 70 94 100
100 100 100 100 100 100 77 100 100 97 83 100 100 100 100 100 100 94 5 4 4 52 100 100 92 57 96 100 100 100 100 88 100 98 83 40 49 5 4 2 7 11 17 23
100 100 100 100 100 100 100 100 92 80 62 83 100 100 100 100 100 7 8 5 5 5 7 71 100 100 100 100 99 98 100 100 100 59 100 100 100 100 10 38 57 52 94 100
100 100 100 100 100 100 100 88 22 5 86 22 60 100 100 100 100 83 11 5 0 3 5 3 0 19 91 51 100 100 95 52 97 100 100 100 100 100 92 100 96 100 100 100
100 100 100 100 100 100 99 100 100 82 41 26 19 96 97 99 99 52 8 5 12 5 0 0 0 0 0 0 6 55 84 29 13 21 12 23 5 66 77 75 84 100 100 100
100 100 100 100 100 89 91 100 59 66 100 34 5 86 82 4 16 99 50 5 5 3 0 4 0 0 2 4 25 79 58 64 33 5 44 95 100 88 91 100 100 100 100 100
100 96 100 100 100 26 100 100 93 90 100 5 5 97 100 34 6 99 34 81 5 45 5 0 3 14 5 35 24 90 100 97 100 68 70 83 100 98 100 100 100 100 100 100
100 100 100 100 100 84 100 100 100 5 100 6 56 100 100 100 100 92 75 100 84 4 6 5 80 44 100 14 30 77 45 98 100 100 100 100 95 98 100 100 100 100 100 100
100 100 100 100 100 69 100 100 76 23 95 100 100 100 100 74 76 13 31 100 100 100 41 81 99 85 14 81 100 88 95 86 100 98 98 99 100 100 99 100 100 100 100 100
100 100 100 100 100 98 100 100 5 4 5 5 5 6 41 98 66 46 16 28 92 100 100 79 94 6 60 23 10 97 99 97 78 99 99 100 100 100 100 100 100 100 100 100
98 76 96 58 41 93 100 96 5 5 5 36 78 26 5 5 5 5 5 7 50 100 43 94 45 100 75 5 20 100 100 100 100 100 100 100 100 100 100 100 100 100 100 100
100 100 99 99 100 84 100 99 7 16 90 6 5 5 88 97 34 5 5 5 12 84 81 63 13 12 34 71 63 97 97 100 100 97 100 100 100 100 100 100 100 100 100 100
100 100 97 90 100 45 74 70 74 70 83 17 5 5 5 5 22 76 24 5 5 47 60 47 96 88 59 87 64 88 98 92 97 96 97 100 100 100 100 100 100 100 100 100
73 100 83 100 100 28 95 40 12 66 92 100 99 100 64 5 16 41 6 53 98 44 37 73 94 100 100 100 100 100 100 85 96 99 100 98 100 100 100 100 100 100 100 100

GFSCGP_prec_cloud_087.txt.gz
Cloud_Cover
100 75 73 84 100 100 100 98 100 98 100 26 6 94 100 32 68 5 0 0 0 1 100 100 100 100 100 100 100 100 90 31 19 100 100 100 100 100 100 100 100 100 100 100
100 100 100 98 97 96 100 96 98 78 100 66 6 5 100 95 14 5 0 0 0 5 1 100 100 100 100 100 100 100 100 90 98 74 100 100 100 100 100 100 100 100 100 100
100 84 73 97 70 71 100 100 100 94 98 93 86 8 52 87 98 46 0 0 0 0 26 21 100 100 100 100 100 100 100 100 98 100 100 100 94 100 100 100 100 100 100 100
33 6 53 13 79 99 100 100 99 84 100 100 66 77 97 87 37 11 5 0 0 0 0 5 10 100 100 100 100 100 100 100 100 100 100 100 100 100 100 100 100 100 100 100
85 100 27 69 81 62 100 100 99 100 100 99 84 76 100 92 94 83 5 0 0 0 0 17 2 5 100 100 100 100 78 100 100 100 100 100 100 100 100 100 100 100 100 100
72 51 35 97 71 76 100 100 100 100 100 95 66 94 32 8 10 5 5 0 0 0 1 45 22 5 40 100 100 100 98 92 98 100 100 100 100 100 100 100 100 100 100 100
98 94 86 100 91 49 100 95 100 100 99 40 98 35 24 39 6 28 5 5 0 0 3 8 88 16 16 96 100 100 100 100 80 100 100 100 100 100 100 100 100 100 100 100
78 100 63 100 74 95 100 100 97 89 94 95 100 96 100 100 16 5 4 0 0 0 0 7 83 88 85 99 100 100 100 100 97 100 100 100 100 100 100 100 100 100 100 100
99 100 36 51 92 100 100 98 92 80 9 22 65 5 19 99 97 6 5 0 0 0 6 25 97 90 93 89 100 100 100 100 100 100 100 100 100 100 100 100 100 100 100 100
100 100 100 93 100 93 100 98 72 15 20 64 91 87 100 100 100 67 5 1 0 0 23 100 100 100 100 100 99 95 100 100 100 100 100 100 100 100 100 100 100 100 100 100
100 96 99 100 92 100 100 100 100 100 94 87 100 95 100 100 100 42 9 4 0 0 2 19 100 29 100 100 100 100 100 100 100 100 100 100 100 100 100 100 100 100 100 100
100 100 100 100 100 100 100 100 100 100 100 100 100 100 100 100 100 97 60 3 0 0 0 0 97 97 90 100 100 100 64 94 100 100 100 100 100 100 100 100 100 100 100 100
59 100 100 100 100 100 100 100 100 100 100 100 100 100 100 100 100 100 44 5 0 0 0 12 95 100 12 98 100 100 100 100 100 100 100 100 100 100 100 96 94 95 88 91
100 72 100 100 100 100 100 100 100 100 100 100 100 100 100 100 100 100 36 4 1 0 0 30 100 100 100 93 26 100 82 100 100 100 100 100 100 100 100 99 100 98 100 100
100 100 100 100 100 100 100 100 100 85 100 100 100 100 100 100 100 75 8 3 0 0 0 2 7 96 100 100 100 100 100 76 100 100 100 100 100 100 100 100 100 100 96 14
100 100 100 100 100 100 100 100 100 100 100 100 100 100 100 100 100 100 29 5 6 4 5 5 5 5 5 83 100 100 100 100 93 100 55 35 100 100 100 100 99 100 61 35
100 100 100 100 100 100 100 100 90 92 83 99 86 100 100 99 100 100 100 69 6 5 2 0 3 6 5 2 0 55 85 87 36 83 100 36 7 8 89 95 100 100 71 89
100 100 100 100 100 100 36 93 100 40 38 80 13 100 100 38 45 99 100 100 92 5 5 0 0 0 3 3 5 0 0 0 0 1 3 5 5 4 52 95 100 86 100 100
100 100 100 100 100 90 12 100 96 97 97 59 5 20 50 69 85 6 5 5 9 5 5 3 5 5 0 0 0 0 0 0 1 4 5 5 5 11 100 100 100 99 100 100
100 100 100 100 100 99 97 100 100 95 96 6 8 6 5 16 16 5 3 0 3 4 5 5 2 5 0 0 5 36 100 21 27 5 9 28 5 8 90 100 100 91 100 100
100 100 100 100 100 41 98 100 85 100 51 76 99 100 41 7 20 100 96 100 100 69 10 20 53 23 0 3 5 26 100 100 100 10 26 10 32 82 100 100 100 100 100 100
93 100 100 100 100 94 99 100 66 72 100 100 25 87 100 100 100 100 100 100 100 100 48 12 22 92 5 5 17 90 15 99 60 100 80 43 100 100 100 100 100 100 100 100
98 83 90 100 99 100 94 100 100 56 100 100 81 100 100 100 100 100 96 99 31 22 24 100 100 90 99 59 26 25 37 8 5 94 100 100 100 100 100 100 100 100 100 100
69 97 94 79 96 100 88 93 36 48 5 32 77 37 5 5 87 8 5 5 15 14 5 5 19 84 83 100 86 100 82 8 35 85 100 100 100 100 100 100 100 100 100 100
6 34 50 69 88 95 100 85 49 12 5 5 5 17 7 5 5 13 41 5 5 5 5 28 18 5 67 87 63 61 58 70 69 30 64 99 100 100 100 100 100 100 100 100
1 1 5 54 100 100 96 94 100 79 49 8 41 78 38 5 5 5 6 35 89 85 12 9 28 52 65 52 44 88 99 100 86 67 93 100 100 100 100 100 100 100 100 100

GFSCGP_prec_cloud_090.txt.gz
Cloud_Cover
5 63 9 5 11 99 100 100 100 100 100 100 99 99 38 66 7 62 81 5 0 0 51 100 100 100 100 100 100 100 100 100 100 5 4 60 100 100 100 100 100 100 100 100
98 61 35 100 98 99 59 100 93 100 100 100 86 34 35 30 79 98 100 44 5 5 1 0 87 100 100 99 95 98 98 100 95 99 79 6 76 96 100 100 100 100 100 100
69 83 17 11 72 91 5 61 100 66 100 96 99 100 50 4 2 6 62 100 22 5 2 2 1 13 100 100 86 100 98 100 100 100 55 58 94 100 100 100 100 100 100 100
28 72 8 48 86 97 84 100 28 56 10 7 10 9 2 58 0 0 33 100 100 48 5 0 0 0 1 100 100 100 99 57 100 99 98 100 100 100 100 100 100 100 100 100
61 7 76 92 68 56 100 99 100 93 67 73 60 77 5 2 2 0 2 7 74 70 6 2 0 0 0 0 90 100 95 94 29 100 100 77 100 100 100 100 100 100 100 100
59 8 5 42 99 70 83 93 100 90 100 35 27 51 0 1 3 1 0 21 97 96 57 18 0 0 0 0 0 56 100 97 69 100 100 100 100 100 100 100 100 100 100 100
22 5 5 16 25 79 32 100 100 69 67 12 81 7 0 73 2 5 4 0 4 33 53 75 0 0 0 0 0 0 6 100 100 100 94 100 100 100 100 100 100 100 100 100
5 82 5 5 14 65 80 73 100 100 55 64 91 10 94 100 76 6 65 18 10 5 9 51 4 0 0 0 0 24 16 5 85 100 100 99 100 95 100 100 100 100 100 100
38 35 5 93 100 83 100 78 100 100 100 100 100 100 100 100 100 95 94 100 100 100 49 43 6 0 0 3 5 93 100 68 100 99 100 100 100 91 100 100 100 100 100 100
89 94 24 92 33 97 100 100 100 98 100 43 100 100 100 100 100 100 50 98 94 31 2 3 5 0 0 1 30 100 100 98 100 99 100 100 100 100 100 100 100 100 100 100
97 100 90 100 53 100 100 100 100 100 100 70 34 80 99 100 100 100 100 28 23 10 5 11 6 0 1 56 48 52 100 100 100 100 100 100 100 100 100 100 99 87 100 100
97 100 100 100 100 100 100 100 100 100 100 81 62 4 60 12 100 100 100 66 9 5 28 67 5 0 4 28 100 99 100 100 100 100 100 100 100 100 100 100 100 100 100 91
85 100 100 100 100 100 92 100 100 100 100 30 88 35 100 85 100 100 100 100 86 88 23 5 1 0 0 13 80 12 91 100 100 100 100 97 100 100 100 100 100 100 100 100
100 100 100 100 100 100 100 100 100 100 100 100 100 100 100 100 100 100 95 100 94 12 69 45 0 0 28 95 100 100 94 100 100 100 100 100 100 100 100 100 100 100 100 100
100 100 99 100 100 100 100 100 100 100 100 94 100 100 100 100 100 100 100 100 14 100 95 100 32 0 0 5 100 100 100 100 100 100 100 92 97 100 100 100 100 100 100 100
100 100 100 100 100 100 100 100 100 100 100 100 100 100 100 100 100 100 100 99 87 100 100 84 3 5 0 0 0 78 99 65 83 100 100 100 100 100 100 100 100 100 100 100
99 85 100 100 100 100 100 100 100 100 100 100 100 100 100 100 100 100 100 100 100 100 99 20 5 5 5 5 5 5 6 61 98 100 100 100 99 100 100 100 22 19 97 100
48 87 100 100 100 100 100 100 100 100 100 100 86 100 100 100 100 100 100 100 100 95 77 33 5 62 41 4 5 5 14 5 5 5 12 14 15 12 8 32 69 100 16 31
85 91 100 100 100 100 100 100 100 100 100 100 100 100 100 100 100 100 89 100 76 90 100 89 22 5 1 5 5 2 2 1 4 1 0 0 0 4 4 0 70 97 96 100
100 100 100 100 100 100 100 100 100 89 100 20 5 6 5 5 51 54 35 36 16 22 14 12 55 8 5 5 5 5 5 7 34 6 5 5 5 5 4 35 100 100 79 100
100 100 100 100 100 100 71 100 100 72 35 100 97 7 5 5 7 10 34 10 5 5 2 2 1 4 4 5 5 5 5 5 5 5 5 14 81 91 10 98 100 100 65 100
79 80 74 87 100 100 100 99 83 75 93 100 69 30 82 99 100 100 10 33 18 47 84 35 74 52 76 20 5 6 5 5 5 5 35 91 32 97 100 98 100 100 100 100
46 86 88 90 99 100 100 100 97 72 91 100 100 78 100 100 100 100 100 97 98 98 100 100 100 100 100 100 42 6 46 58 9 78 27 36 13 98 100 100 100 100 100 100
4 29 67 20 99 100 100 27 27 43 92 100 100 100 100 100 100 100 100 100 100 100 100 92 84 83 89 100 100 100 100 73 81 9 49 5 93 100 100 100 100 100 100 100
0 2 4 15 22 82 87 78 61 88 12 91 100 100 100 100 100 54 71 84 17 5 5 5 10 5 5 5 34 96 100 100 99 100 100 94 46 100 100 100 100 100 100 100
2 3 2 6 51 49 99 94 70 100 98 100 100 93 72 51 37 70 93 63 42 100 65 30 8 12 5 5 5 5 10 80 100 100 100 93 76 98 100 100 100 100 100 100

GFSCGP_prec_cloud_093.txt.gz
Cloud_Cover
4 5 5 5 100 79 100 100 100 100 100 100 100 100 100 87 5 4 5 5 26 50 100 100 100 100 100 100 100 100 100 100 100 100 100 100 76 100 100 100 100 100 100 100
1 1 4 5 5 28 100 100 100 100 100 100 100 100 100 100 8 4 11 5 4 90 66 98 100 100 100 100 100 100 99 100 100 100 100 100 100 100 91 99 100 100 100 100
5 17 5 5 5 5 100 100 100 100 100 100 100 80 100 96 59 72 3 39 29 54 67 21 74 100 100 100 100 100 100 100 100 100 100 100 80 100 93 98 100 100 100 100
5 11 44 5 5 17 92 100 99 100 93 100 82 63 8 99 23 99 86 4 4 2 0 92 100 72 100 100 100 100 100 100 85 90 96 100 100 97 81 100 100 100 100 100
12 5 5 5 7 96 80 68 100 86 100 91 100 91 10 5 10 18 0 5 4 4 0 52 100 100 12 2 40 96 100 100 98 100 99 41 39 87 100 100 100 100 100 100
6 7 5 8 66 50 36 92 60 100 100 78 94 56 74 3 4 50 4 0 5 10 2 16 86 100 100 37 5 0 0 31 99 97 98 37 28 71 100 100 100 100 100 100
5 5 5 5 11 55 99 100 99 99 100 74 52 21 5 88 5 5 5 4 0 4 0 0 2 43 100 100 100 29 0 0 0 17 94 78 33 63 72 100 100 100 100 100
15 5 5 5 3 80 93 100 100 96 44 78 100 63 94 100 23 2 5 6 5 0 0 0 1 5 100 100 100 83 5 0 0 0 0 37 100 28 99 100 100 73 100 100
47 12 21 46 99 39 100 90 98 79 100 86 10 19 7 5 23 2 0 0 5 0 0 0 0 46 94 99 100 99 60 0 0 0 0 33 44 66 100 100 60 97 100 100
10 55 80 100 100 53 84 100 100 98 100 100 100 100 57 14 7 23 4 10 62 4 4 33 4 1 4 54 18 40 5 11 14 13 10 57 97 100 88 100 96 100 100 100
71 76 93 95 30 22 100 100 100 100 100 100 97 99 100 82 5 77 100 100 100 93 16 22 91 97 64 69 55 7 4 76 100 65 95 100 100 100 100 92 100 97 100 100
99 100 100 100 100 100 100 100 100 100 100 90 96 100 100 100 99 100 100 100 100 86 7 96 17 31 100 100 94 1 0 33 100 100 35 91 100 100 96 99 84 100 100 100
87 100 99 100 100 100 100 100 100 100 97 6 98 100 100 100 100 100 100 100 100 91 40 10 5 5 77 94 52 1 0 0 5 96 19 100 100 100 100 100 100 99 100 100
98 100 100 100 100 100 100 100 100 100 100 94 7 82 84 47 75 71 100 64 5 67 48 5 5 5 15 80 93 1 0 2 76 5 100 100 93 100 100 100 100 91 87 96
42 99 100 100 100 100 100 100 100 100 100 91 97 100 100 98 99 27 73 88 3 5 6 40 42 59 100 100 99 1 9 10 58 100 100 65 100 100 100 100 100 100 100 100
100 99 100 100 99 93 100 100 100 100 100 100 100 100 100 100 100 91 97 39 5 5 91 91 100 100 100 100 90 1 0 1 95 100 100 100 100 100 100 100 100 100 100 100
30 76 84 100 100 100 100 100 100 100 100 100 97 100 100 100 100 100 100 100 94 27 100 100 83 100 100 100 96 5 0 0 0 7 94 100 100 100 100 100 100 100 100 100
5 73 88 100 100 100 100 100 100 100 100 100 72 100 100 100 100 100 100 100 100 64 88 100 100 100 100 100 100 30 5 5 0 4 1 2 18 26 78 100 100 100 100 100
8 33 76 100 100 100 100 100 100 100 98 100 100 100 100 100 100 100 100 100 100 100 100 100 100 100 84 96 98 46 12 5 5 5 4 5 5 5 4 2 5 68 100 96
78 96 99 91 97 100 100 100 100 100 100 100 100 100 78 99 100 100 100 99 100 100 100 100 100 99 66 38 99 55 17 5 5 5 5 5 9 91 44 23 42 58 100 100
97 93 92 94 82 100 97 80 73 96 98 51 100 100 100 100 100 100 100 53 22 80 97 93 78 91 94 100 35 57 82 70 22 69 81 87 100 91 17 100 69 100 100 74
100 100 96 99 100 100 100 100 83 20 100 100 100 100 100 76 89 40 47 38 18 6 5 5 5 5 5 8 5 8 25 30 54 66 89 57 12 5 26 29 94 100 100 99
68 26 82 100 99 52 64 100 100 94 100 100 100 100 100 96 64 53 99 98 72 81 38 34 33 44 46 85 61 100 100 29 8 64 16 84 62 68 14 40 100 100 100 100
5 5 5 4 27 70 100 100 100 100 100 100 100 100 100 100 100 100 100 100 100 100 100 100 100 100 100 100 100 100 100 100 100 95 89 70 56 59 76 100 100 100 100 100
1 4 2 4 10 7 34 98 100 92 94 100 100 100 100 100 100 100 100 100 100 100 100 100 100 100 100 100 75 71 84 100 100 100 100 100 100 100 100 100 100 100 91 84
0 4 2 5 4 24 51 56 98 99 100 82 97 100 100 100 100 100 100 99 79 100 100 89 63 52 29 5 5 5 11 20 12 41 100 100 100 100 100 100 100 99 92 100

GFSCGP_prec_cloud_096.txt.gz
Cloud_Cover
4 5 5 5 5 79 100 100 100 100 100 100 100 100 100 89 100 74 5 6 100 100 99 25 92 97 100 100 94 100 100 100 100 100 100 100 100 100 100 100 100 100 100 100
2 2 5 3 4 2 16 100 100 100 100 100 100 100 100 100 89 100 32 5 4 70 100 100 100 100 100 100 100 100 100 100 100 100 100 100 100 94 100 100 100 100 100 100
0 3 5 4 3 5 6 100 99 97 100 100 98 100 100 98 100 39 8 5 61 6 22 100 100 100 100 100 100 100 100 100 100 100 97 100 100 100 100 76 81 93 100 100
4 4 5 5 23 69 46 95 100 100 100 76 95 100 100 100 100 100 84 5 5 5 1 1 24 75 100 100 100 100 100 100 95 80 84 100 99 92 100 100 93 93 100 100
6 5 5 5 5 5 5 67 100 100 100 85 90 75 100 100 7 76 100 45 1 4 0 2 5 53 18 100 100 100 77 6 5 80 86 42 99 100 100 100 100 100 100 100
5 5 5 5 26 9 20 7 83 100 100 100 100 94 100 40 79 85 38 100 67 6 64 0 1 8 4 4 43 100 100 100 96 82 100 35 5 40 99 100 91 100 100 100
12 23 5 5 23 92 64 100 85 100 100 74 100 100 100 95 78 89 100 100 95 3 4 5 3 1 4 2 5 63 92 70 100 100 100 100 100 68 98 80 100 100 100 100
56 29 5 5 5 20 7 100 97 57 100 100 100 60 100 100 90 19 22 85 100 18 6 1 0 1 5 4 4 63 56 11 5 14 21 100 100 100 100 100 100 100 100 100
32 12 5 10 7 5 7 24 64 100 100 100 100 100 100 100 100 100 99 58 40 18 2 1 0 0 4 85 50 50 100 78 5 5 1 0 0 30 78 82 100 100 100 100
63 96 22 100 100 74 31 92 100 100 100 81 100 100 100 100 100 72 45 10 25 21 4 0 0 0 0 7 66 34 36 58 38 13 5 5 5 6 14 9 5 87 83 91
60 91 35 86 55 81 100 100 100 100 100 42 5 38 100 100 100 100 100 100 100 94 16 5 1 0 3 0 2 4 3 4 62 100 90 23 15 91 90 50 69 8 21 44
32 92 99 20 87 100 100 100 100 100 100 93 96 69 100 100 100 100 100 100 100 100 100 97 83 6 69 15 0 0 0 0 8 100 100 100 58 87 35 89 76 72 41 60
76 100 100 94 100 96 100 100 77 40 100 100 100 99 100 100 100 100 100 100 94 83 44 5 4 93 64 32 16 4 18 18 6 10 24 31 17 72 62 78 100 100 100 99
22 90 96 100 100 100 100 100 100 100 95 100 100 100 100 100 100 100 100 100 98 5 2 22 11 100 100 100 100 100 44 41 39 88 79 26 4 2 38 48 100 100 100 94
71 84 91 60 100 100 100 100 100 100 91 67 95 100 100 100 100 100 100 100 100 94 24 42 100 98 100 95 100 100 99 42 15 11 9 2 0 6 86 29 100 100 98 70
78 62 53 99 94 96 100 100 100 100 100 99 65 32 100 100 70 21 99 100 33 8 5 4 19 99 100 100 100 100 100 97 97 63 5 0 4 5 78 8 100 22 100 100
20 96 76 7 100 99 100 100 100 100 100 99 93 100 100 100 97 100 73 5 5 5 5 2 5 5 5 25 100 100 98 58 100 100 2 0 0 1 5 41 43 98 100 100
5 30 80 41 95 95 17 89 86 82 100 47 100 100 100 100 100 100 65 14 52 5 5 5 14 46 73 62 100 100 100 100 100 100 28 0 0 0 0 1 5 24 80 100
5 18 66 100 92 90 99 92 98 100 98 100 100 100 100 100 100 97 100 100 60 98 88 98 100 100 100 100 100 100 100 100 100 100 100 5 5 0 1 0 0 57 95 92
45 100 100 100 89 76 100 70 63 99 92 100 97 100 100 100 100 100 100 100 100 100 100 100 100 100 100 100 100 100 100 100 100 100 100 19 5 5 5 5 10 100 100 100
100 82 78 6 73 79 96 55 91 82 100 99 84 99 100 100 100 100 100 100 100 100 100 100 100 100 100 100 100 100 98 100 100 98 99 45 22 6 13 79 100 64 41 100
60 78 70 92 82 59 100 100 100 95 95 100 100 100 100 100 100 100 100 100 100 100 100 100 100 99 100 100 100 100 100 99 100 100 100 100 100 100 100 100 100 100 84 100
91 38 95 80 38 20 34 100 100 100 98 94 99 100 100 100 100 100 97 94 87 96 92 94 88 82 97 96 99 100 100 100 100 82 57 100 100 100 100 94 67 99 100 100
4 5 50 5 17 55 8 75 99 100 97 100 100 94 100 100 100 100 100 100 53 14 19 9 41 78 65 51 56 75 100 100 95 84 100 100 100 100 77 58 80 100 100 100
1 0 0 4 0 2 4 5 10 100 100 100 59 62 100 100 100 100 100 100 100 100 100 100 100 100 100 100 79 100 89 68 99 100 100 100 100 100 100 100 100 100 100 100
0 0 5 5 4 5 5 42 96 100 100 100 98 63 100 100 100 100 100 100 100 100 100 100 100 100 100 100 100 100 100 100 86 70 62 73 100 100 100 100 100 99 100 100

GFSCGP_prec_cloud_099.txt.gz
Cloud_Cover
5 94 97 83 94 100 100 100 100 100 100 100 100 100 100 100 100 51 100 100 92 93 100 100 100 100 100 100 100 100 100 100 100 100 100 100 100 83 89 54 94 87 92 92
4 5 94 12 6 100 58 57 100 100 100 100 99 100 100 100 100 98 81 100 100 99 81 100 100 100 100 100 100 100 100 92 100 100 100 100 100 98 97 91 65 84 100 100
1 1 5 18 88 47 98 100 91 100 100 100 100 98 100 100 100 53 9 68 100 100 41 30 88 100 100 100 100 100 100 98 80 100 98 96 100 100 70 98 88 30 62 100
0 0 1 5 5 38 100 95 96 100 100 100 100 100 99 100 56 77 5 5 40 100 100 89 45 19 100 100 100 100 100 100 100 100 97 89 73 90 100 96 51 64 90 100
2 5 0 0 5 87 100 100 98 96 100 99 100 31 100 69 61 46 67 84 39 73 91 99 100 52 49 81 94 97 89 96 88 100 100 100 100 82 96 100 100 100 100 100
5 5 5 5 4 15 100 85 100 94 74 98 97 98 100 100 100 100 86 96 79 17 26 7 58 100 100 96 86 82 62 87 98 94 100 100 100 100 100 100 100 100 100 100
5 3 5 5 5 5 76 74 90 100 100 84 100 99 43 89 100 100 100 100 94 99 90 57 5 13 94 100 100 100 100 100 100 44 73 82 63 88 99 100 100 100 100 100
57 4 3 5 5 15 65 30 46 78 100 100 100 100 100 100 100 81 100 100 100 58 13 35 30 5 5 3 32 100 100 100 100 94 89 94 100 100 54 99 100 100 99 89
67 9 3 7 100 75 31 46 50 100 54 48 100 46 97 100 100 100 100 88 98 100 100 52 40 3 2 5 5 0 0 1 32 88 98 100 100 82 41 45 100 37 100 100
20 44 5 46 71 95 99 73 89 100 100 92 100 100 100 100 100 100 100 85 95 90 98 77 18 5 5 5 5 4 0 0 1 3 1 3 0 31 74 99 61 76 100 100
72 76 7 98 32 66 100 100 87 88 97 19 26 98 100 100 100 100 100 100 100 100 100 96 23 11 6 1 0 5 2 0 0 2 5 5 5 2 5 5 3 5 7 20
7 70 99 6 100 100 100 100 100 100 94 41 6 7 100 100 100 100 100 100 100 100 100 100 100 71 5 4 0 10 67 6 5 5 2 5 5 5 5 13 97 99 96 98
20 98 99 79 88 80 100 100 100 100 100 88 71 3 56 59 97 100 100 74 93 100 100 100 100 100 100 40 5 5 4 2 0 4 5 2 0 5 5 5 67 5 68 95
25 70 72 62 96 100 100 100 100 100 100 36 85 100 100 98 100 100 100 100 100 91 100 100 100 100 100 100 98 20 1 1 11 49 6 0 3 6 11 8 44 59 79 8
56 93 84 95 83 100 100 100 100 100 62 95 77 100 100 100 100 100 100 100 100 100 100 98 100 100 100 98 99 47 5 32 27 1 20 55 92 99 74 35 47 43 56 4
42 8 92 64 16 100 100 100 100 100 100 100 64 37 100 100 100 100 97 51 12 68 85 100 100 100 100 100 96 77 22 76 89 57 79 100 100 100 83 32 27 31 0 5
37 100 100 88 100 32 51 100 99 81 100 100 100 100 100 100 100 100 100 100 100 39 100 100 100 59 98 61 77 99 100 92 100 98 52 51 85 78 63 20 5 0 0 12
6 43 83 88 92 82 94 55 84 78 100 94 100 100 100 100 100 92 59 53 69 5 5 35 89 99 5 3 5 36 84 100 100 100 100 100 100 40 94 93 20 4 2 0
5 12 59 99 98 75 99 36 49 81 100 100 92 100 100 100 100 100 91 86 60 96 29 5 5 52 41 9 4 0 10 100 99 98 100 100 100 80 100 100 97 51 95 91
5 32 82 100 100 55 95 27 38 82 37 79 100 100 100 100 100 100 100 100 100 5 90 100 100 100 100 100 46 54 49 88 100 100 100 100 99 100 100 100 100 100 100 100
100 96 80 82 73 5 17 71 100 100 100 100 100 100 100 100 100 100 100 100 100 100 100 100 100 100 100 100 100 95 94 100 100 100 100 100 100 100 100 100 100 100 100 100
34 83 99 76 93 49 5 93 100 100 100 95 100 100 100 100 100 100 100 100 100 100 100 100 100 100 100 100 100 100 78 97 100 100 100 100 100 100 100 100 100 100 73 82
5 5 12 18 5 16 39 5 47 100 100 100 100 100 100 100 100 100 100 100 100 100 100 100 100 100 100 100 100 100 100 100 100 100 100 100 100 100 96 95 96 100 100 100
5 5 41 6 3 5 5 7 62 6 76 100 100 98 100 100 100 100 100 100 100 100 100 100 100 100 100 66 83 80 76 80 100 100 100 100 99 97 99 100 54 51 100 100
1 3 2 5 1 0 1 0 1 2 5 5 100 100 26 82 100 100 100 100 100 100 100 99 98 100 100 100 97 65 67 86 100 100 100 83 95 100 99 55 52 75 100 100
5 0 4 0 1 5 5 5 59 40 20 58 35 100 100 100 100 100 100 100 100 100 100 100 70 96 100 96 76 57 77 98 97 100 100 100 76 55 98 100 100 100 100 100

GFSCGP_prec_cloud_102.txt.gz
Cloud_Cover
98 89 98 100 92 100 100 100 100 100 100 100 100 68 96 99 67 5 100 100 100 100 100 100 100 100 100 100 100 100 100 100 100 100 100 100 100 94 91 100 99 80 99 86
58 97 77 81 10 52 97 100 100 100 100 96 100 100 72 72 80 5 20 100 100 100 100 100 100 100 100 100 100 100 100 100 100 100 100 100 100 98 98 100 91 86 83 49
5 5 85 85 67 69 92 100 100 100 100 100 100 100 87 71 49 6 9 33 99 100 98 100 100 100 100 100 100 100 100 100 100 100 100 100 100 100 100 100 100 100 100 100
0 0 1 5 6 14 82 89 100 100 100 90 94 100 97 97 82 22 32 5 8 100 100 100 100 100 100 100 100 100 100 100 100 100 100 100 100 100 100 100 100 100 100 100
2 5 0 0 4 74 5 89 76 100 100 97 84 98 100 100 90 58 68 7 92 9 55 100 100 100 100 100 100 100 100 100 100 100 100 100 100 100 100 100 100 100 100 100
4 5 5 4 3 4 89 14 9 67 100 100 100 88 100 100 100 100 100 98 77 94 64 65 33 100 100 100 98 100 100 100 100 100 100 100 100 100 100 100 100 100 100 100
4 0 3 5 5 5 6 62 80 100 98 100 100 86 53 100 100 100 100 99 82 68 91 89 84 26 82 100 100 100 100 100 100 100 100 100 100 100 100 100 100 100 100 100
60 2 0 4 5 57 43 14 46 14 48 86 100 100 100 100 100 100 100 100 100 99 5 97 100 98 52 99 90 100 100 100 100 100 100 100 100 100 100 100 100 100 100 100
68 9 0 0 21 79 94 49 68 58 41 52 99 100 100 100 100 100 100 100 100 100 98 100 100 100 100 60 20 5 46 75 100 100 100 100 100 100 100 100 100 100 100 100
53 37 1 6 8 13 95 43 95 100 100 100 47 96 100 100 100 100 100 100 100 88 11 96 100 93 85 100 98 14 5 5 12 28 47 68 57 58 91 100 90 72 75 66
64 76 9 5 23 34 98 100 98 100 100 98 99 15 76 100 100 100 100 100 100 100 54 84 86 100 100 83 79 87 100 100 100 81 48 27 5 57 100 100 100 100 93 100
24 89 79 21 61 91 100 100 100 100 90 85 86 100 98 99 100 100 99 100 100 100 100 100 99 83 94 100 99 17 97 100 100 100 100 100 100 100 100 100 100 100 99 67
5 88 69 5 66 61 100 100 100 100 94 54 43 2 62 100 100 99 100 100 100 100 100 99 100 99 100 100 100 100 72 6 7 50 93 98 100 98 85 31 7 5 5 5
21 55 53 56 27 99 100 100 100 100 100 67 13 82 42 5 55 100 100 100 100 100 100 100 100 100 78 55 35 5 4 4 2 0 3 3 2 1 5 18 5 5 5 5
2 5 5 31 56 69 86 76 97 100 100 100 28 6 100 97 73 10 18 96 100 99 96 100 100 77 45 30 5 5 5 2 94 8 4 0 0 0 0 0 5 12 36 5
39 5 35 5 5 5 44 93 100 88 100 100 96 81 100 100 100 100 100 100 100 100 100 100 100 100 100 100 100 56 100 25 6 8 15 3 6 2 24 90 98 19 5 5
39 88 38 95 92 88 76 29 96 100 100 95 100 100 100 74 63 97 100 100 100 100 100 100 100 100 100 100 100 95 100 88 2 93 7 64 100 86 100 42 25 5 35 100
7 44 100 92 95 46 88 50 52 100 100 100 99 100 100 100 72 100 31 100 95 25 57 97 100 100 100 100 100 100 100 86 28 84 93 97 100 97 93 100 67 95 85 100
5 5 43 96 94 29 94 52 86 100 100 100 100 100 100 100 100 96 65 92 100 100 100 100 100 100 100 91 29 92 100 100 61 5 29 100 100 100 100 100 38 97 100 100
6 18 36 7 95 65 81 97 60 30 89 100 100 100 100 100 100 100 98 100 100 100 100 100 100 97 72 14 53 90 85 5 10 40 100 100 100 100 100 100 100 100 100 100
72 95 58 87 89 3 3 7 91 93 64 86 98 100 100 100 100 100 100 100 100 100 100 97 57 8 34 56 6 5 5 5 5 5 5 86 89 100 100 100 100 100 100 100
24 43 97 93 92 54 5 4 34 79 100 100 95 72 100 100 100 100 100 100 100 100 100 84 32 78 100 100 100 92 78 23 46 96 100 100 100 93 72 94 100 100 100 100
42 5 10 8 7 3 90 5 5 28 86 100 98 100 100 100 100 100 100 100 100 100 100 100 100 100 100 100 100 100 100 79 100 100 100 100 100 100 100 100 100 100 100 100
5 5 22 5 2 0 5 8 61 5 1 0 20 75 82 100 100 100 100 100 100 100 100 100 100 100 100 100 100 100 100 100 100 100 100 100 100 100 100 100 100 100 100 100
1 5 5 5 3 2 1 3 5 5 5 5 5 4 16 100 91 100 100 100 100 100 100 100 100 100 100 100 100 100 100 100 100 100 100 100 100 100 100 100 100 100 99 92
5 3 4 1 0 0 5 5 5 5 60 76 5 5 5 100 92 64 86 100 100 100 100 100 100 100 100 100 100 100 100 100 100 100 100 100 100 100 97 100 100 99 100 100

GFSCGP_prec_cloud_105.txt.gz
Cloud_Cover
87 44 100 100 78 80 100 100 100 100 100 100 100 99 46 47 100 100 100 100 100 100 100 100 100 100 100 100 100 100 100 100 100 100 100 100 74 88 98 100 96 79 95 100
36 57 47 92 8 85 100 97 99 100 100 100 100 99 38 30 93 98 100 100 100 100 100 100 100 100 100 100 100 100 100 100 100 100 100 100 100 100 99 100 40 100 48 96
5 5 27 19 48 45 77 62 100 100 100 100 97 66 89 12 99 61 100 100 100 100 100 100 100 100 100 100 100 100 100 100 100 100 100 100 100 100 100 100 93 98 100 100
0 0 4 5 17 7 17 100 88 100 100 83 98 100 100 85 99 100 99 100 100 100 100 100 100 100 100 100 100 100 100 100 100 100 100 100 100 100 100 100 100 100 100 100
2 0 0 0 0 0 94 95 93 93 99 90 100 100 97 65 5 82 100 100 100 100 100 100 100 100 100 100 100 100 100 100 100 100 100 100 100 100 100 100 100 100 100 100
5 5 3 0 2 4 5 92 100 98 84 100 100 100 95 95 15 97 100 99 100 100 100 100 100 100 100 100 100 100 100 100 100 100 100 100 100 100 100 100 100 100 100 100
0 2 5 5 5 7 54 7 98 100 100 100 100 100 100 100 75 60 37 90 71 100 100 100 98 100 100 100 100 100 100 100 100 100 100 100 100 100 100 100 100 100 100 100
58 0 2 5 95 61 63 12 8 100 100 100 95 58 100 100 78 63 100 100 83 100 100 100 100 100 100 100 100 100 100 100 100 100 100 100 100 100 100 100 100 100 100 100
55 4 4 5 5 58 50 74 83 100 92 100 100 85 97 100 100 100 100 100 100 100 100 100 100 100 100 100 100 100 100 100 100 100 100 100 100 100 100 100 100 100 100 100
5 60 2 4 5 11 60 77 100 98 100 47 100 100 100 100 100 100 88 97 100 100 100 100 100 100 100 100 100 100 100 100 100 100 100 100 100 100 100 100 100 100 100 100
24 63 7 0 40 98 99 93 100 100 100 54 81 100 100 100 100 100 100 98 100 100 100 100 100 100 100 100 100 100 100 100 100 100 99 100 100 100 100 100 100 100 100 100
5 39 66 3 5 14 100 100 100 100 83 96 12 100 100 100 100 100 100 100 100 100 100 100 100 100 100 100 100 100 100 100 100 100 100 100 100 100 100 100 100 100 100 100
4 41 25 1 42 98 85 99 85 100 100 27 40 12 100 100 100 100 98 61 100 100 100 100 95 60 73 36 92 100 100 98 100 100 100 100 100 100 100 100 100 100 100 100
12 25 11 5 3 36 86 95 83 99 100 100 66 83 99 100 100 100 100 100 100 100 100 100 100 89 79 100 100 100 100 100 82 88 49 57 51 24 44 100 100 100 99 100
4 5 22 5 5 5 33 81 76 32 82 100 100 87 97 100 23 99 100 100 100 100 100 100 100 100 66 67 95 99 100 100 100 100 100 100 100 100 100 100 96 100 94 64
6 5 55 70 90 5 5 5 5 5 5 100 90 100 100 98 42 86 46 100 100 100 100 100 100 100 100 100 100 100 89 75 13 14 38 72 100 100 100 100 100 100 100 100
30 51 49 22 92 44 15 98 51 21 13 89 82 100 100 100 43 49 98 69 99 68 91 99 100 100 100 100 100 100 100 100 100 91 82 5 5 52 5 5 5 5 10 15
5 51 97 80 5 15 95 77 84 96 100 76 100 100 100 100 100 98 5 24 36 30 100 88 74 97 100 100 100 100 92 99 7 13 52 7 4 5 2 5 43 2 3 20
5 5 23 72 96 6 8 41 24 64 90 100 100 100 100 100 100 99 82 49 20 100 86 5 31 62 100 100 75 58 96 100 99 60 95 93 100 100 100 100 100 49 94 100
20 19 5 5 86 16 6 20 5 5 38 99 100 100 100 100 100 100 100 100 84 64 18 82 96 100 100 38 72 100 99 100 100 100 100 100 100 98 100 100 90 100 100 100
73 90 40 82 83 3 0 5 5 48 12 100 99 100 100 100 100 100 100 100 100 99 50 41 70 100 100 100 100 100 99 69 83 92 39 82 94 100 100 100 100 100 100 100
5 40 35 52 84 21 3 5 21 5 7 46 57 75 100 96 86 100 100 100 100 100 100 100 100 100 100 100 100 100 100 32 5 2 2 91 100 100 100 100 100 100 100 100
38 3 4 5 2 0 5 5 5 8 6 4 10 7 60 100 100 100 100 100 100 100 100 100 100 100 100 100 100 36 6 5 8 20 97 100 18 13 31 100 100 100 100 90
5 5 36 5 3 1 4 4 25 5 5 4 0 0 1 5 83 100 100 100 100 100 100 100 100 100 100 98 38 84 64 100 92 97 100 100 100 100 100 100 100 100 100 100
1 5 5 5 2 0 0 2 4 5 5 5 5 5 5 3 5 100 97 100 100 100 100 100 100 100 100 100 100 100 100 100 100 100 100 100 100 100 100 100 100 100 100 100
5 5 4 1 0 0 0 1 5 5 5 5 8 5 5 5 0 57 100 94 100 100 100 97 100 91 100 100 100 100 100 99 100 100 100 100 100 100 100 100 100 100 100 100

GFSCGP_prec_cloud_108.txt.gz
Cloud_Cover
79 94 93 100 61 9 97 100 90 92 89 99 100 100 100 84 92 34 100 100 100 100 100 100 100 100 100 100 100 100 100 100 100 100 100 100 100 100 100 100 100 100 100 88
48 94 82 99 28 25 88 37 17 79 42 100 99 99 100 93 74 83 100 100 100 100 100 100 100 100 100 100 100 100 100 100 100 100 100 100 100 100 100 100 100 100 97 84
42 17 5 42 12 29 22 15 60 60 60 76 69 90 100 100 70 43 100 100 100 100 100 100 100 100 100 100 100 100 100 100 100 100 100 100 100 100 100 100 100 87 82 86
2 3 5 5 9 7 12 5 7 81 47 88 100 73 81 100 62 100 100 100 100 100 100 100 100 100 100 100 100 100 100 100 100 100 100 100 100 100 100 100 100 100 98 94
3 1 4 5 5 5 60 95 6 12 48 52 100 98 75 100 98 99 100 100 100 100 100 100 100 100 100 100 100 100 100 100 100 100 100 100 100 100 100 100 100 100 100 100
4 3 4 5 1 5 5 32 96 58 97 100 100 100 33 89 100 100 100 100 100 100 100 100 100 100 100 100 100 100 100 100 100 100 100 100 100 100 100 100 100 100 100 100
3 0 2 5 5 4 4 10 88 99 100 100 100 96 100 100 98 100 100 100 100 100 100 100 100 100 100 100 100 98 100 100 100 100 100 100 100 100 100 100 100 100 100 100
4 4 2 4 8 20 37 44 87 95 87 100 83 96 100 61 100 100 100 100 100 100 100 100 100 100 100 100 100 100 100 100 100 100 100 100 100 100 100 100 100 100 100 100
5 5 0 0 4 8 98 55 80 54 6 100 100 100 100 100 100 100 100 100 100 100 100 100 100 100 100 100 100 100 100 100 100 100 100 100 100 100 100 100 100 100 100 100
5 43 1 4 1 8 45 58 100 98 79 82 63 100 100 100 99 21 100 100 100 100 100 100 100 100 100 100 100 100 100 100 100 100 100 100 100 100 100 100 100 100 100 100
5 12 39 0 5 34 39 91 100 100 77 88 81 100 100 100 100 100 100 100 100 100 100 100 100 100 100 100 100 100 100 98 99 100 99 100 100 100 100 100 100 100 100 100
5 6 48 5 5 5 81 100 99 100 100 100 80 100 100 100 69 67 87 12 93 100 100 100 100 100 100 100 100 100 100 100 100 100 100 100 100 100 100 100 100 100 100 100
2 36 30 4 51 67 100 61 67 56 100 100 100 97 100 100 100 48 82 79 89 100 100 100 100 100 100 100 100 100 100 100 100 100 100 100 100 100 100 100 100 100 100 100
1 6 7 20 33 17 76 21 41 67 95 100 91 90 40 100 100 100 28 73 66 8 40 100 100 100 100 100 100 100 100 100 100 100 100 100 100 100 100 100 100 100 100 100
0 2 5 5 5 5 5 56 5 98 6 65 94 98 48 80 100 100 100 7 55 92 100 99 98 100 100 99 100 100 100 100 100 100 100 100 100 100 100 100 100 100 100 100
5 8 28 5 43 68 5 5 5 5 5 37 73 99 100 84 43 100 100 100 100 100 100 27 89 95 92 100 100 100 98 100 100 100 100 100 100 100 100 100 100 100 100 100
2 5 8 5 5 32 47 13 97 100 100 100 97 100 52 94 85 100 100 100 100 100 100 100 100 71 27 70 99 100 100 100 100 100 100 100 100 100 100 100 100 100 100 100
5 5 36 5 5 40 35 5 68 76 99 100 100 100 99 91 100 100 77 100 100 100 100 100 100 98 100 100 99 100 100 100 100 100 100 100 100 100 100 100 100 100 100 100
5 5 5 4 1 4 6 5 5 9 93 100 100 100 100 78 100 100 100 100 100 100 100 89 94 100 100 100 88 67 59 100 100 100 98 100 100 100 100 100 100 100 100 100
34 5 5 13 2 0 6 5 5 5 58 95 100 100 100 100 100 100 100 98 100 100 82 58 52 100 100 100 100 100 96 48 100 99 100 93 99 100 100 100 100 98 100 100
56 56 4 5 1 0 1 5 5 79 32 29 58 100 100 98 100 100 100 100 86 100 100 74 9 99 93 22 28 64 89 89 100 99 98 59 100 100 100 100 100 100 100 92
1 2 4 6 5 0 0 5 8 2 1 6 69 95 77 34 100 100 95 98 100 100 100 100 91 76 58 96 20 98 99 30 60 100 96 100 100 100 100 100 100 96 79 66
4 0 0 0 0 0 0 0 0 0 5 7 0 0 0 2 6 95 97 81 98 100 100 100 100 100 97 99 65 100 100 72 70 22 14 6 31 94 100 100 100 100 100 73
4 0 5 4 0 0 0 0 3 2 5 5 1 0 0 0 0 5 80 100 89 100 100 100 95 99 100 100 100 100 100 100 100 100 100 100 100 100 47 64 100 83 99 86
0 5 5 5 0 0 0 0 3 3 5 5 5 5 5 5 0 0 2 100 95 73 100 100 100 100 100 100 96 100 100 100 100 55 72 84 93 99 100 100 100 100 100 100
1 0 1 0 0 0 0 0 0 4 5 5 5 5 5 5 5 1 0 100 100 100 100 100 100 100 100 62 98 82 100 100 100 98 100 100 100 100 100 100 100 100 100 100

GFSCGP_prec_cloud_111.txt.gz
Cloud_Cover
81 92 100 100 91 100 100 100 96 92 100 100 51 17 53 93 100 50 33 48 100 100 100 100 100 100 100 100 100 100 100 100 100 100 100 100 100 100 100 100 100 100 100 100
44 96 100 100 79 100 100 94 94 84 100 100 98 92 100 92 98 85 5 5 100 100 100 100 100 100 100 100 100 100 100 100 100 100 100 100 100 100 100 100 100 100 100 100
90 100 7 29 97 100 100 100 95 100 100 95 31 12 100 40 58 100 60 56 100 100 100 100 100 100 100 100 100 100 100 100 100 100 100 100 100 100 100 100 100 100 100 100
8 56 5 10 93 88 100 35 92 64 90 100 21 99 54 14 26 100 34 100 100 100 100 100 100 100 100 100 100 100 100 100 100 100 100 100 100 100 100 100 100 100 100 100
14 5 6 5 79 14 80 5 37 100 86 87 100 32 100 69 41 100 96 91 100 100 100 100 100 100 100 100 100 100 100 100 100 100 100 100 100 100 100 100 100 100 100 100
3 5 5 29 4 5 5 10 29 70 100 62 100 57 82 73 76 100 91 100 100 100 100 100 100 100 100 100 100 100 100 100 100 100 100 100 100 100 100 100 100 100 100 100
3 2 3 2 6 5 5 59 94 98 77 76 42 98 100 54 99 100 100 100 100 100 100 100 100 100 100 100 100 100 100 100 100 100 100 100 100 100 100 100 100 100 100 100
5 41 2 4 45 49 84 90 98 99 99 87 32 76 92 38 6 100 100 100 100 100 100 100 100 100 100 100 100 100 100 100 100 100 100 100 100 100 100 100 100 100 100 100
5 27 2 0 5 23 66 46 79 94 100 70 89 42 92 16 6 100 100 100 100 100 100 100 100 100 100 100 100 100 100 100 100 100 100 100 100 100 100 100 100 100 100 100
49 77 7 4 8 18 36 100 96 95 96 100 100 100 100 95 5 97 100 100 100 100 100 100 100 100 100 100 100 100 100 100 100 100 100 100 100 100 100 100 100 100 100 100
8 66 66 36 75 94 88 82 69 100 97 100 100 100 5 94 3 12 100 100 100 100 100 100 100 100 100 100 100 100 100 100 100 100 100 100 100 100 100 100 100 100 100 100
13 32 46 46 6 21 99 99 31 100 100 100 100 100 57 89 25 49 48 100 100 100 100 100 100 100 100 100 100 100 100 100 100 100 100 100 100 100 100 100 100 100 100 100
17 44 44 70 59 37 91 100 94 67 92 75 80 100 98 73 95 100 98 99 100 100 100 100 100 100 100 100 100 100 100 100 100 100 100 100 100 100 100 100 100 100 100 100
1 11 5 5 39 18 29 46 5 68 90 68 82 100 100 100 85 96 99 100 100 100 100 100 100 100 100 100 100 100 100 100 100 100 100 100 100 100 100 100 100 100 100 100
2 2 4 5 13 5 5 5 0 3 22 31 29 29 73 95 100 99 40 71 100 100 100 100 100 100 100 100 100 100 100 100 100 100 100 100 100 100 100 100 100 100 100 100
0 10 5 5 5 26 1 0 0 2 6 8 6 24 33 62 56 98 100 99 50 100 100 100 100 100 100 100 100 100 100 100 100 100 92 100 100 100 100 100 100 100 100 100
2 5 30 3 4 12 44 60 30 83 100 92 91 45 5 25 94 46 26 56 100 92 87 100 100 100 100 100 100 100 100 100 100 100 100 100 100 100 100 100 100 100 100 100
3 5 7 4 13 44 52 5 36 78 36 70 23 87 97 48 80 20 7 7 94 100 99 33 24 91 100 100 100 100 100 100 100 100 100 100 100 100 100 100 100 100 100 100
5 5 5 4 0 0 5 4 45 65 17 83 92 53 42 68 68 96 27 45 44 62 100 100 100 94 48 100 100 100 100 100 100 100 100 100 100 100 100 100 100 100 100 100
5 5 22 5 1 0 5 5 2 5 48 53 89 100 100 15 98 92 38 98 71 100 92 99 100 100 100 100 83 91 100 100 100 100 100 100 100 100 100 100 100 100 100 100
5 5 4 0 1 0 1 0 0 56 36 36 66 87 69 43 78 70 59 94 94 100 100 100 97 92 82 97 98 41 91 100 100 100 100 100 100 100 100 100 100 100 100 100
0 1 1 0 1 0 0 0 4 1 0 4 45 100 88 39 8 44 82 83 92 92 100 86 67 100 100 24 67 52 5 5 36 31 99 100 100 100 100 100 100 100 100 100
2 0 0 0 0 0 0 4 0 0 4 18 3 5 1 0 0 0 5 26 85 94 26 10 22 69 92 78 56 34 17 75 50 5 66 92 38 90 100 100 100 100 100 100
2 1 0 0 0 0 0 0 0 4 3 2 4 5 5 5 1 1 0 21 89 76 24 62 100 100 80 76 97 89 92 100 99 83 62 76 100 80 82 100 100 90 85 98
5 5 0 0 0 0 0 0 3 3 2 5 5 5 5 5 5 5 2 0 12 65 54 45 24 60 100 94 100 97 100 100 100 99 100 100 100 100 100 98 100 55 76 100
5 5 5 0 0 0 0 0 0 0 3 5 5 5 5 14 47 5 5 2 2 100 100 100 79 33 78 88 90 99 100 98 100 100 100 100 100 99 99 100 100 100 100 100

GFSCGP_prec_cloud_114.txt.gz
Cloud_Cover
63 39 86 100 100 99 100 100 100 100 100 95 87 39 40 100 100 100 100 100 100 100 100 99 100 83 6 100 100 100 100 100 100 100 98 100 100 100 100 100 100 100 100 100
91 27 82 31 49 100 100 100 98 100 100 100 78 18 58 100 100 100 100 100 100 100 100 100 55 7 53 100 100 100 100 100 100 100 100 100 100 100 100 100 99 100 100 100
97 28 99 16 33 100 100 100 100 100 32 100 100 10 5 100 100 100 100 100 100 100 100 100 84 46 100 100 100 100 100 100 100 100 100 100 100 100 100 100 100 100 100 100
5 12 28 5 14 86 12 96 80 100 100 100 66 76 18 54 100 100 100 100 100 100 100 100 100 83 100 100 100 100 100 100 100 100 100 100 100 100 100 100 100 100 100 100
2 20 5 5 71 8 5 5 19 5 93 100 100 100 100 84 17 100 100 100 100 100 100 100 99 100 100 100 100 100 100 100 100 100 100 100 100 100 100 94 100 100 100 100
0 0 0 4 1 0 2 1 2 62 100 77 100 97 100 98 99 100 99 100 100 100 100 100 100 100 100 100 100 100 100 100 100 100 100 100 100 100 100 100 100 100 100 100
4 0 0 5 5 23 97 43 41 55 22 33 97 100 97 96 100 100 100 93 98 100 100 100 100 100 100 100 100 100 100 100 100 100 100 100 100 100 100 100 100 100 100 100
5 7 4 0 28 14 57 96 100 98 96 93 89 93 100 56 40 100 100 100 100 100 97 100 100 100 100 100 100 100 100 100 100 100 100 100 100 100 100 100 100 100 100 100
58 19 5 4 0 4 42 66 100 100 100 99 99 36 100 9 6 100 100 100 100 100 98 100 100 100 100 100 100 100 100 100 100 100 100 100 100 100 100 100 100 100 100 100
85 59 5 2 17 66 81 75 92 94 100 94 100 59 72 84 5 77 100 100 100 100 100 92 100 100 100 100 100 100 100 100 100 100 100 100 100 100 100 100 100 100 100 100
51 61 2 47 7 11 8 21 72 70 93 100 100 100 99 42 5 4 100 100 100 100 100 100 100 100 100 100 100 100 100 100 100 100 100 100 100 100 100 100 100 100 100 100
4 3 5 5 5 66 5 60 5 75 99 100 100 100 96 57 5 5 98 100 100 100 100 100 100 100 100 100 100 100 100 100 100 100 100 100 100 100 100 100 100 100 100 100
0 4 5 68 72 77 12 10 8 45 91 42 82 100 63 33 97 12 6 100 98 100 100 100 100 100 100 100 100 100 100 100 100 100 100 100 100 100 100 100 100 100 100 100
1 29 5 5 38 4 3 0 4 4 21 17 94 100 95 100 96 28 5 61 96 100 100 100 100 100 100 100 100 100 100 100 100 100 100 100 100 100 100 100 100 100 100 100
0 5 2 1 5 5 4 0 0 5 3 12 8 14 94 74 86 96 58 22 93 38 63 100 100 100 100 100 100 100 100 100 100 100 100 100 100 100 100 100 100 100 100 100
0 5 5 5 0 0 0 0 0 2 6 5 5 88 100 99 5 25 99 100 26 72 49 100 100 100 100 100 100 100 100 100 100 100 100 100 100 100 100 100 100 100 100 100
2 5 8 4 0 5 5 5 5 5 91 57 81 9 5 15 74 63 5 38 65 45 6 83 100 100 100 100 100 100 100 100 100 100 100 100 100 100 100 100 100 100 100 100
0 5 5 4 5 14 5 0 5 5 5 5 5 61 74 100 100 52 5 5 5 41 100 93 94 100 100 100 100 100 100 100 100 100 100 100 100 100 100 100 100 100 100 100
0 3 5 5 4 0 0 0 3 5 1 5 8 28 16 20 100 97 22 5 5 5 5 21 89 100 98 100 100 100 100 100 100 100 100 100 100 100 100 100 100 100 100 100
0 0 5 5 4 0 0 0 0 0 14 3 4 5 5 5 35 98 12 35 6 5 5 5 5 74 94 93 67 99 94 92 100 100 100 100 100 100 100 100 100 100 100 100
5 5 4 4 3 0 0 0 0 4 1 0 0 5 10 39 75 6 88 34 45 10 94 5 50 25 31 100 72 71 100 95 99 100 100 100 100 100 100 100 100 100 100 100
1 3 5 0 2 2 0 0 2 0 0 1 5 3 5 4 4 5 5 5 97 9 5 17 5 9 5 5 45 100 100 92 100 97 100 99 100 100 100 100 100 100 100 100
1 0 0 0 0 0 0 0 0 0 0 2 4 5 5 0 0 0 1 0 6 100 5 5 21 17 19 5 70 5 12 30 61 89 100 80 92 70 100 100 100 100 100 100
5 4 3 0 0 0 0 0 0 0 0 0 0 0 0 2 2 5 0 0 0 29 91 64 100 63 7 5 5 5 6 24 25 51 44 84 100 100 100 100 100 100 100 100
5 5 5 5 5 5 2 0 0 0 0 0 0 3 2 5 5 5 3 5 4 0 32 100 98 8 14 5 8 5 95 100 100 100 99 94 100 100 100 100 100 100 100 100
30 13 5 5 5 5 5 4 0 0 0 0 4 0 5 5 5 69 6 5 5 0 6 100 100 100 98 100 59 69 24 100 78 26 73 95 100 100 100 100 100 100 100 100

GFSCGP_prec_cloud_117.txt.gz
Cloud_Cover
5 82 55 83 96 100 75 69 100 100 100 99 100 35 100 100 100 91 100 100 100 100 100 100 100 100 100 100 40 90 100 100 100 100 100 100 100 100 100 100 84 100 100 100
82 11 5 40 84 69 94 95 76 100 100 100 100 100 94 100 100 100 77 93 100 100 100 100 100 100 100 48 10 100 100 100 100 100 100 100 100 100 100 100 100 100 100 100
40 15 94 5 6 5 78 87 84 100 93 100 82 98 18 100 100 100 100 94 100 100 100 100 100 100 100 94 83 100 100 100 100 100 100 100 100 100 99 100 100 100 100 100
1 61 45 5 5 26 5 12 18 6 34 100 100 99 99 100 100 100 100 100 100 100 100 100 100 100 100 100 92 100 100 100 100 100 100 100 100 100 100 100 100 100 100 100
0 0 0 0 1 65 13 0 1 5 5 100 100 100 100 100 100 100 100 100 100 100 100 100 100 100 100 97 100 78 100 100 100 100 100 100 100 100 100 100 100 100 100 100
2 5 3 4 0 16 4 5 0 0 18 30 99 100 100 100 100 100 100 100 100 100 100 100 100 100 100 100 100 100 100 100 100 100 100 100 100 100 100 100 100 100 100 100
0 5 72 4 0 51 100 29 65 16 22 86 75 99 100 100 100 100 100 100 100 100 100 100 100 100 100 100 100 100 100 100 100 100 100 100 100 100 100 100 100 100 100 100
7 5 3 5 11 9 86 83 100 100 89 87 98 80 100 100 100 100 100 100 100 100 100 100 100 100 100 100 100 100 100 100 100 100 100 100 100 100 100 100 100 100 100 100
38 3 32 69 80 81 6 100 94 100 100 74 100 78 95 74 100 100 100 100 100 100 100 100 100 100 100 100 100 100 100 100 100 100 100 100 100 100 100 100 100 100 100 100
16 24 4 5 4 0 6 11 68 100 100 100 95 90 100 21 35 100 100 100 100 100 100 100 100 100 100 100 100 100 100 100 100 100 100 100 100 100 100 100 100 100 100 100
1 4 3 1 44 5 4 5 10 36 88 100 93 100 100 100 78 70 100 100 100 100 100 100 100 100 100 100 100 100 100 100 100 100 100 100 100 100 100 100 100 100 100 100
0 4 41 75 23 5 5 4 5 5 65 73 50 100 100 100 100 36 9 100 100 100 100 100 100 100 100 100 100 100 100 100 100 100 100 100 100 100 100 100 100 100 100 100
0 5 54 77 3 0 0 0 5 40 38 97 97 96 45 66 98 92 5 10 100 100 100 100 100 100 100 100 100 100 100 100 100 100 100 100 100 100 100 100 100 100 100 100
0 15 4 5 4 3 2 0 0 3 28 86 26 52 7 30 54 19 28 5 5 54 100 100 100 100 100 100 100 100 100 100 100 100 100 100 100 100 100 100 100 100 100 100
0 5 5 0 1 0 0 0 0 2 2 18 5 70 27 5 46 97 12 7 5 5 6 81 99 100 100 100 100 100 100 100 100 100 100 100 100 100 100 100 100 100 100 100
0 28 7 50 0 2 0 0 0 5 5 5 5 23 5 5 5 5 5 0 5 5 5 88 100 100 100 100 100 100 100 100 100 100 100 100 100 100 100 100 100 100 100 100
2 11 10 4 0 5 3 0 0 5 5 5 5 5 5 44 64 5 5 5 5 5 5 5 5 63 98 82 100 100 100 100 100 100 100 100 100 100 100 100 100 100 100 100
0 5 23 61 5 1 0 0 1 0 0 0 0 4 44 87 100 8 5 5 5 5 5 5 5 5 39 47 69 100 100 100 100 100 100 100 100 100 100 100 100 100 100 100
0 5 5 5 30 0 0 0 0 0 0 0 0 1 5 6 11 10 5 5 4 2 5 5 5 5 5 5 5 6 100 100 100 100 100 100 100 100 100 100 100 100 100 100
0 0 5 5 5 1 0 0 0 0 4 0 0 1 5 5 39 5 15 5 5 5 5 2 3 1 4 3 47 24 97 55 100 100 100 100 100 100 100 100 100 100 100 100
22 16 5 38 4 0 0 0 0 0 0 0 0 0 0 2 3 4 5 1 5 5 5 5 5 5 5 5 2 3 62 100 99 100 84 100 100 100 100 100 100 100 100 100
1 14 5 3 4 4 0 0 0 0 0 0 0 0 0 0 1 3 1 0 1 5 5 5 5 5 3 4 0 1 5 14 100 100 100 100 100 100 100 100 100 100 100 100
5 5 5 5 0 0 5 5 5 1 0 0 0 0 0 1 0 0 0 0 0 0 2 5 5 5 5 5 5 5 3 1 5 2 8 26 79 100 100 100 100 100 100 100
72 31 6 5 5 5 5 5 5 5 5 0 0 2 0 0 0 0 0 0 0 0 0 4 24 4 5 5 5 3 0 0 0 0 4 4 28 100 100 100 100 100 100 100
88 96 59 8 8 5 5 5 5 5 5 5 0 0 0 0 0 0 4 0 0 2 0 4 100 44 2 0 0 0 3 5 5 1 5 93 100 100 100 100 100 100 100 100
67 76 95 63 10 7 5 5 5 5 5 5 1 0 0 0 3 23 56 5 5 5 3 4 17 100 100 62 16 5 3 6 5 51 42 93 100 100 100 100 100 100 100 100

GFSCGP_prec_cloud_120.txt.gz
Cloud_Cover
99 90 96 81 100 99 61 99 82 97 100 100 100 100 100 100 91 10 100 100 100 100 53 100 94 49 100 100 100 100 100 100 100 100 100 100 100 100 100 100 67 100 99 98
86 58 28 97 99 100 100 77 17 42 100 100 100 99 100 100 99 100 100 100 100 100 100 100 100 100 100 100 100 100 100 100 100 100 100 100 100 100 100 100 100 99 100 80
34 8 56 98 14 8 28 86 79 28 89 100 96 98 100 100 100 100 100 100 100 100 100 100 100 100 100 100 48 100 100 100 100 100 100 100 100 100 100 100 100 100 98 100
3 66 32 21 3 4 5 33 98 6 22 35 92 100 100 100 100 100 100 100 100 100 100 100 100 100 100 100 100 100 100 100 99 100 100 100 100 100 100 100 100 100 100 100
2 2 0 1 0 16 8 0 0 3 3 45 97 76 100 100 100 100 100 100 100 100 100 100 100 100 100 100 100 100 100 100 100 100 100 100 100 100 100 100 100 100 100 100
4 5 5 5 0 41 76 5 1 0 2 100 88 100 100 100 100 100 100 100 100 100 100 100 100 100 100 100 100 100 100 100 100 100 100 100 100 100 100 100 100 100 100 100
5 5 5 21 68 26 83 5 100 5 94 100 100 100 100 100 100 100 100 100 100 100 100 100 100 100 100 100 97 100 100 100 100 100 100 100 100 100 100 100 100 100 100 100
5 4 60 5 73 34 53 99 100 54 100 100 95 100 100 100 100 100 100 100 100 100 100 100 100 100 100 100 100 100 100 100 100 100 100 100 100 100 100 100 100 100 100 100
5 3 6 2 0 21 98 100 100 100 87 11 91 100 100 100 100 100 100 100 100 100 100 100 100 100 100 100 100 100 100 100 100 100 100 100 100 100 100 100 100 100 100 100
2 5 3 0 3 1 10 71 93 96 47 74 98 90 100 100 100 100 100 100 100 100 100 100 100 100 100 100 100 100 100 100 100 100 100 100 100 100 100 100 100 100 100 100
0 1 0 3 5 4 0 5 30 58 70 44 78 100 100 100 99 100 100 100 100 99 100 100 100 100 100 100 99 100 100 100 100 100 100 100 100 100 100 100 100 100 100 100
0 2 23 40 5 1 0 4 5 5 7 100 17 100 100 100 100 100 100 100 100 100 100 100 100 100 93 100 100 100 100 100 100 100 100 100 100 100 100 100 100 100 100 100
0 5 22 0 0 0 0 0 4 6 5 70 36 95 100 100 100 100 100 97 100 100 100 81 99 100 97 63 97 100 100 100 100 100 100 100 100 100 100 100 100 100 100 100
0 5 4 2 0 1 3 0 0 4 8 11 7 13 45 59 100 86 11 91 98 100 100 84 56 45 100 100 100 100 100 100 100 100 100 100 100 100 100 100 100 100 100 100
0 3 5 0 0 0 1 0 0 2 4 5 1 5 5 5 5 18 12 13 47 23 98 74 100 83 43 86 51 100 100 100 100 100 100 100 100 100 100 100 100 100 100 100
3 6 5 5 0 5 0 0 0 3 3 2 5 4 5 5 5 5 5 3 5 13 6 26 34 97 41 99 36 88 100 100 100 100 100 100 100 100 100 100 100 100 100 100
2 5 7 4 5 3 0 0 0 0 1 0 5 0 5 5 36 5 5 5 5 3 10 25 77 10 6 83 99 100 100 99 100 100 100 100 100 100 100 100 100 100 100 100
1 15 23 17 4 0 0 0 0 0 0 0 0 0 4 5 5 5 5 5 5 5 1 5 20 90 72 12 14 96 91 92 91 100 100 100 100 100 100 100 100 100 100 100
2 5 13 4 34 0 0 0 0 1 0 0 0 0 4 3 5 5 5 5 5 5 5 1 0 1 3 19 55 80 99 97 100 100 100 100 100 100 100 100 100 100 100 100
0 5 5 36 2 0 0 0 0 0 0 0 0 0 0 5 94 4 5 5 5 5 5 5 3 0 0 0 0 0 3 74 100 100 100 100 100 100 100 100 100 100 100 100
17 20 5 52 28 1 3 0 1 0 0 0 0 0 0 0 0 0 2 3 0 5 4 2 5 5 5 1 0 0 0 0 4 5 86 100 100 100 100 100 100 100 100 100
34 16 15 5 5 4 3 5 5 5 0 0 0 0 0 0 0 0 0 0 0 0 2 4 0 2 5 2 2 0 0 0 0 0 5 95 93 100 99 99 100 100 100 100
48 74 42 5 5 5 5 5 5 5 5 5 0 0 0 0 0 0 0 0 0 0 0 1 5 5 3 5 2 0 0 0 0 3 3 4 3 10 100 100 100 100 100 100
26 69 79 68 12 5 5 5 5 5 5 5 2 0 0 0 2 0 0 0 0 0 0 0 3 5 5 5 4 0 0 0 0 0 0 2 43 69 96 99 100 100 100 100
43 20 37 63 58 11 5 5 5 8 5 5 5 4 0 0 0 0 0 0 0 0 0 0 2 5 5 5 5 5 4 4 3 5 5 50 100 100 86 99 100 100 100 100
100 56 24 14 61 38 11 5 5 32 62 8 5 5 5 5 4 5 2 4 5 1 2 0 0 4 5 17 95 96 74 5 5 6 95 96 100 100 100 100 100 100 99 100